     2              OBSERVATION DATA    GPS                 RINEX VERSION / TYPE
ASHTORIN IGPP 01 - MAY - 98 14:03                           PGM / RUN BY / DATE
                                                            COMMENT
Original Marker Name: 124 FMK 1974                          COMMENT
Campaign Name: Anza Transect 1998                           COMMENT
4-Character Station Name: G124                              COMMENT
6-Character Antenna Code: DMRCHT                            COMMENT
Vertical Measurement Point: BCR                             COMMENT
Vertical Offset to Rinex Ref. Point: 0.0349                 COMMENT
Radial Measurement Point: ECF                               COMMENT
Radial Offset to Rinex Ref. Point: 0.1896                   COMMENT
Antenna Height from Field Measurement: 1.4210 m             COMMENT
Additional Antenna Identification Info.:                    COMMENT
Turborogue and Ashtech Choke Ring                           COMMENT
Antenna level, but about 1 mm W of center of                COMMENT
mark at takedown.                                           COMMENT
Original XYZ: -2410441.4682 -4710481.6369 3550385.8799      COMMENT
New XYZ position is based on association with SCEC monument COMMENT
E1D0K4I8+0101. Position of that monument is believed to be  COMMENT
valid to within 1 m horizontally; vertical accuracy         COMMENT
should be no worse than 3-times this value.                 COMMENT
                                                            COMMENT
Revised Rinex header created by UCSD GPS archive for        COMMENT
GSAC on 12-Apr-1999 (1999:102) 08:50:42 GMT                 COMMENT
For assistance contact dagnew@ucsd.edu or hjohnson@ucsd.edu COMMENT
                                                            COMMENT
124 FMK 1974                                                MARKER NAME
G124                                                        MARKER NUMBER
Anderson/Buck SCRIPPS INSTITUTION OF OCEANOGRAPHY           OBSERVER / AGENCY
085 ASHTECH Z12-XII3 1E951D0                                REC # / TYPE / VERS
749 DORNE-MARGOL. TYPE T                                    ANT # / TYPE
 -2381245.0000 -4758748.0000  3507166.0000                  APPROX POSITION XYZ
        1.3734        0.0000        0.0000                  ANTENNA: DELTA H/E/N
     1     1     0                                          WAVELENGTH FACT L1/2
     7    L1    L2    C1    P1    P2    D1    D2            # / TYPES OF OBSERV
    30                                                      INTERVAL
  1998     5     3    17    13   30.000000                  TIME OF FIRST OBS
  1998     5     3    23    46   60.000000                  TIME OF LAST OBS
     0                                                      # OF SATELLITES
                                                            END OF HEADER
 98  5  3 17 13 30.0000000  0  6  2 27  4  7 26  9                   0.000000000
   -160229.625 9   -116187.54548  21781137.660    21781136.9834   21781142.7024
        -0.000          -0.000
     83984.758 9     61213.34646  23135651.217    23135651.2524   23135658.5574
        -0.000          -0.000
   -524832.619 9   -382942.56347  22337361.890    22337361.7764   22337367.7284
        -0.000          -0.000
   -142091.296 9   -102144.19249  20705693.526    20705692.6074   20705697.7304
        -0.000          -0.000
    -86439.989 9    -63215.10146  23433899.479    23433900.3784   23433906.0884
        -0.000          -0.000
   -482699.020 9   -350066.68446  23175307.340    23175307.7284   23175313.3794
        -0.000          -0.000
 98  5  3 17 14  0.0000000  0  6  2 27  4  7 26  9                   0.000343128
   -216601.626 9   -160113.75748  21770410.841    21770409.7894   21770415.4114
        -0.000          -0.000
    106801.124 9     78992.25146  23139994.003    23139993.1564   23140000.4464
        -0.000          -0.000
   -699979.591 9   -519420.62747  22304032.695    22304032.4804   22304038.3614
        -0.000          -0.000
   -189450.899 9   -139047.73149  20696681.689    20696680.3864   20696685.5684
        -0.000          -0.000
   -118882.879 9    -88495.27546  23427727.343    23427726.8524   23427732.2654
        -0.000          -0.000
   -654735.199 9   -484120.76446  23142570.707    23142570.1224   23142576.1624
        -0.000          -0.000
 98  5  3 17 14 30.0000000  0  7 24  2 27  4  7 26  9                0.000287752
    -59730.74419    -11717.59252         0.000           0.0005          0.0005
        -0.000          -0.000
   -275279.770 9   -205836.96248  21759244.636    21759243.7794   21759249.4014
        -0.000          -0.000
    127322.429 9     94982.79646  23143898.844    23143898.4134   23143905.6094
        -0.000          -0.000
   -877329.743 9   -657615.45147  22270283.851    22270283.8034   22270289.7234
        -0.000          -0.000
   -239011.475 9   -177666.32649  20687250.312    20687249.3254   20687254.5024
        -0.000          -0.000
   -153469.106 9   -115445.59146  23421145.829    23421145.3884   23421150.8554
        -0.000          -0.000
   -829041.802 9   -619944.01046  23109401.030    23109400.6654   23109406.6704
        -0.000          -0.000
 98  5  3 17 15  0.0000000  0  7 24  2 27  4  7 26  9                0.000230796
   -257864.339 9   -166107.87542         0.000           0.0004          0.0004
        -0.000          -0.000
   -336188.059 9   -253297.94048  21747654.096    21747653.3334   21747658.9794
        -0.000          -0.000
    145623.975 9    109243.64146  23147381.583    23147381.1014   23147388.5494
        -0.000          -0.000
  -1056799.027 9   -797461.53947  22236132.004    22236131.9864   22236137.8834
        -0.000          -0.000
   -290695.894 9   -217939.86049  20677414.959    20677414.0944   20677419.2854
        -0.000          -0.000
   -190150.536 9   -144028.53046  23414165.587    23414165.1914   23414170.6694
        -0.000          -0.000
  -1005539.705 9   -757474.77746  23075814.517    23075814.1964   23075820.1294
        -0.000          -0.000
 98  5  3 17 15 30.0000000  0  7 24  2 27  4  7 26  9                0.000172351
   -458307.633 9   -322299.25752         0.000           0.0004          0.0005
        -0.000          -0.000
   -399182.598 9   -302384.58448  21735666.711    21735665.9224   21735671.5514
        -0.000          -0.000
    161858.326 9    121893.67346  23150470.835    23150470.3334   23150478.0564
        -0.000          -0.000
  -1238219.194 9   -938827.80847  22201608.899    22201608.8764   22201614.7514
        -0.000          -0.000
   -344343.904 9   -259743.47349  20667206.129    20667205.3014   20667210.4274
        -0.000          -0.000
   -228800.045 9   -174145.03646  23406810.682    23406810.5024   23406816.0224
        -0.000          -0.000
  -1184070.268 9   -896589.43246  23041841.118    23041840.8364   23041846.7244
        -0.000          -0.000
 98  5  3 17 16  0.0000000  0  7 24  2 27  4  7 26  9                0.000112503
   -660863.51018     -1517.18752         0.000           0.0005          0.0005
        -0.000          -0.000
   -464068.275 9   -352944.83448  21723319.430    21723318.6494   21723324.2354
        -0.000          -0.000
    176238.266 9    133098.71346  23153207.270    23153206.8384   23153214.6734
        -0.000          -0.000
  -1421398.454 9  -1081564.79847  22166751.140    22166751.0974   22166756.8294
        -0.000          -0.000
   -399779.953 9   -302940.36249  20656657.092    20656656.2744   20656661.3484
        -0.000          -0.000
   -269231.143 9   -205649.81846  23399116.815    23399116.7284   23399122.3164
        -0.000          -0.000
  -1364444.415 9  -1037140.66746  23007517.071    23007516.8074   23007522.5644
        -0.000          -0.000
 98  5  3 17 16 30.0000000  0  7 24  2 27  4  7 26  9                0.000051538
   -865338.751 9   -160847.94542         0.000           0.0004          0.0004
        -0.000          -0.000
   -530653.223 9   -404829.19748  21710648.882    21710648.0414   21710653.5934
        -0.000          -0.000
    188968.789 9    143018.50646  23155629.835    23155629.5114   23155637.2794
        -0.000          -0.000
  -1606179.317 9  -1225549.78647  22131588.364    22131588.3614   22131594.1304
        -0.000          -0.000
   -456848.257 9   -347409.13949  20645797.302    20645796.5324   20645801.5954
        -0.000          -0.000
   -311276.992 9   -238412.81047  23391115.859    23391115.7674   23391121.4984
        -0.000          -0.000
  -1546473.381 9  -1178981.35247  22972878.100    22972877.8684   22972883.6304
        -0.000          -0.000
 98  5  3 17 17  0.0000000  0  7 24  2 27  4  7 26  9               -0.000010514
  -1071569.413 9   -321546.80853         0.000           0.0004   24221769.5555
        -0.000          -0.000
   -598803.886 9   -457933.58648  21697680.169    21697679.3794   21697684.9994
        -0.000          -0.000
    200200.922 9    151770.70946  23157767.445    23157767.0014   23157774.8264
        -0.000          -0.000
  -1792408.870 9  -1370663.62847  22096149.932    22096149.9944   22096155.8994
        -0.000          -0.000
   -515397.087 9   -393031.57049  20634655.785    20634655.0564   20634660.1394
        -0.000          -0.000
   -354797.898 9   -272325.21646  23382834.163    23382834.0414   23382839.9464
        -0.000          -0.000
  -1729996.295 9  -1321986.14647  22937954.964    22937954.6944   22937960.3914
        -0.000          -0.000
 98  5  3 17 17 30.0000000  0  7 24  2 27  4  7 26  9                0.000926439
  -1279414.252 9   -483503.67645  24482001.376    24481998.6254   24482009.8434
        -0.000          -0.000
   -668355.258 9   -512129.44848  21984237.355    21984236.6504   21984242.3534
        -0.000          -0.000
    210077.212 9    159466.41846  23459439.443    23459439.0184   23459446.6854
        -0.000          -0.000
  -1979944.796 9  -1516795.44147  22360255.481    22360255.5574   22360261.5084
        -0.000          -0.000
   -575275.368 9   -439689.94949  20923053.769    20923053.0724   20923058.2134
        -0.000          -0.000
   -399619.142 9   -307250.88046  23674097.372    23674097.3934   23674103.3224
        -0.000          -0.000
  -1914857.427 9  -1466033.70847  23202569.456    23202569.1464   23202575.0304
        -0.000          -0.000
 98  5  3 17 18  0.0000000  0  7 24  2 27  4  7 26  9                0.000862502
  -1488727.914 9   -646605.05645  24442169.960    24442168.2894   24442178.5374
        -0.000          -0.000
   -739119.343 9   -567270.27448  21970771.523    21970770.7924   21970776.4654
        -0.000          -0.000
    218748.343 9    166223.03346  23461089.461    23461089.1764   23461096.9704
        -0.000          -0.000
  -2168653.443 9  -1663841.05047  22324345.497    22324345.4874   22324351.4504
        -0.000          -0.000
   -636333.450 9   -487267.65149  20911434.821    20911434.1354   20911439.2924
        -0.000          -0.000
   -445571.365 9   -343057.82546  23665353.139    23665353.0774   23665358.9274
        -0.000          -0.000
  -2100910.864 9  -1611010.36647  23167164.530    23167164.2464   23167170.2334
        -0.000          -0.000
 98  5  3 17 18 30.0000000  0  7 24  2 27  4  7 26  9                0.000797710
  -1699438.837 9   -810795.19145  24402072.671    24402070.7374   24402081.6204
        -0.000          -0.000
   -811018.958 9   -623295.91848  21957089.466    21957088.7544   21957094.4674
        -0.000          -0.000
    226271.006 9    172084.74546  23462520.939    23462520.7554   23462528.5974
        -0.000          -0.000
  -2358447.226 9  -1811732.22047  22288228.924    22288228.9504   22288234.8674
        -0.000          -0.000
   -698480.177 9   -535693.64749  20899608.734    20899608.0624   20899613.2624
        -0.000          -0.000
   -492582.289 9   -379689.74246  23656407.301    23656407.2604   23656413.0354
        -0.000          -0.000
  -2288071.717 9  -1756849.92747  23131548.927    23131548.7424   23131554.7064
        -0.000          -0.000
 98  5  3 17 19  0.0000000  0  7 24  2 27  4  7 26  9                0.000732123
  -1911410.616 8   -975967.83845  24361735.433    24361734.3524   24361745.0844
        -0.000          -0.000
   -883927.150 9   -680107.48048  21943215.464    21943214.8284   21943220.5154
        -0.000          -0.000
    232759.646 9    177140.71046  23463755.823    23463755.5704   23463763.5524
        -0.000          -0.000
  -2549165.383 9  -1960343.69047  22251936.394    22251936.4354   22251942.3624
        -0.000          -0.000
   -761575.157 9   -584858.55149  20887602.164    20887601.5144   20887606.7334
        -0.000          -0.000
   -540513.181 9   -417038.50346  23647286.242    23647286.3344   23647292.1644
        -0.000          -0.000
  -2476204.500 9  -1903446.86447  23095748.473    23095748.3064   23095754.2304
        -0.000          -0.000
 98  5  3 17 19 30.0000000  0  7 24  2 27  4  7 26  9                0.000665790
  -2124565.468 8  -1142062.32645  24321173.494    24321172.4934   24321183.3334
        -0.000          -0.000
   -957770.340 9   -737647.60848  21929163.636    21929163.0064   21929168.6274
        -0.000          -0.000
    238265.206 9    181430.64746  23464803.747    23464803.3854   23464811.2854
        -0.000          -0.000
  -2740733.344 9  -2109617.34247  22215482.168    22215482.2224   22215488.2174
        -0.000          -0.000
   -825568.681 9   -634723.61449  20875424.642    20875423.9854   20875429.1864
        -0.000          -0.000
   -589299.556 9   -455053.88546  23638002.545    23638002.6214   23638008.5694
        -0.000          -0.000
  -2665235.638 9  -2050743.80847  23059776.998    23059776.9094   23059782.7644
        -0.000          -0.000
 98  5  3 17 20  0.0000000  0  7 24  2 27  4  7 26  9                0.000598753
  -2338814.860 8  -1309009.69045  24280402.965    24280402.1094   24280413.0274
        -0.000          -0.000
  -1032503.311 9   -795881.07148  21914942.465    21914941.8014   21914947.4404
        -0.000          -0.000
    242853.777 9    185006.03846  23465677.126    23465676.7604   23465684.6454
        -0.000          -0.000
  -2933063.786 9  -2259485.12647  22178882.859    22178882.8594   22178888.9364
        -0.000          -0.000
   -890403.956 9   -685244.59249  20863086.906    20863086.2364   20863091.4944
        -0.000          -0.000
   -638896.134 9   -493700.60646  23628564.680    23628564.7654   23628570.6704
        -0.000          -0.000
  -2855093.447 9  -2198684.90547  23023648.309    23023648.2704   23023654.0864
        -0.000          -0.000
 98  5  3 17 20 30.0000000  0  7 24  2 27  4  7 26  9                0.000531040
  -2554108.845 8  -1476771.03945  24239433.476    24239432.8014   24239443.8784
        -0.000          -0.000
  -1108102.975 9   -854789.88448  21900556.356    21900555.7314   21900561.3184
        -0.000          -0.000
    246569.411 9    187901.20746  23466384.482    23466383.9904   23466391.8714
        -0.000          -0.000
  -3126098.245 9  -2409901.51747  22142149.445    22142149.5594   22142155.5684
        -0.000          -0.000
   -956036.784 9   -736387.04449  20850597.384    20850596.7124   20850602.0354
        -0.000          -0.000
   -689272.855 9   -532955.20646  23618978.366    23618978.4614   23618984.3554
        -0.000          -0.000
  -3045716.984 9  -2347222.67747  22987373.966    22987373.9124   22987379.7104
        -0.000          -0.000
 98  5  3 17 21  0.0000000  0  7 24  2 27  4  7 26  9                0.000462686
  -2770403.909 8  -1645312.41545  24198273.665    24198273.0744   24198284.0574
        -0.000          -0.000
  -1184537.939 9   -914349.57648  21886011.257    21886010.6604   21886016.2424
        -0.000          -0.000
    249440.777 9    190138.51746  23466931.061    23466930.4714   23466938.3544
        -0.000          -0.000
  -3319807.971 9  -2560844.08047  22105287.551    22105287.7284   22105293.7774
        -0.000          -0.000
  -1022451.654 9   -788138.87249  20837959.021    20837958.3724   20837963.7434
        -0.000          -0.000
   -740413.819 9   -572805.33646  23609246.436    23609246.6184   23609252.7004
        -0.000          -0.000
  -3237067.701 9  -2496327.07247  22950961.341    22950961.1714   22950966.7994
        -0.000          -0.000
 98  5  3 17 21 30.0000000  0  7 24  2 27  4  7 26  9                0.000393715
  -2987672.206 8  -1814612.20545  24156928.957    24156928.3664   24156939.1744
        -0.000          -0.000
  -1261771.543 9   -974531.59648  21871314.204    21871313.5854   21871319.2424
        -0.000          -0.000
    251518.144 9    191757.13446  23467326.398    23467325.8484   23467333.7814
        -0.000          -0.000
  -3514169.013 9  -2712294.17347  22068301.748    22068302.0034   22068308.0294
        -0.000          -0.000
  -1089605.698 9   -840466.69449  20825180.045    20825179.3984   20825184.7684
        -0.000          -0.000
   -792279.304 9   -613220.04446  23599376.919    23599377.0714   23599383.0004
        -0.000          -0.000
  -3429108.370 9  -2645969.11047  22914417.246    22914417.1094   22914422.5904
        -0.000          -0.000
 98  5  3 17 22  0.0000000  0  7 24  2 27  4  7 26  9                0.000324123
  -3205918.021 8  -1984673.65345  24115398.144    24115397.6574   24115408.3414
        -0.000          -0.000
  -1339794.563 9  -1035328.73548  21856466.907    21856466.2834   21856471.9894
        -0.000          -0.000
    252818.284 9    192770.10946  23467573.816    23467573.4964   23467581.3764
        -0.000          -0.000
  -3709173.755 9  -2864245.83747  22031193.461    22031193.7924   22031199.7874
        -0.000          -0.000
  -1157484.972 9   -893359.62049  20812263.057    20812262.4304   20812267.7984
        -0.000          -0.000
   -844871.819 9   -654201.26446  23589368.768    23589368.9504   23589374.8414
        -0.000          -0.000
  -3621848.513 9  -2796156.17547  22877739.993    22877739.8304   22877745.1964
        -0.000          -0.000
 98  5  3 17 22 30.0000000  0  7 24  2 27  4  7 26  9                0.000253918
  -3425127.120 9  -2155485.71746  24073684.030    24073683.5764   24073694.1784
        -0.000          -0.000
  -1418577.609 9  -1096718.11548  21841474.913    21841474.3724   21841480.1184
        -0.000          -0.000
    253362.500 9    193194.04646  23467677.655    23467677.2054   23467685.1594
        -0.000          -0.000
  -3904802.050 9  -3016683.40048  21993966.737    21993966.9844   21993972.9434
        -0.000          -0.000
  -1226063.454 9   -946797.39149  20799213.056    20799212.4154   20799217.7914
        -0.000          -0.000
   -898155.073 9   -695720.69946  23579229.466    23579229.6094   23579235.4764
        -0.000          -0.000
  -3815262.447 9  -2946868.27047  22840934.588    22840934.3704   22840939.7274
        -0.000          -0.000
 98  5  3 17 23  0.0000000  0  7 24  2 27  4  7 26  9                0.000183125
  -3645264.211 9  -2327020.95346  24031793.257    24031792.8464   24031803.3024
        -0.000          -0.000
  -1498079.707 9  -1158667.79848  21826346.244    21826345.6764   21826351.4444
        -0.000          -0.000
    253198.617 9    193066.22546  23467646.655    23467646.1474   23467654.0234
        -0.000          -0.000
  -4101015.917 9  -3169577.24548  21956628.435    21956628.6824   21956634.6784
        -0.000          -0.000
  -1295307.430 9  -1000753.72849  20786036.356    20786035.7374   20786041.1094
        -0.000          -0.000
   -952074.996 9   -737736.25746  23568969.008    23568969.1224   23568974.9854
        -0.000          -0.000
  -4009318.976 9  -3098081.08947  22804006.783    22804006.6154   22804012.0444
        -0.000          -0.000
 98  5  3 17 23 30.0000000  0  7 24  2 27  4  7 26  9                0.000111743
  -3866302.917 9  -2499258.69846  23989730.666    23989730.4164   23989740.8504
        -0.000          -0.000
  -1578278.240 9  -1221160.15648  21811084.951    21811084.4014   21811090.2244
        -0.000          -0.000
    252338.824 9    192396.13146  23467483.133    23467482.5704   23467490.4924
        -0.000          -0.000
  -4297796.304 9  -3322912.54448  21919182.364    21919182.6154   21919188.6424
        -0.000          -0.000
  -1365195.800 9  -1055212.18749  20772737.109    20772736.4544   20772741.8404
        -0.000          -0.000
  -1006602.679 9   -780225.40046  23558592.683    23558592.7964   23558598.8644
        -0.000          -0.000
  -4204013.383 9  -3249790.98147  22766957.592    22766957.4334   22766962.9784
        -0.000          -0.000
 98  5  3 17 24  0.0000000  0  7 24  2 27  4  7 26  9                0.000039797
  -4088199.529 9  -2672164.94446  23947504.960    23947504.7684   23947515.1504
        -0.000          -0.000
  -1659122.554 9  -1284155.72548  21795700.816    21795700.2604   21795706.0784
        -0.000          -0.000
    250807.680 9    191202.89946  23467191.644    23467191.3414   23467199.2544
        -0.000          -0.000
  -4495099.546 9  -3476655.25848  21881636.854    21881637.1084   21881643.1224
        -0.000          -0.000
  -1435685.032 9  -1110138.85649  20759323.433    20759322.8104   20759328.2154
        -0.000          -0.000
  -1061702.378 9   -823160.26946  23548107.609    23548107.7444   23548113.7434
        -0.000          -0.000
  -4399301.393 9  -3401963.41247  22729795.542    22729795.4704   22729801.0214
        -0.000          -0.000
 98  5  3 17 24 30.0000000  0  7 24  2 27  4  7 26  9               -0.000032706
  -4310942.593 9  -2845730.79146  23905118.125    23905118.0324   23905128.2954
        -0.000          -0.000
  -1740599.070 9  -1347643.92048  21780196.508    21780195.8744   21780201.5974
        -0.000          -0.000
    248608.992 9    189489.47946  23466773.228    23466773.0714   23466781.1864
        -0.000          -0.000
  -4692912.706 9  -3630795.31448  21843994.310    21843994.4774   21844000.5034
        -0.000          -0.000
  -1506759.072 9  -1165521.22249  20745798.541    20745797.9334   20745803.2864
        -0.000          -0.000
  -1117348.783 9   -866521.14846  23537518.671    23537518.6654   23537524.6594
        -0.000          -0.000
  -4595157.331 9  -3554578.39947  22692525.605    22692525.4614   22692530.9364
        -0.000          -0.000
 98  5  3 17 24 59.9990000  0  7 24  2 27  4  7 26  9               -0.000105743
  -4534493.678 9  -3019926.23146  23862577.573    23862577.6314   23862587.7834
        -0.000          -0.000
  -1822668.688 9  -1411594.27648  21764579.201    21764578.6064   21764584.2894
        -0.000          -0.000
    245763.392 9    187271.98046  23466231.698    23466231.6754   23466239.8584
        -0.000          -0.000
  -4891207.051 9  -3785310.32048  21806260.165    21806260.3004   21806266.2944
        -0.000          -0.000
  -1578390.086 9  -1221337.59349  20732167.659    20732167.0094   20732172.3874
        -0.000          -0.000
  -1173537.947 9   -910304.96346  23526826.298    23526826.3074   23526832.3974
        -0.000          -0.000
  -4791556.328 9  -3707616.55247  22655152.092    22655151.9654   22655157.4054
        -0.000          -0.000
 98  5  3 17 25 29.9990000  0  7 24  2 27  4  7 26  9               -0.000179307
  -4758829.100 9  -3194732.90145  23819888.045    23819888.0754   23819897.7004
        -0.000          -0.000
  -1905301.293 9  -1475983.32348  21748854.812    21748854.1814   21748859.8874
        -0.000          -0.000
    242281.280 9    184558.50846  23465569.357    23465569.3044   23465577.5224
        -0.000          -0.000
  -5089955.895 9  -3940179.47048  21768439.392    21768439.5934   21768445.6804
        -0.000          -0.000
  -1650540.961 9  -1277559.04849  20718437.781    20718437.1544   20718442.5774
        -0.000          -0.000
  -1230252.293 9   -954497.98546  23516034.001    23516034.0094   23516040.1034
        -0.000          -0.000
  -4988476.179 9  -3861060.55047  22617679.490    22617679.3174   22617684.7594
        -0.000          -0.000
 98  5  3 17 25 59.9990000  0  7 24  2 27  4  7 26  9               -0.000253379
  -4983917.818 9  -3370126.53045  23777055.031    23777054.9874   23777064.6304
        -0.000          -0.000
  -1988460.225 9  -1540782.49548  21733030.168    21733029.5774   21733035.3014
        -0.000          -0.000
    238197.500 9    181376.19946  23464792.548    23464792.4714   23464800.6184
        -0.000          -0.000
  -5289105.810 9  -4095361.15848  21730542.294    21730542.5794   21730548.6704
        -0.000          -0.000
  -1723172.147 9  -1334154.76649  20704616.552    20704615.9434   20704621.3914
        -0.000          -0.000
  -1287466.016 9   -999080.15046  23505146.678    23505146.7354   23505152.8264
        -0.000          -0.000
  -5185861.611 9  -4014867.33247  22580118.251    22580118.0304   22580123.6144
        -0.000          -0.000
 98  5  3 17 26 29.9990000  0  7 24  2 27  4  7 26  9               -0.000327939
  -5209712.223 9  -3546069.97745  23734087.679    23734087.6134   23734097.3434
        -0.000          -0.000
  -2072128.812 9  -1605978.80848  21717108.496    21717107.9194   21717113.6644
        -0.000          -0.000
    233534.609 9    177742.63346  23463905.221    23463905.2464   23463913.4924
        -0.000          -0.000
  -5488626.243 9  -4250831.55348  21692574.821    21692575.0734   21692581.1604
        -0.000          -0.000
  -1796277.298 9  -1391119.81449  20690705.142    20690704.5234   20690710.0124
        -0.000          -0.000
  -1345171.031 9  -1044045.14646  23494165.816    23494165.8884   23494172.0204
        -0.000          -0.000
  -5383691.709 9  -4169020.62347  22542472.246    22542472.1614   22542477.7554
        -0.000          -0.000
 98  5  3 17 26 59.9990000  0  7 24  2 27  4  7 26  9               -0.000402954
  -5436166.433 8  -3722527.59645  23690994.705    23690994.4874   23691004.2764
        -0.000          -0.000
  -2156281.161 9  -1671552.06748  21701094.756    21701094.2454   21701100.0654
        -0.000          -0.000
    228318.427 9    173677.91146  23462912.934    23462912.8134   23462921.0824
        -0.000          -0.000
  -5688493.328 9  -4406572.07448  21654541.398    21654541.6334   21654547.6754
        -0.000          -0.000
  -1869834.788 9  -1448437.33249  20676707.666    20676707.0534   20676712.5154
        -0.000          -0.000
  -1403356.551 9  -1089384.55946  23483093.487    23483093.6324   23483099.6854
        -0.000          -0.000
  -5581934.291 9  -4323495.31747  22504747.998    22504747.8874   22504753.4344
        -0.000          -0.000
 98  5  3 17 27 29.9990000  0  7 24  2 27  4  7 26  9               -0.000478415
  -5663265.550 8  -3899487.76545  23647778.859    23647778.5354   23647788.5954
        -0.000          -0.000
  -2240915.404 9  -1737500.84548  21684989.588    21684988.9444   21684994.7614
        -0.000          -0.000
    222569.114 9    169197.77746  23461818.980    23461818.8414   23461827.1344
        -0.000          -0.000
  -5888685.175 9  -4562565.66448  21616446.182    21616446.3664   21616452.3464
        -0.000          -0.000
  -1943838.439 9  -1506102.51249  20662625.237    20662624.6034   20662630.0874
        -0.000          -0.000
  -1461994.205 9  -1135076.28746  23471935.244    23471935.3274   23471941.4534
        -0.000          -0.000
  -5780562.032 9  -4478270.15147  22466950.428    22466950.2854   22466955.7944
        -0.000          -0.000
 98  5  3 17 27 59.9990000  0  7 24  2 27  4  7 26  9               -0.000554290
  -5890981.900 9  -4076928.88545  23604445.416    23604445.3224   23604455.5604
        -0.000          -0.000
  -2326000.030 9  -1803800.55848  21668798.606    21668797.9234   21668803.6724
        -0.000          -0.000
    216320.720 9    164328.71746  23460630.030    23460629.9844   23460638.1724
        -0.000          -0.000
  -6089175.325 9  -4718791.68348  21578294.236    21578294.3584   21578300.2624
        -0.000          -0.000
  -2018267.768 9  -1564099.38349  20648461.782    20648461.1984   20648466.6744
        -0.000          -0.000
  -1521065.195 9  -1181105.66846  23460694.590    23460694.6394   23460700.7334
        -0.000          -0.000
  -5979539.093 9  -4633317.17747  22429086.300    22429086.2174   22429091.6874
        -0.000          -0.000
 98  5  3 17 28 29.9990000  0  7 24  2 27  4  7 26  9               -0.000630548
  -6119271.728 9  -4254816.82145  23561003.387    23561003.0684   23561013.3554
        -0.000          -0.000
  -2411517.078 9  -1870437.22648  21652525.260    21652524.6094   21652530.3744
        -0.000          -0.000
    209609.636 9    159099.11746  23459352.934    23459352.8784   23459361.2524
        -0.000          -0.000
  -6289935.547 9  -4875228.15148  21540090.876    21540090.9554   21540096.7634
        -0.000          -0.000
  -2093099.383 9  -1622409.72549  20634221.838    20634221.2364   20634226.7774
        -0.000          -0.000
  -1580532.979 9  -1227444.24946  23449378.086    23449378.2034   23449384.5104
        -0.000          -0.000
  -6178821.047 9  -4788601.77047  22391164.183    22391164.1004   22391169.5174
        -0.000          -0.000
 98  5  3 17 28 59.9990000  0  7 24  2 27  4  7 26  9               -0.000707188
  -6348153.196 9  -4433165.77645  23517448.584    23517448.1804   23517458.5704
        -0.000          -0.000
  -2497460.306 9  -1937405.98248  21636170.889    21636170.2314   21636176.0314
        -0.000          -0.000
    202443.582 9    153515.01446  23457989.378    23457989.2924   23457997.7614
        -0.000          -0.000
  -6490956.958 9  -5031868.14348  21501837.694    21501837.8074   21501843.6444
        -0.000          -0.000
  -2168329.853 9  -1681030.86749  20619905.956    20619905.3274   20619910.9124
        -0.000          -0.000
  -1640389.928 9  -1274086.06646  23437987.608    23437987.8094   23437994.0874
        -0.000          -0.000
  -6378400.843 9  -4944118.45847  22353185.523    22353185.3524   22353190.6934
        -0.000          -0.000
 98  5  3 17 29 29.9990000  0  7 24  2 27  4  7 26  9               -0.000784221
  -6577628.858 9  -4611977.77546  23473780.795    23473780.3014   23473790.6044
        -0.000          -0.000
  -2583819.107 9  -2004698.56348  21619737.359    21619736.6784   21619742.4744
        -0.000          -0.000
    194829.470 9    147581.73946  23456540.777    23456540.5744   23456548.9974
        -0.000          -0.000
  -6692211.016 9  -5188689.43048  21463540.316    21463540.3904   21463546.2204
        -0.000          -0.000
  -2243951.910 9  -1739957.13749  20605515.522    20605514.9094   20605520.4584
        -0.000          -0.000
  -1700621.461 9  -1321019.77246  23426525.957    23426526.1544   23426532.4634
        -0.000          -0.000
  -6578269.427 9  -5099860.18447  22315151.823    22315151.6424   22315156.9644
        -0.000          -0.000
 98  5  3 17 29 59.9990000  0  7 24  2 27  4  7 26  9               -0.000861632
  -6807651.689 9  -4791216.10346  23430008.634    23430008.1534   23430018.5764
        -0.000          -0.000
  -2670549.962 9  -2072281.05648  21603233.008    21603232.3734   21603238.1534
        -0.000          -0.000
    186792.897 9    141319.32745  23455011.773    23455011.4744   23455019.6584
        -0.000          -0.000
  -6893662.578 9  -5345664.60648  21425205.252    21425205.3994   21425211.2404
        -0.000          -0.000
  -2319926.893 9  -1799158.42449  20591057.960    20591057.3474   20591062.8954
        -0.000          -0.000
  -1761191.786 9  -1368217.49846  23414999.852    23415000.0334   23415006.3584
        -0.000          -0.000
  -6778402.035 9  -5255807.62847  22277067.819    22277067.6284   22277072.9724
        -0.000          -0.000
 98  5  3 17 30 29.9990000  0  7 24  2 27  4  7 26  9               -0.000939418
  -7038213.966 9  -4970874.79446  23386133.700    23386133.3874   23386143.8914
        -0.000          -0.000
  -2757657.050 9  -2140156.72848  21586657.107    21586656.4294   21586662.2854
        -0.000          -0.000
    178338.565 8    134731.33045  23453403.120    23453402.7774   23453410.8384
        -0.000          -0.000
  -7095311.947 9  -5502793.92448  21386832.618    21386832.7744   21386838.5874
        -0.000          -0.000
  -2396260.891 9  -1858639.46249  20576532.183    20576531.5444   20576537.0674
        -0.000          -0.000
  -1822099.553 9  -1415678.13046  23403409.372    23403409.6364   23403416.0094
        -0.000          -0.000
  -6978804.077 9  -5411965.03147  22238932.445    22238932.2884   22238937.6454
        -0.000          -0.000
 98  5  3 17 30 59.9990000  0  7 24  2 27  4  7 26  9               -0.001017576
  -7269300.760 9  -5150942.21246  23342159.312    23342159.1294   23342169.1734
        -0.000          -0.000
  -2845104.632 9  -2208297.71248  21570016.363    21570015.7194   21570021.5754
        -0.000          -0.000
    169468.557 8    127819.48445  23451715.298    23451715.1054   23451722.9924
        -0.000          -0.000
  -7297145.296 9  -5660066.59948  21348424.981    21348425.1634   21348430.9014
        -0.000          -0.000
  -2472938.777 9  -1918388.46149  20561940.921    20561940.2554   20561945.7684
        -0.000          -0.000
  -1883332.318 9  -1463392.03946  23391757.239    23391757.5234   23391763.9674
        -0.000          -0.000
  -7179477.910 9  -5568334.22647  22200745.475    22200745.2844   22200750.5964
        -0.000          -0.000
 98  5  3 17 31 29.9980000  0  7 24  2 27  4  7 26  9               -0.001096112
  -7500892.843 9  -5331403.37246  23298088.403    23298088.4304   23298098.2594
        -0.000          -0.000
  -2932899.959 9  -2276709.65748  21553309.447    21553308.7654   21553314.6704
        -0.000          -0.000
    160167.220 9    120571.45545  23449945.200    23449945.2604   23449953.4874
        -0.000          -0.000
  -7499162.277 9  -5817482.36148  21309982.441    21309982.6164   21309988.3474
        -0.000          -0.000
  -2549945.016 9  -1978393.31549  20547287.073    20547286.4404   20547291.9324
        -0.000          -0.000
  -1944888.599 9  -1511358.03246  23380043.617    23380043.9024   23380050.2664
        -0.000          -0.000
  -7380413.065 9  -5724907.04447  22162508.692    22162508.4854   22162513.8764
        -0.000          -0.000
 98  5  3 17 31 59.9980000  0  7 24  2 27  4  7 26  9               -0.001174995
  -7732983.253 9  -5512252.81846  23253922.852    23253922.9554   23253932.7904
        -0.000          -0.000
  -3021028.928 9  -2345381.60348  21536539.073    21536538.4054   21536544.2664
        -0.000          -0.000
    150452.318 9    113001.24545  23448096.852    23448096.7804   23448104.8974
        -0.000          -0.000
  -7701372.532 9  -5975048.73648  21271503.068    21271503.2454   21271508.9604
        -0.000          -0.000
  -2627274.152 9  -2038649.79249  20532571.814    20532571.2074   20532576.7194
        -0.000          -0.000
  -2006769.367 9  -1559576.86346  23368268.253    23368268.4444   23368274.8424
        -0.000          -0.000
  -7581595.323 9  -5881672.41747  22124224.832    22124224.6684   22124230.2084
        -0.000          -0.000
 98  5  3 17 32 29.9980000  0  7 24  2 27  4  7 26  9               -0.001254207
  -7965564.885 9  -5693485.05346  23209664.087    23209663.9544   23209673.7834
        -0.000          -0.000
  -3109470.317 9  -2414296.98548  21519709.281    21519708.5864   21519714.4414
        -0.000          -0.000
    140333.055 9    105115.89445  23446171.357    23446171.2234   23446179.6944
        -0.000          -0.000
  -7903755.704 9  -6132749.84048  21232990.757    21232990.9074   21232996.6464
        -0.000          -0.000
  -2704920.231 9  -2099153.22749  20517796.353    20517795.7354   20517801.2244
        -0.000          -0.000
  -2068975.969 9  -1608049.57046  23356430.838    23356430.9894   23356437.2714
        -0.000          -0.000
  -7782988.839 9  -6038602.38647  22085900.918    22085900.7104   22085906.2514
        -0.000          -0.000
 98  5  3 17 32 59.9980000  0  7 24  2 27  4  7 26  9               -0.001333747
  -8198620.763 9  -5875086.86146  23165315.217    23165314.9464   23165324.6054
        -0.000          -0.000
  -3198210.967 9  -2483445.55948  21502822.406    21502821.8064   21502827.6954
        -0.000          -0.000
    129807.588 9     96914.04845  23444168.979    23444168.5104   23444176.9084
        -0.000          -0.000
  -8106289.055 9  -6290567.98448  21194449.813    21194450.0774   21194455.7794
        -0.000          -0.000
  -2782872.723 9  -2159895.43349  20502962.558    20502961.8854   20502967.3944
        -0.000          -0.000
  -2131494.656 9  -1656765.50046  23344534.059    23344534.1354   23344540.4664
        -0.000          -0.000
  -7984567.901 9  -6195676.95247  22047541.568    22047541.4544   22047546.9874
        -0.000          -0.000
 98  5  3 17 33 29.9980000  0  7 24  2 27  4  7 26  9               -0.001413618
  -8432145.692 9  -6057054.13946  23120876.751    23120876.4714   23120886.0564
        -0.000          -0.000
  -3287255.660 9  -2552831.05048  21485877.702    21485877.1764   21485883.0224
        -0.000          -0.000
    118887.571 9     88404.73846  23442091.136    23442090.6684   23442099.2084
        -0.000          -0.000
  -8308947.321 9  -6448483.45748  21155885.205    21155885.4064   21155891.0904
        -0.000          -0.000
  -2861130.821 9  -2220875.76248  20488070.473    20488069.8544   20488075.3464
        -0.000          -0.000
  -2194330.143 9  -1705728.28346  23332576.905    23332577.0434   23332583.3424
        -0.000          -0.000
  -8186309.953 9  -6352878.51547  22009151.473    22009151.2614   22009156.6934
        -0.000          -0.000
 98  5  3 17 33 59.9980000  0  7 24  2 27  4  7 26  9               -0.001493805
  -8666120.023 9  -6239371.60746  23076352.870    23076352.5344   23076361.9794
        -0.000          -0.000
  -3376571.746 9  -2622428.02448  21468881.540    21468880.9334   21468886.7384
        -0.000          -0.000
    107593.955 9     79604.31146  23439942.332    23439941.8354   23439950.4194
        -0.000          -0.000
  -8511698.337 9  -6606471.20848  21117302.903    21117303.1754   21117308.7774
        -0.000          -0.000
  -2939698.474 9  -2282097.31148  20473119.604    20473118.9744   20473124.3994
        -0.000          -0.000
  -2257472.366 9  -1754930.08146  23320561.270    23320561.4314   23320567.6934
        -0.000          -0.000
  -8388197.662 9  -6510193.59347  21970733.672    21970733.4274   21970738.6554
        -0.000          -0.000
 98  5  3 17 34 29.9980000  0  7 24  2 27  4  7 26  9               -0.001574328
  -8900516.404 9  -6422017.96246  23031748.720    23031748.2534   23031757.7084
        -0.000          -0.000
  -3466152.514 9  -2692231.23748  21451834.862    21451834.2344   21451840.0464
        -0.000          -0.000
     95934.606 9     70518.90446  23437724.039    23437723.4014   23437731.9734
        -0.000          -0.000
  -8714512.000 9  -6764507.77748  21078708.808    21078709.0034   21078714.5854
        -0.000          -0.000
  -3018548.821 9  -2343539.14248  20458114.984    20458114.3024   20458119.6974
        -0.000          -0.000
  -2320901.850 9  -1804355.70446  23308491.102    23308491.3774   23308497.4984
        -0.000          -0.000
  -8590231.746 9  -6667622.71447  21932287.849    21932287.5944   21932292.8204
        -0.000          -0.000
 98  5  3 17 34 59.9980000  0  7 24  2 27  4  7 26  9               -0.001655187
  -9135310.372 9  -6604974.12246  22987068.881    22987068.3644   22987077.7124
        -0.000          -0.000
  -3555993.561 9  -2762237.26048  21434738.683    21434738.0594   21434743.8654
        -0.000          -0.000
     83930.962 9     61165.19146  23435439.662    23435439.2934   23435448.0904
        -0.000          -0.000
  -8917360.621 9  -6922571.56948  21040108.043    21040108.1764   21040113.7694
        -0.000          -0.000
  -3097654.262 9  -2405179.74048  20443061.614    20443060.9744   20443066.3934
        -0.000          -0.000
  -2384608.430 9  -1853997.24446  23296368.192    23296368.3194   23296374.5694
        -0.000          -0.000
  -8792400.034 9  -6825156.40947  21893816.212    21893816.0874   21893821.4224
        -0.000          -0.000
 98  5  3 17 35 29.9980000  0  7 24  2 27  4  7 26  9               -0.001736366
  -9370491.520 9  -6788232.02046  22942315.094    22942314.8374   22942324.0114
        -0.000          -0.000
  -3646075.629 9  -2832431.10448  21417596.683    21417596.0874   21417601.8794
        -0.000          -0.000
     71608.439 9     51562.98646  23433094.747    23433094.5364   23433103.3324
        -0.000          -0.000
  -9120230.662 9  -7080652.06048  21001503.118    21001503.2724   21001508.8524
        -0.000          -0.000
  -3176999.115 9  -2467006.89748  20427962.793    20427962.1664   20427967.5954
        -0.000          -0.000
  -2448588.222 9  -1903851.70846  23284193.160    23284193.4084   23284199.6404
        -0.000          -0.000
  -8994707.432 9  -6982798.50547  21855318.304    21855318.1784   21855323.5504
        -0.000          -0.000
 98  5  3 17 35 59.9980000  0  7 24  2 27  4  7 26  9               -0.001817846
  -9606042.375 9  -6971778.01045  22897490.746    22897490.5884   22897499.9174
        -0.000          -0.000
  -3736381.532 9  -2902799.36748  21400411.981    21400411.4444   21400417.2434
        -0.000          -0.000
     58976.700 8     41719.83046  23430691.072    23430690.8414   23430699.7894
        -0.000          -0.000
  -9323127.644 9  -7238753.54948  20962893.076    20962893.2114   20962898.7894
        -0.000          -0.000
  -3256576.543 9  -2529015.28648  20412819.650    20412819.0494   20412824.5404
        -0.000          -0.000
  -2512830.812 9  -1953910.92746  23271968.330    23271968.6114   23271974.8194
        -0.000          -0.000
  -9197152.680 9  -7140548.01247  21816794.263    21816794.1084   21816799.4874
        -0.000          -0.000
 98  5  3 17 36 29.9980000  0  7 24  2 27  4  7 26  9               -0.001899621
  -9841944.854 9  -7155597.96545  22852599.527    22852599.4364   22852609.0614
        -0.000          -0.000
  -3826916.928 9  -2973346.44548  21383183.590    21383183.1004   21383188.9074
        -0.000          -0.000
     46039.077 9     31638.31046  23428229.133    23428228.8744   23428238.0494
        -0.000          -0.000
  -9526052.468 9  -7396876.73948  20924277.711    20924277.8544   20924283.3694
        -0.000          -0.000
  -3336382.437 9  -2591201.69548  20397633.146    20397632.4934   20397637.9994
        -0.000          -0.000
  -2577332.201 9  -2004171.77646  23259694.151    23259694.4194   23259700.7824
        -0.000          -0.000
  -9399727.152 9  -7298398.21147  21778245.625    21778245.4144   21778250.8314
        -0.000          -0.000
 98  5  3 17 36 59.9980000  0  7 24  2 27  4  7 26  9               -0.001981671
 -10078190.022 9  -7339684.99845  22807643.119    22807643.0874   22807652.7424
        -0.000          -0.000
  -3917665.517 9  -3044059.65548  21365914.810    21365914.2654   21365920.0774
        -0.000          -0.000
     32795.187 8     21318.12145  23425709.125    23425708.7794   23425717.9464
        -0.000          -0.000
  -9729000.963 9  -7555018.37848  20885657.910    20885657.9904   20885663.4724
        -0.000          -0.000
  -3416434.513 9  -2653579.93248  20382399.681    20382399.0994   20382404.5684
        -0.000          -0.000
  -2642083.777 9  -2054627.62046  23247372.297    23247372.5194   23247379.0114
        -0.000          -0.000
  -9602404.774 9  -7456328.79847  21739677.328    21739677.1954   21739682.5284
        -0.000          -0.000
 98  5  3 17 37 29.9980000  0  7 24  2 27  4  7 26  9               -0.002063991
 -10314769.562 9  -7524032.59946  22762623.716    22762623.5344   22762632.8584
        -0.000          -0.000
  -4008625.016 9  -3114937.20448  21348605.780    21348605.2684   21348611.1254
        -0.000          -0.000
     19238.578 8     10754.23545  23423129.712    23423129.2654   23423138.6984
        -0.000          -0.000
  -9931976.276 9  -7713180.92248  20847032.868    20847032.9904   20847038.5834
        -0.000          -0.000
  -3496746.723 9  -2716160.87548  20367116.817    20367116.2094   20367121.6864
        -0.000          -0.000
  -2707081.513 9  -2105275.29746  23235003.873    23235004.1114   23235010.3344
        -0.000          -0.000
  -9805175.997 9  -7614332.31547  21701091.354    21701091.1074   21701096.3904
        -0.000          -0.000
 98  5  3 17 37 59.9970000  0  7 24  2 27  4  7 26  9               -0.002146578
 -10551670.544 9  -7708630.66746  22717543.000    22717542.7524   22717551.8824
        -0.000          -0.000
  -4099799.107 9  -3185981.96248  21331255.870    21331255.3994   21331261.3094
        -0.000          -0.000
      5349.784 8       -68.45645  23420486.863    23420486.5144   23420495.9144
        -0.000          -0.000
 -10134978.124 9  -7871364.12948  20808402.691    20808402.9024   20808408.6054
        -0.000          -0.000
  -3577313.076 9  -2778939.84648  20351785.523    20351784.9324   20351790.3914
        -0.000          -0.000
  -2772314.834 9  -2156106.53846  23222590.400    23222590.5854   23222596.8364
        -0.000          -0.000
 -10008003.645 9  -7772379.81147  21662494.507    21662494.3574   21662499.5844
        -0.000          -0.000
 98  5  3 17 38 29.9970000  0  7 24  2 27  4  7 26  9               -0.002229440
 -10788889.349 9  -7893476.37746  22672401.847    22672401.4934   22672410.4224
        -0.000          -0.000
  -4191184.172 9  -3257191.12748  21313865.976    21313865.4784   21313871.3184
        -0.000          -0.000
     -8868.856 8    -11148.23645  23417780.810    23417780.7974   23417790.4844
        -0.000          -0.000
 -10337993.853 9  -8029558.16648  20769770.121    20769770.2974   20769775.9404
        -0.000          -0.000
  -3658109.289 9  -2841897.92548  20336410.553    20336409.9464   20336415.3704
        -0.000          -0.000
  -2837768.150 9  -2207109.18946  23210134.891    23210135.1584   23210141.6244
        -0.000          -0.000
 -10210867.773 9  -7930455.72947  21623890.973    21623890.7024   21623895.8374
        -0.000          -0.000
 98  5  3 17 38 59.9970000  0  7 24  2 27  4  7 26  9               -0.002312571
 -11026444.092 9  -8078583.83446  22627196.684    22627196.3684   22627205.2584
        -0.000          -0.000
  -4282779.386 9  -3328564.04948  21296436.079    21296435.5054   21296441.3214
        -0.000          -0.000
    -23420.793 8    -22487.68645  23415011.543    23415011.5544   23415021.5544
        -0.000          -0.000
 -10541020.420 9  -8187760.64548  20731135.520    20731135.6344   20731141.2294
        -0.000          -0.000
  -3739118.954 9  -2905022.34548  20320994.950    20320994.3184   20320999.7304
        -0.000          -0.000
  -2903445.069 9  -2258286.08046  23197636.986    23197637.2694   23197643.7754
        -0.000          -0.000
 -10413760.416 9  -8088553.85547  21585281.835    21585281.5214   21585286.6814
        -0.000          -0.000
 98  5  3 17 39 29.9970000  0  7 24  2 27  4  7 26  9               -0.002395963
 -11264337.236 9  -8263955.00546  22581926.931    22581926.7084   22581935.7134
        -0.000          -0.000
  -4374572.884 9  -3400091.46848  21278968.247    21278967.7774   21278973.6694
        -0.000          -0.000
    -38293.427 8    -34077.04345  23412181.445    23412181.6044   23412191.6184
        -0.000          -0.000
 -10744053.129 9  -8345967.90748  20692499.666    20692499.7914   20692505.3064
        -0.000          -0.000
  -3820307.049 9  -2968285.79248  20305545.327    20305544.7344   20305550.1344
        -0.000          -0.000
  -2969347.183 9  -2309638.44146  23185096.414    23185096.6624   23185102.9744
        -0.000          -0.000
 -10616686.576 9  -8246678.10047  21546666.157    21546665.9344   21546671.0514
        -0.000          -0.000
 98  5  3 17 39 59.9970000  0  7 24  2 27  4  7 26  9               -0.002479618
 -11502560.273 9  -8449583.23546  22536594.438    22536594.3214   22536603.3244
        -0.000          -0.000
  -4466547.426 9  -3471759.96548  21261466.188    21261465.6634   21261471.5894
        -0.000          -0.000
    -53490.289 8    -45919.03045  23409289.956    23409290.0654   23409300.0644
        -0.000          -0.000
 -10947080.159 9  -8504170.74248  20653864.787    20653864.9474   20653870.5194
        -0.000          -0.000
  -3901661.911 9  -3031679.18748  20290063.989    20290063.3824   20290068.7594
        -0.000          -0.000
  -3035465.581 9  -2361159.36546  23172514.485    23172514.7624   23172521.1484
        -0.000          -0.000
 -10819653.229 9  -8404833.90747  21508042.903    21508042.6824   21508047.7794
        -0.000          -0.000
 98  5  3 17 40 29.9970000  0  7 24  2 27  4  7 26  9               -0.002563539
 -11741107.377 9  -8635464.00446  22491200.262    22491200.2274   22491209.1864
        -0.000          -0.000
  -4558690.389 9  -3543559.70247  21243932.025    21243931.4134   21243937.3554
        -0.000          -0.000
    -68993.649 9    -57999.88545  23406340.062    23406340.1184   23406350.1144
        -0.000          -0.000
 -11150082.555 9  -8662354.39848  20615234.583    20615234.8004   20615240.3794
        -0.000          -0.000
  -3983191.206 9  -3095208.51048  20274549.476    20274548.9024   20274554.2554
        -0.000          -0.000
  -3101813.578 9  -2412859.16946  23159888.894    23159889.2624   23159895.5944
        -0.000          -0.000
 -11022680.627 9  -8563037.04947  21469408.032    21469407.7994   21469412.9484
        -0.000          -0.000
 98  5  3 17 40 59.9970000  0  7 24  2 27  4  7 26  9               -0.002647706
 -11979965.135 9  -8821586.82846  22445747.002    22445747.0334   22445756.0364
        -0.000          -0.000
  -4650977.874 9  -3615472.04847  21226370.266    21226369.6404   21226375.6184
        -0.000          -0.000
    -84778.492 9    -70300.00945  23403336.649    23403336.6974   23403346.6364
        -0.000          -0.000
 -11353047.976 9  -8820509.22648  20576611.449    20576611.7084   20576617.3344
        -0.000          -0.000
  -4064907.859 9  -3158883.81748  20258999.301    20258998.7274   20259004.0604
        -0.000          -0.000
  -3168388.632 9  -2464735.91746  23147220.050    23147220.3534   23147226.8924
        -0.000          -0.000
 -11225763.900 9  -8721283.71547  21430762.388    21430762.1924   21430767.4654
        -0.000          -0.000
 98  5  3 17 41 29.9970000  0  7 24  2 27  4  7 26  9               -0.002732119
 -12219099.155 9  -9007924.91846  22400241.337    22400241.1564   22400250.2614
        -0.000          -0.000
  -4743390.808 9  -3687482.15347  21208784.668    21208784.0444   21208790.0944
        -0.000          -0.000
   -100837.338 9    -82813.66245  23400280.937    23400281.0024   23400291.0094
        -0.000          -0.000
 -11555947.245 9  -8978612.51448  20538000.922    20538001.2484   20538006.8944
        -0.000          -0.000
  -4146823.627 9  -3222714.29448  20243411.285    20243410.6984   20243416.0264
        -0.000          -0.000
  -3235176.013 9  -2516778.12946  23134510.957    23134511.2214   23134517.7944
        -0.000          -0.000
 -11428888.844 9  -8879562.86147  21392108.951    21392108.8014   21392113.9894
        -0.000          -0.000
 98  5  3 17 41 59.9970000  0  7 24  2 27  4  7 26  9               -0.002816792
 -12458501.164 9  -9194471.83946  22354684.781    22354684.4444   22354693.5844
        -0.000          -0.000
  -4835947.471 9  -3759604.25347  21191171.842    21191171.1574   21191177.1214
        -0.000          -0.000
   -117182.133 9    -95550.17045  23397170.854    23397171.0054   23397180.6804
        -0.000          -0.000
 -11758771.458 9  -9136657.31748  20499404.661    20499405.0374   20499410.6154
        -0.000          -0.000
  -4228971.650 9  -3286725.74248  20227779.126    20227778.5104   20227783.8354
        -0.000          -0.000
  -3302177.744 9  -2568987.38146  23121761.011    23121761.2284   23121767.9034
        -0.000          -0.000
 -11632043.258 9  -9037864.97847  21353449.852    21353449.7154   21353454.9154
        -0.000          -0.000
 98  5  3 17 42 29.9970000  0  7 24  2 27  4  7 26  9               -0.002901706
 -12698161.787 9  -9381220.29546  22309078.798    22309078.5164   22309087.6594
        -0.000          -0.000
  -4928645.770 9  -3831836.71747  21173531.944    21173531.2794   21173537.1934
        -0.000          -0.000
   -133796.152 9   -108496.43645  23394009.843    23394009.7634   23394019.2494
        -0.000          -0.000
 -11961515.033 9  -9294639.27148  20460823.967    20460824.2364   20460829.7504
        -0.000          -0.000
  -4311345.838 9  -3350913.41748  20212103.826    20212103.2524   20212108.5314
        -0.000          -0.000
  -3369387.664 9  -2621358.81946  23108971.550    23108971.7024   23108978.3204
        -0.000          -0.000
 -11835197.948 9  -9196167.30147  21314790.653    21314790.6084   21314795.7664
        -0.000          -0.000
 98  5  3 17 42 59.9970000  0  7 24  2 27  4  7 26  9               -0.002986866
 -12938085.210 9  -9568173.51246  22263422.709    22263422.3844   22263431.6104
        -0.000          -0.000
  -5021491.428 9  -3904184.00247  21155863.950    21155863.4004   21155869.3134
        -0.000          -0.000
   -150703.924 9   -121671.58745  23390792.882    23390792.7414   23390802.1994
        -0.000          -0.000
 -12164185.092 9  -9452563.95548  20422257.237    20422257.4254   20422262.8784
        -0.000          -0.000
  -4393938.657 9  -3415271.46548  20196386.917    20196386.3534   20196391.6404
        -0.000          -0.000
  -3436802.724 9  -2673890.08846  23096143.021    23096143.1824   23096149.7934
        -0.000          -0.000
 -12038341.833 9  -9354461.20547  21276133.729    21276133.6594   21276138.7514
        -0.000          -0.000
 98  5  3 17 43 29.9970000  0  7 24  2 27  4  7 26  9               -0.003072284
 -13178262.339 9  -9755324.42746  22217718.337    22217718.0844   22217727.3164
        -0.000          -0.000
  -5114484.469 9  -3976646.14347  21138168.023    21138167.4814   21138173.4114
        -0.000          -0.000
   -167924.082 9   -135090.20845  23387516.198    23387515.9404   23387525.7094
        -0.000          -0.000
 -12366777.121 9  -9610427.83748  20383705.208    20383705.4244   20383710.8464
        -0.000          -0.000
  -4476731.936 9  -3479785.71448  20180631.764    20180631.2104   20180636.5904
        -0.000          -0.000
  -3504419.813 9  -2726578.81546  23083275.952    23083276.1114   23083282.7374
        -0.000          -0.000
 -12241469.804 9  -9512742.72447  21237479.936    21237479.7694   21237484.7584
        -0.000          -0.000
 98  5  3 17 43 59.9960000  0  7 24  2 27  4  7 26  9               -0.003157937
 -13418676.048 9  -9942659.68646  22171969.021    22171968.8464   22171977.8174
        -0.000          -0.000
  -5207608.201 9  -4049210.11147  21120447.162    21120446.6394   21120452.6284
        -0.000          -0.000
   -185441.358 8   -148740.38345  23384182.958    23384182.5474   23384192.6004
        -0.000          -0.000
 -12569289.980 9  -9768230.02948  20345168.243    20345168.5134   20345173.9304
        -0.000          -0.000
  -4559701.814 9  -3544437.57448  20164843.090    20164842.5704   20164847.9724
        -0.000          -0.000
  -3572242.404 9  -2779427.67646  23070369.675    23070369.9254   23070376.6484
        -0.000          -0.000
 -12444568.551 9  -9671001.45948  21198831.466    21198831.2944   21198836.3414
        -0.000          -0.000
 98  5  3 17 44 29.9960000  0  7 24  2 27  4  7 26  9               -0.003243820
 -13659335.226 9 -10130186.18846  22126172.894    22126172.7494   22126181.8294
        -0.000          -0.000
  -5300851.195 9  -4121867.02147  21102703.644    21102703.1034   21102709.0494
        -0.000          -0.000
   -203244.751 8   -162613.48745  23380794.964    23380794.9324   23380805.0294
        -0.000          -0.000
 -12771732.757 9  -9925977.61048  20306644.572    20306644.8924   20306650.3204
        -0.000          -0.000
  -4642838.310 9  -3609219.26648  20149022.774    20149022.2624   20149027.6414
        -0.000          -0.000
  -3640282.198 9  -2832445.80346  23057422.222    23057422.5094   23057429.2684
        -0.000          -0.000
 -12647655.792 9  -9829251.23748  21160185.261    21160185.1094   21160190.1694
        -0.000          -0.000
 98  5  3 17 44 59.9960000  0  7 24  2 27  4  7 26  9               -0.003329934
 -13900215.147 9 -10317884.71746  22080334.998    22080334.8024   22080343.7024
        -0.000          -0.000
  -5394207.815 9  -4194612.46747  21084938.490    21084937.9314   21084943.9164
        -0.000          -0.000
   -221331.141 8   -176707.11545  23377353.732    23377353.6344   23377363.5484
        -0.000          -0.000
 -12974085.041 9 -10083654.67448  20268138.186    20268138.5104   20268143.9134
        -0.000          -0.000
  -4726133.827 9  -3674124.87448  20133172.133    20133171.6054   20133177.0084
        -0.000          -0.000
  -3708542.331 9  -2885635.62646  23044432.857    23044433.1114   23044439.8394
        -0.000          -0.000
 -12850727.520 9  -9987488.92747  21121542.028    21121541.8514   21121546.7984
        -0.000          -0.000
 98  5  3 17 45 29.9960000  0  6 24  2  4  7 26  9                  -0.003416411
 -14141298.094 9 -10505741.45246  22034458.344    22034458.1524   22034467.1054
        -0.000          -0.000
  -5487682.347 9  -4267449.79547  21067150.874    21067150.3464   21067156.3554
        -0.000          -0.000
 -13176344.516 9 -10241259.42948  20229649.536    20229649.8254   20229655.1484
        -0.000          -0.000
  -4809597.169 9  -3739161.25548  20117289.525    20117289.0314   20117294.4854
        -0.000          -0.000
  -3777027.498 9  -2939000.78146  23031400.462    23031400.8434   23031407.5114
        -0.000          -0.000
 -13053773.977 9 -10145706.93247  21082903.723    21082903.4904   21082908.2704
        -0.000          -0.000
 98  5  3 17 45 59.9960000  0  6 24  2  4  7 26  9                  -0.003502929
 -14382584.557 9 -10693756.76646  21988543.105    21988542.8884   21988551.7804
        -0.000          -0.000
  -5581294.417 9  -4340394.29347  21049337.062    21049336.5574   21049342.6664
        -0.000          -0.000
 -13378508.936 9 -10398790.10148  20191178.916    20191179.1584   20191184.5224
        -0.000          -0.000
  -4893236.033 9  -3804334.39748  20101373.672    20101373.1094   20101378.5754
        -0.000          -0.000
  -3845746.056 9  -2992547.81246  23018324.099    23018324.3864   23018330.9034
        -0.000          -0.000
 -13256794.775 9 -10303904.93247  21044270.019    21044269.8254   21044274.6404
        -0.000          -0.000
 98  5  3 17 46 29.9960000  0  6 24  2  4  7 26  9                  -0.003589712
 -14624063.546 9 -10881922.09846  21942591.187    21942591.0014   21942599.7044
        -0.000          -0.000
  -5675049.870 9  -4413450.52047  21031496.073    21031495.5694   21031501.6324
        -0.000          -0.000
 -13580553.439 9 -10556227.34448  20152731.070    20152731.3254   20152736.7014
        -0.000          -0.000
  -4977038.772 9  -3869635.24648  20085426.507    20085425.9894   20085431.4144
        -0.000          -0.000
  -3914681.605 9  -3046263.94146  23005206.177    23005206.3284   23005213.1504
        -0.000          -0.000
 -13459771.468 9 -10462068.56247  21005644.757    21005644.5754   21005649.4374
        -0.000          -0.000
 98  5  3 17 46 59.9960000  0  6 24  2  4  7 26  9                  -0.003676747
 -14865725.433 9 -11070229.95246  21896604.381    21896604.1874   21896612.8414
        -0.000          -0.000
  -5768932.187 9  -4486605.62147  21013630.937    21013630.3474   21013636.3854
        -0.000          -0.000
 -13782466.130 9 -10713561.87248  20114308.269    20114308.5744   20114313.9254
        -0.000          -0.000
  -5060996.310 9  -3935056.71548  20069449.993    20069449.3994   20069454.8144
        -0.000          -0.000
  -3983821.170 9  -3100139.00146  22992049.020    22992049.3554   22992056.4984
        -0.000          -0.000
 -13662683.036 9 -10620181.46647  20967031.916    20967031.7664   20967036.6484
        -0.000          -0.000
 98  5  3 17 47 29.9960000  0  6 24  2  4  7 26  9                  -0.003764028
 -15107566.707 9 -11258677.56646  21850583.230    21850583.1264   21850591.8664
        -0.000          -0.000
  -5862922.274 9  -4559844.68247  20995745.147    20995744.5794   20995750.6914
        -0.000          -0.000
 -13984230.557 9 -10870780.86848  20075913.820    20075914.1144   20075919.3874
        -0.000          -0.000
  -5145103.668 9  -4000594.92648  20053444.851    20053444.2994   20053449.7654
        -0.000          -0.000
  -4053160.132 9  -3154169.48346  22978854.419    22978854.8504   22978861.6694
        -0.000          -0.000
 -13865520.265 9 -10778236.41948  20928433.273    20928433.1374   20928438.0134
        -0.000          -0.000
 98  5  3 17 47 59.9960000  0  6 24  2  4  7 26  9                  -0.003851564
 -15349611.212 9 -11447283.58046  21804523.535    21804523.5234   21804532.2104
        -0.000          -0.000
  -5957011.518 9  -4633161.01347  20977840.491    20977839.9834   20977846.2024
        -0.000          -0.000
 -14185835.097 9 -11027875.28648  20037549.786    20037550.0334   20037555.3114
        -0.000          -0.000
  -5229366.304 9  -4066254.13848  20037410.180    20037409.6904   20037415.1554
        -0.000          -0.000
  -4122708.393 9  -3208363.06746  22965620.134    22965620.5114   22965627.0004
        -0.000          -0.000
 -14068299.452 9 -10936246.16148  20889845.678    20889845.5514   20889850.4464
        -0.000          -0.000
 98  5  3 17 48 29.9960000  0  6 24  2  4  7 26  9                  -0.003939329
 -15591869.547 9 -11636056.19546  21758423.370    21758423.2274   21758431.8974
        -0.000          -0.000
  -6051174.417 9  -4706534.74247  20959922.129    20959921.4884   20959927.6454
        -0.000          -0.000
 -14387274.015 9 -11184840.64048  19999217.212    19999217.4504   19999222.7624
        -0.000          -0.000
  -5313792.821 9  -4132041.04148  20021344.392    20021343.8724   20021349.3314
        -0.000          -0.000
  -4192456.294 9  -3262712.20446  22952347.708    22952348.1204   22952354.6514
        -0.000          -0.000
 -14271024.539 9 -11094213.73948  20851268.426    20851268.2674   20851273.2074
        -0.000          -0.000
 98  5  3 17 48 59.9960000  0  6 24  2  4  7 26  9                  -0.004027307
 -15834341.025 9 -11824994.88346  21712282.535    21712282.4194   21712290.9994
        -0.000          -0.000
  -6145397.613 9  -4779955.45947  20941992.077    20941991.4314   20941997.5374
        -0.000          -0.000
 -14588552.395 9 -11341680.89648  19960915.201    19960915.4164   19960920.7264
        -0.000          -0.000
  -5398396.418 9  -4197965.92948  20005244.857    20005244.3384   20005249.7964
        -0.000          -0.000
  -4262409.688 9  -3317221.43946  22939036.004    22939036.3764   22939042.9584
        -0.000          -0.000
 -14473701.717 9 -11252143.99448  20812700.242    20812700.0874   20812704.9944
        -0.000          -0.000
 98  5  3 17 49 29.9950000  0  6 24  2  4  7 26  9                  -0.004115488
 -16077014.562 9 -12014091.04346  21666103.181    21666103.1204   21666111.5704
        -0.000          -0.000
  -6239680.484 9  -4853422.66847  20924050.540    20924050.0014   20924056.1364
        -0.000          -0.000
 -14789654.420 9 -11498383.73248  19922646.625    19922646.8994   19922652.1634
        -0.000          -0.000
  -5483170.621 9  -4264023.76148  19989112.839    19989112.2964   19989117.8264
        -0.000          -0.000
  -4332548.566 9  -3371875.22045  22925689.186    22925689.4654   22925696.0994
        -0.000          -0.000
 -14676317.170 9 -11410026.15048  20774143.802    20774143.6204   20774148.5634
        -0.000          -0.000
 98  5  3 17 49 59.9950000  0  6 24  2  4  7 26  9                  -0.004203874
 -16319908.817 9 -12203359.18646  21619881.827    21619881.7884   21619890.2044
        -0.000          -0.000
  -6334040.464 9  -4926949.96147  20906094.536    20906093.9724   20906100.1674
        -0.000          -0.000
 -14990600.501 9 -11654965.04548  19884407.829    19884408.1014   19884413.3874
        -0.000          -0.000
  -5568124.567 9  -4330221.65148  19972946.599    19972946.0474   19972951.5284
        -0.000          -0.000
  -4402870.671 9  -3426671.78046  22912307.552    22912307.8284   22912314.6414
        -0.000          -0.000
 -14878882.628 9 -11567869.35048  20735596.721    20735596.5954   20735601.6104
        -0.000          -0.000
 98  5  3 17 50 29.9950000  0  6 24  2  4  7 26  9                  -0.004292451
 -16562981.473 9 -12392766.34546  21573626.442    21573626.4904   21573634.8124
        -0.000          -0.000
  -6428474.189 9  -5000534.71547  20888124.349    20888123.7834   20888130.1064
        -0.000          -0.000
 -15191384.954 9 -11811420.39748  19846199.723    19846200.0024   19846205.3614
        -0.000          -0.000
  -5653246.440 9  -4396550.38148  19956748.410    19956747.9014   19956753.3844
        -0.000          -0.000
  -4473374.319 9  -3481609.78345  22898891.211    22898891.5974   22898898.3424
        -0.000          -0.000
 -15081372.190 9 -11725653.39848  20697064.210    20697064.1304   20697069.0814
        -0.000          -0.000
 98  5  3 17 50 59.9950000  0  6 24  2  4  7 26  9                  -0.004381224
 -16806205.788 9 -12582291.66746  21527342.471    21527342.2814   21527350.7674
        -0.000          -0.000
  -6522984.669 9  -5074179.29647  20870139.459    20870139.0234   20870145.3314
        -0.000          -0.000
 -15392006.333 9 -11967748.70448  19808022.589    19808022.9014   19808028.3184
        -0.000          -0.000
  -5738520.389 9  -4462997.63348  19940521.324    19940520.7944   19940526.3004
        -0.000          -0.000
  -4544073.743 9  -3536700.39645  22885437.554    22885437.9214   22885444.7454
        -0.000          -0.000
 -15283756.673 9 -11883355.57948  20658551.868    20658551.6924   20658556.6014
        -0.000          -0.000
 98  5  3 17 51 29.9950000  0  6 24  2  4  7 26  9                  -0.004470197
 -17049561.076 9 -12771919.07046  21481033.334    21481033.2504   21481041.7444
        -0.000          -0.000
  -6617564.786 9  -5147878.13547  20852141.530    20852141.0434   20852147.2444
        -0.000          -0.000
 -15592454.893 9 -12123942.34148  19769878.496    19769878.7684   19769884.1714
        -0.000          -0.000
  -5823926.434 9  -4529547.81748  19924269.116    19924268.5764   19924274.1324
        -0.000          -0.000
  -4614976.973 9  -3591949.80545  22871945.221    22871945.4324   22871952.4204
        -0.000          -0.000
 -15486011.650 9 -12040956.85248  20620063.906    20620063.8374   20620068.7634
        -0.000          -0.000
 98  5  3 17 51 59.9950000  0  6 24  2  4  7 26  9                  -0.004559374
 -17293014.509 9 -12961622.94046  21434705.533    21434705.5424   21434713.9954
        -0.000          -0.000
  -6712206.404 9  -5221624.89447  20834131.737    20834131.3314   20834137.5904
        -0.000          -0.000
 -15792720.182 9 -12279993.16248  19731769.220    19731769.5204   19731774.9364
        -0.000          -0.000
  -5909447.692 9  -4596187.76448  19907994.953    19907994.4524   19908000.0284
        -0.000          -0.000
  -4686097.289 9  -3647368.34645  22858411.505    22858411.6814   22858418.7364
        -0.000          -0.000
 -15688120.915 9 -12198444.56748  20581603.832    20581603.7024   20581608.5964
        -0.000          -0.000
 98  5  3 17 52 29.9950000  0  6 24  2  4  7 26  9                  -0.004648748
 -17536560.676 9 -13151399.06946  21388360.225    21388360.1964   21388368.5194
        -0.000          -0.000
  -6806907.410 9  -5295417.93747  20816110.902    20816110.4464   20816116.6854
        -0.000          -0.000
 -15992808.254 9 -12435905.89648  19693693.713    19693693.9794   19693699.4014
        -0.000          -0.000
  -5995085.170 9  -4662918.27248  19891698.708    19891698.2044   19891703.7814
        -0.000          -0.000
  -4757438.970 9  -3702959.37145  22844835.650    22844835.8994   22844842.9434
        -0.000          -0.000
 -15890077.818 9 -12355813.56448  20543172.686    20543172.5584   20543177.4654
        -0.000          -0.000
 98  5  3 17 52 59.9950000  0  6 24  2  4  7 26  9                  -0.004738310
 -17780210.293 9 -13341255.81546  21341995.175    21341995.1244   21342003.4304
        -0.000          -0.000
  -6901664.374 9  -5369254.58247  20798079.317    20798078.8194   20798085.0594
        -0.000          -0.000
 -16192716.124 9 -12591678.21148  19655652.406    19655652.7154   19655658.1644
        -0.000          -0.000
  -6080834.712 9  -4729736.10548  19875381.134    19875380.5704   19875386.1564
        -0.000          -0.000
  -4828986.075 9  -3758710.49945  22831220.771    22831220.8654   22831227.9644
        -0.000          -0.000
 -16091876.970 9 -12513059.62948  20504771.529    20504771.3924   20504776.3874
        -0.000          -0.000
 98  5  3 17 53 29.9950000  0  6 24  2  4  7 26  9                  -0.004828049
 -18023956.425 9 -13531187.76246  21295611.811    21295611.7254   21295619.9014
        -0.000          -0.000
  -6996466.874 9  -5443126.71147  20780038.992    20780038.5294   20780044.6974
        -0.000          -0.000
 -16392421.851 9 -12747293.02148  19617649.535    19617649.9444   19617655.3574
        -0.000          -0.000
  -6166680.811 9  -4796629.17948  19859045.131    19859044.6304   19859050.2294
        -0.000          -0.000
  -4900711.208 9  -3814600.35645  22817571.963    22817572.2034   22817579.3114
        -0.000          -0.000
 -16293522.477 9 -12670185.98148  20466399.612    20466399.4274   20466404.5474
        -0.000          -0.000
 98  5  3 17 53 59.9950000  0  6 24  2  4  7 26  9                  -0.004917952
 -18267786.161 9 -13721184.87546  21249212.608    21249212.5364   21249220.5854
        -0.000          -0.000
  -7091304.504 9  -5517026.20847  20761992.010    20761991.5524   20761997.7344
        -0.000          -0.000
 -16591897.706 9 -12902728.70048  19579690.619    19579690.9824   19579696.3674
        -0.000          -0.000
  -6252619.668 9  -4863594.52648  19842691.521    19842690.9914   19842696.5734
        -0.000          -0.000
  -4972578.808 9  -3870601.22846  22803896.313    22803896.5304   22803903.5044
        -0.000          -0.000
 -16495006.171 9 -12827186.25348  20428058.370    20428058.2894   20428063.4284
        -0.000          -0.000
 98  5  3 17 54 29.9950000  0  6 24  2  4  7 26  9                  -0.005007995
 -18511688.162 9 -13911238.27046  21202799.417    21202799.4084   21202807.5294
        -0.000          -0.000
  -7186142.112 9  -5590925.68547  20743945.208    20743944.7364   20743950.8264
        -0.000          -0.000
 -16791118.657 9 -13057965.75748  19541780.167    19541780.4874   19541785.8054
        -0.000          -0.000
  -6338639.208 9  -4930622.73848  19826322.507    19826321.9734   19826327.5864
        -0.000          -0.000
  -5044563.783 9  -3926693.55145  22790198.030    22790198.3444   22790205.3824
        -0.000          -0.000
 -16696308.753 9 -12984045.38248  20389751.813    20389751.6694   20389756.8284
        -0.000          -0.000
 98  5  3 17 54 59.9940000  0  6 24  2  4  7 26  9                  -0.005098190
 -18755641.494 9 -14101331.67946  21156376.576    21156376.4764   21156384.7904
        -0.000          -0.000
  -7280966.745 9  -5664815.06447  20725900.730    20725900.2584   20725906.3914
        -0.000          -0.000
 -16990057.927 9 -13212983.33748  19503923.215    19503923.5554   19503928.8714
        -0.000          -0.000
  -6424738.682 9  -4997713.25248  19809938.291    19809937.7464   19809943.4384
        -0.000          -0.000
  -5116681.645 9  -3982889.44446  22776474.628    22776474.9544   22776481.8704
        -0.000          -0.000
 -16897417.738 9 -13140753.67548  20351481.973    20351481.8524   20351486.9624
        -0.000          -0.000
 98  5  3 17 55 29.9940000  0  6 24  2  4  7 26  9                  -0.005188576
 -18999686.959 9 -14291496.88646  21109936.312    21109936.1654   21109944.4024
        -0.000          -0.000
  -7375815.827 9  -5738723.49147  20707851.470    20707851.0634   20707857.2634
        -0.000          -0.000
 -17188761.123 9 -13367816.95248  19466111.191    19466111.5124   19466116.8574
        -0.000          -0.000
  -6510982.236 9  -5064916.02648  19793526.608    19793526.0974   19793531.8044
        -0.000          -0.000
  -5188989.848 9  -4039233.66046  22762715.122    22762715.4304   22762722.2034
        -0.000          -0.000
 -17098391.120 9 -13297356.29548  20313237.996    20313237.8584   20313242.8984
        -0.000          -0.000
 98  5  3 17 55 59.9940000  0  6 24  2  4  7 26  9                  -0.005279155
 -19243816.765 9 -14481727.79646  21063479.843    21063479.7474   21063487.8514
        -0.000          -0.000
  -7470679.537 9  -5812643.31347  20689799.566    20689799.1104   20689805.2924
        -0.000          -0.000
 -17387223.546 9 -13522462.95448  19428345.056    19428345.3864   19428350.6704
        -0.000          -0.000
  -6597387.783 9  -5132245.02648  19777084.242    19777083.7304   19777089.3984
        -0.000          -0.000
  -5261503.342 9  -4095737.82046  22748916.307    22748916.5934   22748923.5114
        -0.000          -0.000
 -17299213.708 9 -13453841.40848  20275022.660    20275022.5444   20275027.5974
        -0.000          -0.000
 98  5  3 17 56 29.9940000  0  6 24  2  4  7 26  9                  -0.005369920
 -19488022.017 9 -14672017.51046  21017009.065    21017008.9584   21017016.8374
        -0.000          -0.000
  -7565545.633 9  -5886564.99947  20671747.147    20671746.6974   20671752.9474
        -0.000          -0.000
 -17585445.619 9 -13676921.67448  19390624.721    19390624.9804   19390630.1784
        -0.000          -0.000
  -6683944.463 9  -5199691.79848  19760613.142    19760612.6424   19760618.2684
        -0.000          -0.000
  -5334229.209 9  -4152407.47346  22735076.955    22735077.3234   22735084.3394
        -0.000          -0.000
 -17499874.446 9 -13610200.41148  20236838.252    20236838.0894   20236843.1254
        -0.000          -0.000
 98  5  3 17 56 59.9940000  0  6 24  2  4  7 26  9                  -0.005460870
 -19732295.642 9 -14862360.50547  20970525.186    20970525.1484   20970532.8644
        -0.000          -0.000
  -7660421.985 9  -5960494.66747  20653692.768    20653692.3264   20653698.5704
        -0.000          -0.000
 -17783423.717 9 -13831190.28448  19352950.676    19352950.9314   19352956.1184
        -0.000          -0.000
  -6770651.223 9  -5267255.51848  19744113.355    19744112.8254   19744118.5144
        -0.000          -0.000
  -5407158.991 9  -4209236.02946  22721199.206    22721199.4704   22721206.3934
        -0.000          -0.000
 -17700366.661 9 -13766428.10448  20198685.804    20198685.6914   20198690.6664
        -0.000          -0.000
 98  5  3 17 57 29.9940000  0  6 24  2  4  7 26  9                  -0.005551982
 -19976625.472 9 -15052747.28247  20924030.750    20924030.6154   20924038.3444
        -0.000          -0.000
  -7755303.092 9  -6034428.05447  20635637.605    20635637.1364   20635643.3674
        -0.000          -0.000
 -17981153.198 9 -13985265.17048  19315324.032    19315324.2594   19315329.4554
        -0.000          -0.000
  -6857486.361 9  -5334919.27648  19727589.257    19727588.7144   19727594.3944
        -0.000          -0.000
  -5480261.948 9  -4266199.55046  22707288.390    22707288.7104   22707295.4964
        -0.000          -0.000
 -17900678.705 9 -13922515.39248  20160567.776    20160567.6094   20160572.5724
        -0.000          -0.000
 98  5  3 17 57 59.9940000  0  6 24  2  4  7 26  9                  -0.005643265
 -20221021.083 9 -15243185.32947  20877523.680    20877523.5524   20877531.3214
        -0.000          -0.000
  -7850211.988 9  -6108383.07847  20617577.070    20617576.5894   20617582.8724
        -0.000          -0.000
 -18178635.867 9 -14139147.74048  19277744.287    19277744.5154   19277749.7324
        -0.000          -0.000
  -6944430.268 9  -5402667.78548  19711044.442    19711043.8984   19711049.5054
        -0.000          -0.000
  -5553542.149 9  -4323301.15146  22693343.661    22693343.9864   22693351.1114
        -0.000          -0.000
 -18100811.854 9 -14078463.28348  20122483.718    20122483.5554   20122488.4844
        -0.000          -0.000
 98  5  3 17 58 29.9940000  0  6 24  2  4  7 26  9                  -0.005734716
 -20465470.100 9 -15433664.99246  20831006.412    20831006.3444   20831014.1294
        -0.000          -0.000
  -7945158.726 9  -6182367.60147  20599509.231    20599508.7674   20599515.1904
        -0.000          -0.000
 -18375862.137 9 -14292830.52148  19240213.360    19240213.5974   19240218.7984
        -0.000          -0.000
  -7031473.183 9  -5470493.44648  19694480.717    19694480.2054   19694485.7884
        -0.000          -0.000
  -5626983.268 9  -4380528.15946  22679368.293    22679368.6994   22679375.8914
        -0.000          -0.000
 -18300768.598 9 -14234273.72148  20084433.203    20084433.0274   20084437.8774
        -0.000          -0.000
 98  5  3 17 58 59.9940000  0  6 24  2  4  7 26  9                  -0.005826332
 -20709967.863 9 -15624182.61047  20784480.022    20784479.9044   20784487.7594
        -0.000          -0.000
  -8040137.730 9  -6256377.26647  20581435.362    20581434.9594   20581441.3804
        -0.000          -0.000
 -18572817.655 9 -14446302.32048  19202733.893    19202734.1644   19202739.3684
        -0.000          -0.000
  -7118612.336 9  -5538394.09548  19677898.676    19677898.1754   19677903.7994
        -0.000          -0.000
  -5700579.286 9  -4437875.85446  22665363.526    22665363.8854   22665371.2624
        -0.000          -0.000
 -18500547.896 9 -14389945.88548  20046416.446    20046416.2754   20046421.0974
        -0.000          -0.000
 98  5  3 17 59 29.9940000  0  6 24  2  4  7 26  9                  -0.005918117
 -20954523.911 9 -15814745.65847  20737942.431    20737942.3324   20737950.2234
        -0.000          -0.000
  -8135148.448 9  -6330411.63747  20563355.641    20563355.0664   20563361.5324
        -0.000          -0.000
 -18769504.567 9 -14599564.81148  19165305.504    19165305.7954   19165311.0494
        -0.000          -0.000
  -7205851.645 9  -5606372.78548  19661297.528    19661297.0474   19661302.7444
        -0.000          -0.000
  -5774350.243 9  -4495359.88845  22651325.390    22651325.8144   22651333.2434
        -0.000          -0.000
 -18700161.398 9 -14545488.85648  20008431.206    20008431.0714   20008435.9044
        -0.000          -0.000
 98  5  3 17 59 59.9940000  0  6 24  2  4  7 26  9                  -0.006010063
 -21199116.530 9 -16005337.23847  20691397.907    20691397.8634   20691405.6664
        -0.000          -0.000
  -8230159.938 9  -6404446.61047  20545275.551    20545274.9424   20545281.4684
        -0.000          -0.000
 -18965903.376 9 -14752602.82548  19127931.969    19127932.2984   19127937.5834
        -0.000          -0.000
  -7293192.585 9  -5674430.67248  19644677.003    19644676.5344   19644682.3374
        -0.000          -0.000
  -5848290.160 8  -4552975.57845  22637255.181    22637255.5334   22637263.0544
        -0.000          -0.000
 -18899584.113 9 -14700883.16648  19970482.358    19970482.1834   19970487.0314
        -0.000          -0.000
 98  5  3 18  0 29.9930000  0  6 24  2  4  7 26  9                  -0.006102154
 -21443729.674 9 -16195944.78447  20644849.504    20644849.4294   20644857.3024
        -0.000          -0.000
  -8325146.440 9  -6478462.12247  20527200.320    20527199.7154   20527206.1394
        -0.000          -0.000
 -19162014.521 9 -14905416.67448  19090613.107    19090613.5034   19090618.8154
        -0.000          -0.000
  -7380648.364 9  -5742578.03948  19628034.703    19628034.2244   19628040.0434
        -0.000          -0.000
  -5922407.366 9  -4610729.44545  22623151.241    22623151.6084   22623159.0914
        -0.000          -0.000
 -19098796.078 9 -14856113.25348  19932573.415    19932573.3074   19932578.2644
        -0.000          -0.000
 98  5  3 18  0 59.9930000  0  6 24  2  4  7 26  9                  -0.006194393
 -21688380.731 9 -16386581.87747  20598293.875    20598293.7484   20598301.5914
        -0.000          -0.000
  -8420094.763 9  -6552447.86647  20509132.336    20509131.6844   20509138.1274
        -0.000          -0.000
 -19357855.740 9 -15058020.18248  19053345.774    19053346.1634   19053351.4344
        -0.000          -0.000
  -7468219.258 9  -5810815.10348  19611370.549    19611370.0314   19611375.8104
        -0.000          -0.000
  -5996724.694 8  -4668639.20745  22609009.298    22609009.7074   22609017.0834
        -0.000          -0.000
 -19297798.451 9 -15011180.01148  19894704.464    19894704.3334   19894709.4134
        -0.000          -0.000
 98  5  3 18  1 29.9930000  0  6 24  2  4  7 26  9                  -0.006286763
 -21933045.041 9 -16577229.30347  20551735.756    20551735.5604   20551743.4254
        -0.000          -0.000
  -8514994.725 9  -6626395.93747  20491073.255    20491072.8154   20491079.3624
        -0.000          -0.000
 -19553421.841 9 -15210409.32248  19016130.768    19016131.1464   19016136.3884
        -0.000          -0.000
  -7555892.247 9  -5879131.73648  19594686.854    19594686.4014   19594692.2104
        -0.000          -0.000
  -6071231.919 9  -4726696.97545  22594831.064    22594831.6024   22594839.2104
        -0.000          -0.000
 -19496563.211 9 -15166061.63248  19856880.592    19856880.5084   19856885.6994
        -0.000          -0.000
 98  5  3 18  1 59.9930000  0  6 24  2  4  7 26  9                  -0.006379266
 -22177694.835 9 -16767865.42947  20505180.227    20505180.1104   20505188.0444
        -0.000          -0.000
  -8609842.368 9  -6700303.23047  20473024.442    20473023.9404   20473030.4934
        -0.000          -0.000
 -19748697.892 9 -15362572.45048  18978970.936    18978971.3414   18978976.5684
        -0.000          -0.000
  -7643664.405 9  -5947525.63448  19577984.423    19577983.9444   19577989.6604
        -0.000          -0.000
  -6145910.738 9  -4784888.41345  22580619.950    22580620.5024   22580628.5054
        -0.000          -0.000
 -19695065.323 9 -15320738.58848  19819106.832    19819106.7784   19819111.9924
        -0.000          -0.000
 98  5  3 18  2 29.9930000  0  6 24  2  4  7 26  9                  -0.006471919
 -22422353.747 9 -16958508.65947  20458622.978    20458622.9104   20458630.9174
        -0.000          -0.000
  -8704667.985 9  -6774193.38547  20454979.790    20454979.2434   20454985.8114
        -0.000          -0.000
 -19943685.538 9 -15514510.84548  18941866.050    18941866.4394   18941871.6224
        -0.000          -0.000
  -7731534.351 9  -6015995.73648  19561263.401    19561262.8404   19561268.5644
        -0.000          -0.000
  -6220778.827 9  -4843227.36045  22566373.011    22566373.5654   22566381.6714
        -0.000          -0.000
 -19893326.587 9 -15475227.87648  19781379.021    19781378.9064   19781384.0724
        -0.000          -0.000
 98  5  3 18  2 59.9930000  0  6 24  2  4  7 26  9                  -0.006564748
 -22667033.399 9 -17149168.04747  20412061.767    20412061.8244   20412069.7874
        -0.000          -0.000
  -8799492.596 9  -6848082.72447  20436934.945    20436934.6944   20436941.3754
        -0.000          -0.000
 -20138378.420 9 -15666219.55048  18904817.227    18904817.5974   18904822.7524
        -0.000          -0.000
  -7819516.867 9  -6084553.55148  19544520.740    19544520.2904   19544526.0774
        -0.000          -0.000
  -6295849.685 9  -4901724.30445  22552087.729    22552088.1134   22552096.3364
        -0.000          -0.000
 -20091363.345 9 -15629542.21648  19743693.835    19743693.7454   19743698.9064
        -0.000          -0.000
 98  5  3 18  3 29.9930000  0  6 24  2  4  7 26  9                  -0.006657766
 -22911721.434 9 -17339833.96747  20365499.335    20365499.2884   20365507.0034
        -0.000          -0.000
  -8894327.307 9  -6921979.95847  20418888.732    20418888.3474   20418895.0224
        -0.000          -0.000
 -20332763.280 9 -15817688.24248  18867826.940    18867827.3354   18867832.4884
        -0.000          -0.000
  -7907626.838 9  -6153210.68048  19527754.054    19527753.5584   19527759.3664
        -0.000          -0.000
  -6371124.602 9  -4960380.23445  22537763.654    22537763.8804   22537772.0474
        -0.000          -0.000
 -20289173.275 9 -15783679.80448  19706051.942    19706051.8344   19706057.0174
        -0.000          -0.000
 98  5  3 18  3 59.9930000  0  6 24  2  4  7 26  9                  -0.006750982
 -23156408.205 9 -17530498.89847  20318937.091    20318937.0034   20318944.5684
        -0.000          -0.000
  -8989163.454 9  -6995878.30047  20400842.181    20400841.6914   20400848.2924
        -0.000          -0.000
 -20526821.367 9 -15968902.30548  18830898.950    18830899.3104   18830904.4274
        -0.000          -0.000
  -7995867.211 9  -6221969.41448  19510962.532    19510962.0124   19510967.8184
        -0.000          -0.000
  -6446604.765 9  -5019196.12445  22523400.298    22523400.6434   22523408.7994
        -0.000          -0.000
 -20486757.796 9 -15937641.75048  19668452.942    19668452.8144   19668457.9604
        -0.000          -0.000
 98  5  3 18  4 29.9930000  0  6 24  2  4  7 26  9                  -0.006844371
 -23401082.370 9 -17721154.00847  20272377.149    20272377.0154   20272384.6124
        -0.000          -0.000
  -9083969.938 9  -7069753.52647  20382801.011    20382800.6614   20382807.2074
        -0.000          -0.000
 -20720533.553 9 -16119846.82748  18794036.788    18794037.1094   18794042.1674
        -0.000          -0.000
  -8084211.840 9  -6290809.38748  19494151.028    19494150.5604   19494156.3524
        -0.000          -0.000
  -6522279.566 9  -5078163.67845  22509000.049    22509000.3924   22509008.4544
        -0.000          -0.000
 -20684106.290 9 -16091419.78148  19630898.772    19630898.6524   19630903.8004
        -0.000          -0.000
 98  5  3 18  4 59.9930000  0  6 24  2  4  7 26  9                  -0.006937902
 -23645715.462 9 -17911777.12647  20225824.841    20225824.8034   20225832.4044
        -0.000          -0.000
  -9178722.159 9  -7143586.47447  20364770.363    20364769.9534   20364776.5124
        -0.000          -0.000
 -20913898.017 9 -16270520.40648  18757240.706    18757241.0024   18757246.0834
        -0.000          -0.000
  -8172652.599 9  -6359724.26948  19477321.313    19477320.8114   19477326.5594
        -0.000          -0.000
  -6598122.275 9  -5137262.04645  22494567.806    22494568.1244   22494575.9864
        -0.000          -0.000
 -20881196.514 9 -16244996.56148  19593393.820    19593393.7064   19593398.7434
        -0.000          -0.000
 98  5  3 18  5 29.9930000  0  6 24  2  4  7 26  9                  -0.007031552
 -23890312.520 9 -18102372.15747  20179279.570    20179279.4954   20179287.0894
        -0.000          -0.000
  -9273417.026 9  -7217374.74547  20346750.597    20346750.1584   20346756.7334
        -0.000          -0.000
 -21106936.104 9 -16420939.66648  18720506.640    18720507.0034   18720512.1464
        -0.000          -0.000
  -8261192.455 9  -6428716.37148  19460472.821    19460472.2954   19460477.9954
        -0.000          -0.000
  -6674123.708 9  -5196484.13045  22480105.481    22480105.5864   22480113.6484
        -0.000          -0.000
 -21078031.909 9 -16398374.77148  19555937.262    19555937.1364   19555942.1424
        -0.000          -0.000
 98  5  3 18  5 59.9920000  0  6 24  2  4  7 26  9                  -0.007125302
 -24134866.858 9 -18292933.93347  20132742.372    20132742.3524   20132749.7524
        -0.000          -0.000
  -9368044.759 9  -7291110.69047  20328743.699    20328743.1834   20328749.7064
        -0.000          -0.000
 -21299644.380 9 -16571101.93048  18683835.459    18683835.8104   18683840.9154
        -0.000          -0.000
  -8349812.921 9  -6497771.28448  19443608.926    19443608.3904   19443614.1074
        -0.000          -0.000
  -6750277.473 9  -5255824.92445  22465614.084    22465614.4384   22465622.1014
        -0.000          -0.000
 -21274611.850 9 -16551553.93548  19518529.231    19518529.1244   19518534.1114
        -0.000          -0.000
 98  5  3 18  6 29.9920000  0  6 24  2  4  7 26  9                  -0.007219164
 -24379399.010 9 -18483478.38947  20086209.226    20086209.2774   20086216.8114
        -0.000          -0.000
  -9462621.447 9  -7364806.87947  20310746.556    20310745.9044   20310752.3644
        -0.000          -0.000
 -21492040.462 9 -16721020.91248  18647223.679    18647224.0264   18647229.0944
        -0.000          -0.000
  -8438515.924 9  -6566890.51348  19426729.238    19426728.7364   19426734.4844
        -0.000          -0.000
  -6826598.607 9  -5315296.11345  22451090.968    22451091.4144   22451098.6914
        -0.000          -0.000
 -21470943.196 9 -16704539.38348  19481168.528    19481168.4874   19481173.4884
        -0.000          -0.000
 98  5  3 18  6 59.9920000  0  6 24  2  4  7 26  9                  -0.007313148
 -24623886.986 9 -18673988.42347  20039684.693    20039684.6654   20039692.3414
        -0.000          -0.000
  -9557149.162 9  -7438464.88847  20292758.401    20292757.7864   20292764.3504
        -0.000          -0.000
 -21684105.849 9 -16870682.22548  18610674.850    18610675.1584   18610680.2314
        -0.000          -0.000
  -8527300.011 9  -6636072.93248  19409834.215    19409833.7024   19409839.4284
        -0.000          -0.000
  -6903083.694 9  -5374895.08045  22436536.351    22436536.7704   22436544.3974
        -0.000          -0.000
 -21666999.698 9 -16857310.67048  19443860.333    19443860.2164   19443865.1154
        -0.000          -0.000
 98  5  3 18  7 29.9920000  0  6 24  2  4  7 26  9                  -0.007407275
 -24868325.138 9 -18864459.64147  19993169.592    19993169.5774   19993177.1664
        -0.000          -0.000
  -9651636.182 9  -7512091.20347  20274778.014    20274777.5044   20274784.1754
        -0.000          -0.000
 -21875821.773 9 -17020071.22048  18574192.509    18574192.8044   18574197.8774
        -0.000          -0.000
  -8616160.683 9  -6705315.02548  19392924.693    19392924.1684   19392929.8174
        -0.000          -0.000
  -6979753.310 9  -5434637.77745  22421946.834    22421947.1194   22421954.8914
        -0.000          -0.000
 -21862775.913 9 -17009863.55648  19406605.331    19406605.2374   19406610.1204
        -0.000          -0.000
 98  5  3 18  7 59.9920000  0  6 24  2  4  7 26  9                  -0.007501559
 -25112693.401 9 -19054876.40147  19946667.805    19946667.8104   19946675.2944
        -0.000          -0.000
  -9746079.586 9  -7585683.51747  20256806.075    20256805.5554   20256812.2424
        -0.000          -0.000
 -22067170.192 9 -17169173.84448  18537780.016    18537780.3624   18537785.4254
        -0.000          -0.000
  -8705092.445 9  -6774612.51448  19376001.478    19376001.0044   19376006.6264
        -0.000          -0.000
  -7056615.630 9  -5494530.65745  22407320.522    22407320.8444   22407328.7024
        -0.000          -0.000
 -22058258.564 9 -17162187.67948  19369406.213    19369406.0994   19369410.9944
        -0.000          -0.000
 98  5  3 18  8 29.9920000  0  6 24  2  4  7 26  9                  -0.007595995
 -25356980.641 9 -19245230.01247  19900181.349    19900181.3614   19900188.8284
        -0.000          -0.000
  -9840465.931 9  -7659231.36347  20238845.158    20238844.4794   20238851.1874
        -0.000          -0.000
 -22258138.501 9 -17317980.27648  18501439.922    18501440.2604   18501445.3014
        -0.000          -0.000
  -8794093.698 9  -6843964.14348  19359065.072    19359064.6084   19359070.2924
        -0.000          -0.000
  -7133666.920 9  -5554570.83345  22392658.338    22392658.6054   22392666.4504
        -0.000          -0.000
 -22253423.161 9 -17314263.96548  19332267.583    19332267.4404   19332272.3644
        -0.000          -0.000
 98  5  3 18  8 59.9920000  0  6 24  2  4  7 26  9                  -0.007690585
 -25601200.251 9 -19435530.93247  19853707.892    19853707.9344   19853715.3674
        -0.000          -0.000
  -9934802.787 9  -7732740.66247  20220893.235    20220892.7474   20220899.5034
        -0.000          -0.000
 -22448738.247 9 -17466499.52148  18465169.853    18465170.2294   18465175.2984
        -0.000          -0.000
  -8883183.395 9  -6913384.68148  19342111.876    19342111.3654   19342117.1224
        -0.000          -0.000
  -7210915.327 9  -5614764.60545  22377958.625    22377958.8304   22377966.7674
        -0.000          -0.000
 -22448290.571 9 -17466108.68148  19295185.502    19295185.3814   19295190.3014
        -0.000          -0.000
 98  5  3 18  9 29.9920000  0  6 24  2  4  7 26  9                  -0.007785308
 -25845344.122 9 -19625772.83447  19807248.818    19807248.8474   19807256.1914
        -0.000          -0.000
 -10029074.521 9  -7806199.21747  20202953.901    20202953.4664   20202960.2374
        -0.000          -0.000
 -22638966.225 9 -17614729.07648  18428970.685    18428971.0694   18428976.0954
        -0.000          -0.000
  -8972349.408 9  -6982864.70748  19325144.109    19325143.5814   19325149.3774
        -0.000          -0.000
  -7288347.049 9  -5675101.17545  22363223.928    22363224.1924   22363232.4564
        -0.000          -0.000
 -22642867.042 9 -17617726.70148  19258158.869    19258158.7244   19258163.5854
        -0.000          -0.000
 98  5  3 18  9 59.9920000  0  6 24  2  4  7 26  9                  -0.007880141
 -26089400.810 9 -19815946.78647  19760806.264    19760806.2894   19760813.6914
        -0.000          -0.000
 -10123263.552 9  -7879593.33247  20185030.433    20185030.0144   20185036.6984
        -0.000          -0.000
 -22828823.234 9 -17762669.55848  18392842.127    18392842.4804   18392847.4424
        -0.000          -0.000
  -9061585.512 9  -7052399.33948  19308163.083    19308162.5874   19308168.3554
        -0.000          -0.000
  -7365949.129 9  -5735570.54545  22348456.873    22348457.0454   22348465.5104
        -0.000          -0.000
 -22837142.835 9 -17769110.41648  19221189.436    19221189.2784   19221194.1844
        -0.000          -0.000
 98  5  3 18 10 29.9920000  0  6 24  2  4  7 26  9                  -0.007975078
 -26333369.628 9 -20006052.29947  19714380.537    19714380.5784   19714387.8744
        -0.000          -0.000
 -10217368.822 9  -7952922.18247  20167122.946    20167122.4814   20167129.0954
        -0.000          -0.000
 -23018297.870 9 -17910312.09548  18356786.264    18356786.6014   18356791.5704
        -0.000          -0.000
  -9150867.117 9  -7121969.43348  19291173.419    19291172.8994   19291178.5864
        -0.000          -0.000
  -7443712.557 9  -5796165.64445  22333659.085    22333659.2394   22333667.7284
        -0.000          -0.000
 -23031109.380 9 -17920253.17448  19184278.913    19184278.7404   19184283.5674
        -0.000          -0.000
 98  5  3 18 10 59.9920000  0  6 24  2  4  7 26  9                  -0.008070107
 -26577245.845 9 -20196085.65547  19667972.491    19667972.4764   19667979.6114
        -0.000          -0.000
 -10311400.408 9  -8026193.59447  20149229.411    20149228.9394   20149235.5734
        -0.000          -0.000
 -23207401.225 9 -18057665.31948  18320801.072    18320801.4334   18320806.3714
        -0.000          -0.000
  -9240195.424 9  -7191575.91848  19274174.841    19274174.2974   19274179.9464
        -0.000          -0.000
  -7521625.963 9  -5856877.57845  22318832.707    22318832.9434   22318841.3034
        -0.000          -0.000
 -23224770.323 9 -18071157.79048  19147426.446    19147426.2634   19147431.0844
        -0.000          -0.000
 98  5  3 18 11 29.9910000  0  6 24  2  4  7 26  9                  -0.008165236
 -26821008.951 9 -20386030.85247  19621585.917    19621585.8294   19621592.9774
        -0.000          -0.000
 -10405358.581 9  -8099407.80347  20131349.858    20131349.3574   20131356.0954
        -0.000          -0.000
 -23396133.685 9 -18204729.53548  18284886.482    18284886.8164   18284891.7474
        -0.000          -0.000
  -9329581.726 9  -7261227.57648  19257165.103    19257164.5624   19257170.2914
        -0.000          -0.000
  -7599700.414 9  -5917715.04245  22303975.818    22303976.0374   22303984.4264
        -0.000          -0.000
 -23418111.654 9 -18221813.35648  19110634.783    19110634.6334   19110639.4834
        -0.000          -0.000
 98  5  3 18 11 59.9910000  0  6 24  2  4  7 26  9                  -0.008260479
 -27064676.562 9 -20575901.63947  19575217.369    19575217.3104   19575224.5594
        -0.000          -0.000
 -10499254.840 9  -8172573.77547  20113482.105    20113481.6064   20113488.3624
        -0.000          -0.000
 -23584516.394 9 -18351521.21648  18249038.456    18249038.7734   18249043.6564
        -0.000          -0.000
  -9419046.091 9  -7330940.07648  19240140.528    19240140.0284   19240145.8274
        -0.000          -0.000
  -7677954.323 9  -5978692.29145  22289084.904    22289085.0774   22289093.5304
        -0.000          -0.000
 -23611140.041 9 -18372225.06748  19073902.691    19073902.4924   19073907.4214
        -0.000          -0.000
 98  5  3 18 12 29.9910000  0  6 24  2  4  7 26  9                  -0.008355826
 -27308225.634 9 -20765680.06947  19528871.508    19528871.3644   19528878.7404
        -0.000          -0.000
 -10593069.890 9  -8245676.48547  20095629.714    20095629.2464   20095635.9314
        -0.000          -0.000
 -23772523.986 9 -18498020.60448  18213261.707    18213262.0814   18213266.9724
        -0.000          -0.000
  -9508586.699 9  -7400711.99748  19223101.648    19223101.0644   19223106.8164
        -0.000          -0.000
  -7756368.437 8  -6039794.39445  22274163.208    22274163.4374   22274171.9494
        -0.000          -0.000
 -23803849.142 9 -18522387.98848  19037231.326    19037231.1394   19037236.0794
        -0.000          -0.000
 98  5  3 18 12 59.9910000  0  6 24  2  4  7 26  9                  -0.008451289
 -27551645.863 9 -20955358.09047  19482550.059    19482549.9814   19482557.3494
        -0.000          -0.000
 -10686789.823 9  -8318705.04647  20077795.263    20077794.9224   20077801.6444
        -0.000          -0.000
 -23960145.388 9 -18644219.05848  18177558.582    18177558.9384   18177563.7654
        -0.000          -0.000
  -9598232.814 9  -7470566.11148  19206042.641    19206042.0244   19206047.6764
        -0.000          -0.000
  -7834951.821 9  -6101028.40845  22259209.343    22259209.6894   22259218.2464
        -0.000          -0.000
 -23996255.173 9 -18672314.75048  19000617.654    19000617.4564   19000622.3564
        -0.000          -0.000
 98  5  3 18 13 29.9910000  0  6 24  2  4  7 26  9                  -0.008546877
 -27794934.641 9 -21144933.69447  19436253.639    19436253.6024   19436260.9244
        -0.000          -0.000
 -10780404.964 9  -8391651.97147  20059980.822    20059980.5044   20059987.3024
        -0.000          -0.000
 -24147360.128 9 -18790100.64448  18141932.687    18141933.0714   18141937.9324
        -0.000          -0.000
  -9687976.261 9  -7540496.07247  19188964.809    19188964.3074   19188970.0424
        -0.000          -0.000
  -7913724.085 9  -6162409.66045  22244219.784    22244220.1064   22244228.4894
        -0.000          -0.000
 -24188360.080 9 -18822006.87948  18964061.255    18964061.1044   18964065.9924
        -0.000          -0.000
 98  5  3 18 13 59.9910000  0  6 24  2  4  7 26  9                  -0.008642582
 -28038096.321 9 -21334410.26347  19389981.559    19389981.4554   19389988.7094
        -0.000          -0.000
 -10873905.329 9  -8464509.45747  20042188.441    20042188.0324   20042194.7684
        -0.000          -0.000
 -24334150.541 9 -18935651.58348  18106387.595    18106387.9594   18106392.8104
        -0.000          -0.000
  -9777785.394 9  -7610477.22048  19171874.660    19171874.1684   19171879.9834
        -0.000          -0.000
  -7992684.062 8  -6223937.11445  22229194.175    22229194.4994   22229203.1784
        -0.000          -0.000
 -24380158.047 9 -18971459.83148  18927563.201    18927563.0814   18927568.0504
        -0.000          -0.000
 98  5  3 18 14 29.9910000  0  6 24  2  4  7 26  9                  -0.008738420
 -28281144.030 9 -21523798.02047  19343731.123    19343730.9744   19343738.1364
        -0.000          -0.000
 -10967317.734 9  -8537298.41747  20024412.792    20024412.3184   20024419.0044
        -0.000          -0.000
 -24520521.234 9 -19080875.47248  18070922.372    18070922.7614   18070927.6224
        -0.000          -0.000
  -9867659.725 9  -7680509.17948  19154772.237    19154771.7384   19154777.5004
        -0.000          -0.000
  -8071855.882 9  -6285629.66645  22214128.361    22214128.9774   22214137.7244
        -0.000          -0.000
 -24571665.790 9 -19120686.62548  18891120.451    18891120.3494   18891125.2914
        -0.000          -0.000
 98  5  3 18 14 59.9910000  0  6 24  2  4  7 26  9                  -0.008834392
 -28524094.174 9 -21713109.74947  19297499.110    19297499.0104   19297506.1044
        -0.000          -0.000
 -11060653.014 9  -8610027.25147  20006651.542    20006651.1544   20006658.0084
        -0.000          -0.000
 -24706480.599 9 -19225778.84548  18035535.368    18035535.7894   18035540.7014
        -0.000          -0.000
  -9957591.201 9  -7750585.66547  19137658.879    19137658.3654   19137664.1014
        -0.000          -0.000
  -8151256.156 8  -6347500.24445  22199019.535    22199019.8884   22199028.4704
        -0.000          -0.000
 -24762867.649 9 -19269675.07248  18854735.933    18854735.8084   18854740.7664
        -0.000          -0.000
 98  5  3 18 15 29.9910000  0  6 24  2  4  7 26  9                  -0.008930467
 -28766919.019 9 -21902323.83347  19251291.031    19251290.8594   19251298.0184
        -0.000          -0.000
 -11153885.136 9  -8682675.72747  19988909.835    19988909.5564   19988916.5194
        -0.000          -0.000
 -24892014.874 9 -19370350.97048  18000229.385    18000229.8004   18000234.7524
        -0.000          -0.000
 -10047525.070 9  -7820664.00247  19120544.955    19120544.5224   19120550.2244
        -0.000          -0.000
  -8230852.736 8  -6409523.73545  22183872.667    22183873.0254   22183882.0604
        -0.000          -0.000
 -24953699.313 9 -19418375.05148  18818421.820    18818421.7084   18818426.7164
        -0.000          -0.000
 98  5  3 18 15 59.9910000  0  6 24  2  4  7 26  9                  -0.009026631
 -29009605.898 9 -22091430.42647  19205108.913    19205108.8804   19205116.2124
        -0.000          -0.000
 -11247002.727 9  -8755234.94347  19971190.245    19971189.9824   19971196.8254
        -0.000          -0.000
 -25077109.828 9 -19514580.77248  17965006.978    17965007.3944   17965012.3004
        -0.000          -0.000
 -10137461.926 9  -7890744.67347  19103430.619    19103430.1314   19103435.8744
        -0.000          -0.000
  -8310625.853 9  -6471684.82745  22168692.438    22168692.8844   22168701.8684
        -0.000          -0.000
 -25144135.205 9 -19566766.64848  18782183.078    18782182.9554   18782187.9384
        -0.000          -0.000
 98  5  3 18 16 29.9900000  0  6 24  2  4  7 26  9                  -0.009122881
 -29252148.730 9 -22280424.78947  19158954.316    19158954.4324   19158961.7574
        -0.000          -0.000
 -11340004.073 9  -8827703.57947  19953492.868    19953492.4654   19953499.3134
        -0.000          -0.000
 -25261766.991 9 -19658469.43548  17929867.834    17929868.2714   17929873.1514
        -0.000          -0.000
 -10227427.416 9  -7960847.66547  19086310.668    19086310.2324   19086316.0584
        -0.000          -0.000
  -8390563.117 9  -6533973.85945  22153481.152    22153481.3624   22153490.2894
        -0.000          -0.000
 -25334169.123 9 -19714845.01148  18746020.797    18746020.6604   18746025.5904
        -0.000          -0.000
 98  5  3 18 16 59.9900000  0  6 24  2  4  7 26  9                  -0.009219212
 -29494552.181 9 -22469310.53247  19112826.476    19112826.6054   19112833.8104
        -0.000          -0.000
 -11432868.027 9  -8900065.17247  19935821.448    19935821.0384   19935828.0274
        -0.000          -0.000
 -25445991.916 9 -19802021.31048  17894810.945    17894811.3704   17894816.2764
        -0.000          -0.000
 -10317443.875 9  -8030990.36347  19069181.104    19069180.7214   19069186.4464
        -0.000          -0.000
  -8470656.006 8  -6596384.14145  22138240.178    22138240.3154   22138249.2894
        -0.000          -0.000
 -25523794.870 9 -19862605.33548  18709936.114    18709936.0014   18709941.0124
        -0.000          -0.000
 98  5  3 18 17 29.9900000  0  6 24  2  4  7 26  9                  -0.009315634
 -29736786.158 9 -22658064.20147  19066731.045    19066731.0174   19066738.1434
        -0.000          -0.000
 -11525596.733 9  -8972321.34147  19918175.824    19918175.3544   19918182.4964
        -0.000          -0.000
 -25629775.476 9 -19945229.24548  17859838.028    17859838.4414   17859843.3044
        -0.000          -0.000
 -10407527.581 9  -8101185.44647  19052038.877    19052038.3284   19052044.0634
        -0.000          -0.000
  -8550903.536 8  -6658914.94145  22122969.744    22122969.9374   22122979.1234
        -0.000          -0.000
 -25713013.872 9 -20010048.69248  18673928.916    18673928.8484   18673933.8554
        -0.000          -0.000
 98  5  3 18 17 59.9900000  0  5 24  2  4  7  9                     -0.009412495
 -29978846.707 9 -22846682.75547  19020668.420    19020668.4654   19020675.5084
        -0.000          -0.000
 -11618191.029 9  -9044472.81147  19900555.969    19900555.3624   19900562.3694
        -0.000          -0.000
 -25813113.618 9 -20088090.10948  17824949.984    17824950.3944   17824955.1824
        -0.000          -0.000
 -10497702.837 9  -8171451.88147  19034879.101    19034878.5784   19034884.2604
        -0.000          -0.000
 -25901855.769 9 -20157198.21248  18637993.449    18637993.3864   18637998.4484
        -0.000          -0.000
 98  5  3 18 18 29.9900000  0  5 24  2  4  7  9                     -0.009509127
 -30220714.823 9 -23035151.32647  18974642.427    18974642.3894   18974649.4204
        -0.000          -0.000
 -11710644.164 9  -9116514.27747  19882962.712    19882962.1824   19882969.1614
        -0.000          -0.000
 -25996016.319 9 -20230611.65248  17790144.739    17790145.1494   17790149.9394
        -0.000          -0.000
 -10587962.451 9  -8241784.04147  19017703.139    19017702.7294   19017708.4184
        -0.000          -0.000
 -26090323.233 9 -20304055.95348  18602129.326    18602129.2144   18602134.3024
        -0.000          -0.000
 98  5  3 18 18 59.9900000  0  5 24  2  4  7  9                     -0.009605818
 -30462365.514 9 -23223450.48747  18928657.713    18928657.6734   18928664.7504
        -0.000          -0.000
 -11802953.313 9  -9188443.52247  19865396.821    19865396.3434   19865403.3834
        -0.000          -0.000
 -26178473.127 9 -20372785.76648  17755424.394    17755424.7554   17755429.5474
        -0.000          -0.000
 -10678289.508 9  -8312168.76247  19000514.521    19000514.0584   19000519.7684
        -0.000          -0.000
 -26278409.964 9 -20450617.03048  18566337.624    18566337.4924   18566342.6104
        -0.000          -0.000
 98  5  3 18 19 29.9900000  0  5 24  2  4  7  9                     -0.009702570
 -30703790.311 9 -23411573.63847  18882715.981    18882715.9684   18882723.0814
        -0.000          -0.000
 -11895119.842 9  -9260261.66747  19847858.163    19847857.6244   19847864.8144
        -0.000          -0.000
 -26360480.203 9 -20514609.43548  17720789.640    17720789.9724   17720794.7094
        -0.000          -0.000
 -10768667.025 9  -8382592.79747  18983316.168    18983315.7244   18983321.4734
        -0.000          -0.000
 -26466122.617 9 -20596886.62448  18530617.069    18530616.9514   18530622.0174
        -0.000          -0.000
 98  5  3 18 19 59.9900000  0  5 24  2  4  7  9                     -0.009799362
 -30944990.150 9 -23599521.49647  18836817.080    18836817.0944   18836824.2094
        -0.000          -0.000
 -11987123.250 9  -9331952.69547  19830350.459    19830349.9534   19830357.1234
        -0.000          -0.000
 -26542032.981 9 -20656079.09548  17686241.221    17686241.5504   17686246.2824
        -0.000          -0.000
 -10859070.048 9  -8453036.71047  18966112.982    18966112.5444   18966118.2594
        -0.000          -0.000
 -26653439.563 9 -20742847.87448  18494971.748    18494971.7074   18494976.7464
        -0.000          -0.000
 98  5  3 18 20 29.9900000  0  5 24  2  4  7  9                     -0.009896190
 -31185965.894 9 -23787294.71847  18790960.844    18790960.8494   18790967.9554
        -0.000          -0.000
 -12078981.070 9  -9403530.27646  19812870.585    19812870.0764   19812877.1304
        -0.000          -0.000
 -26723138.984 9 -20797200.64248  17651777.809    17651778.1584   17651782.9294
        -0.000          -0.000
 -10949493.156 9  -8523496.27147  18948905.923    18948905.5764   18948911.2474
        -0.000          -0.000
 -26840343.545 9 -20888487.33248  18459405.115    18459405.0204   18459409.9804
        -0.000          -0.000
 98  5  3 18 20 59.9900000  0  5 24  2  4  7  9                     -0.009993089
 -31426736.183 9 -23974907.85947  18745143.849    18745143.8474   18745150.7654
        -0.000          -0.000
 -12170706.623 9  -9475004.80047  19795415.700    19795415.2394   19795422.3804
        -0.000          -0.000
 -26903794.791 9 -20937971.37948  17617400.136    17617400.4884   17617405.2744
        -0.000          -0.000
 -11039942.967 9  -8593976.64747  18931694.035    18931693.6014   18931699.2594
        -0.000          -0.000
 -27026850.295 9 -21033817.25848  18423914.093    18423914.0104   18423918.9504
        -0.000          -0.000
 98  5  3 18 21 29.9900000  0  5 24  2  4  7  9                     -0.010090070
 -31667307.713 9 -24162366.10647  18699364.600    18699364.5394   18699371.3904
        -0.000          -0.000
 -12262305.428 9  -9546380.54846  19777985.095    19777984.5964   19777991.7374
        -0.000          -0.000
 -27083999.685 9 -21078390.74548  17583108.315    17583108.6374   17583113.4224
        -0.000          -0.000
 -11130416.988 9  -8664475.87247  18914477.396    18914476.9704   18914482.6054
        -0.000          -0.000
 -27212959.982 9 -21178837.78548  18388498.624    18388498.5174   18388503.4504
        -0.000          -0.000
 98  5  3 18 21 59.9890000  0  5 24  2  4  7  9                     -0.010187165
 -31907678.786 9 -24349668.16647  18653623.494    18653623.4254   18653630.1724
        -0.000          -0.000
 -12353804.595 9  -9617678.66046  19760573.450    19760573.0094   19760580.0064
        -0.000          -0.000
 -27263742.227 9 -21218449.83948  17548904.395    17548904.7264   17548909.4924
        -0.000          -0.000
 -11220919.819 9  -8734997.56147  18897255.226    18897254.8534   18897260.5214
        -0.000          -0.000
 -27398669.139 9 -21323546.20548  18353159.260    18353159.1924   18353164.1754
        -0.000          -0.000
 98  5  3 18 22 29.9890000  0  5 24  2  4  7  9                     -0.010284413
 -32147843.722 9 -24536809.59647  18607921.615    18607921.4844   18607928.2864
        -0.000          -0.000
 -12445216.389 9  -9688908.69346  19743178.636    19743178.1024   19743184.9784
        -0.000          -0.000
 -27443007.315 9 -21358136.88748  17514791.360    17514791.7124   17514796.4644
        -0.000          -0.000
 -11311455.354 9  -8805544.72947  18880027.147    18880026.5894   18880032.2534
        -0.000          -0.000
 -27583996.622 9 -21467957.22648  18317892.656    18317892.6074   18317897.5084
        -0.000          -0.000
 98  5  3 18 22 59.9890000  0  5 24  2  4  7  9                     -0.010381830
 -32387803.223 9 -24723790.95447  18562258.779    18562258.6464   18562265.4964
        -0.000          -0.000
 -12536525.965 9  -9760059.07346  19725802.982    19725802.4714   19725809.3804
        -0.000          -0.000
 -27621778.389 9 -21497438.99348  17480772.356    17480772.6834   17480777.3924
        -0.000          -0.000
 -11402032.174 9  -8876124.07947  18862791.025    18862790.4224   18862796.0894
        -0.000          -0.000
 -27768944.710 9 -21612072.60948  18282698.293    18282698.1814   18282703.0444
        -0.000          -0.000
 98  5  3 18 23 29.9890000  0  6 24  2  5  4  7  9                  -0.010479395
 -32627538.638 9 -24910597.68347  18516638.501    18516638.3784   18516645.4034
        -0.000          -0.000
 -12627719.432 9  -9831118.98846  19708449.368    19708448.9144   19708455.8994
        -0.000          -0.000
   -588006.473 8   -419147.37553         0.000           0.0004   20270926.0875
        -0.000          -0.000
 -27800042.383 9 -21636345.97448  17446849.810    17446850.1274   17446854.8554
        -0.000          -0.000
 -11492648.917 9  -8946734.52747  18845547.077    18845546.5804   18845552.2544
        -0.000          -0.000
 -27953475.883 9 -21755863.11948  18247583.057    18247582.9814   18247587.8934
        -0.000          -0.000
 98  5  3 18 23 59.9890000  0  6 24  2  5  4  7  9                  -0.010577042
 -32867046.173 9 -25097226.85247  18471061.512    18471061.5104   18471068.5464
        -0.000          -0.000
 -12718777.414 9  -9902073.33447  19691121.842    19691121.3804   19691128.2204
        -0.000          -0.000
   -824542.33118   -603461.02245  20225908.616    20225907.0065   20225913.0444
        -0.000          -0.000
 -27977797.981 9 -21774856.78648  17413024.000    17413024.3344   17413029.0974
        -0.000          -0.000
 -11583306.029 9  -9017376.43047  18828295.542    18828295.0924   18828300.8204
        -0.000          -0.000
 -28137573.995 9 -21899316.17748  18212550.373    18212550.2844   18212555.1984
        -0.000          -0.000
 98  5  3 18 24 29.9890000  0  6 24  2  5  4  7  9                  -0.010674781
 -33106342.731 9 -25283691.62247  18425524.879    18425524.8744   18425531.8024
        -0.000          -0.000
 -12809664.841 9  -9972894.77546  19673826.590    19673826.0444   19673832.9064
        -0.000          -0.000
  -1061185.058 8   -787857.87545  20180876.315    20180876.6504   20180881.5914
        -0.000          -0.000
 -28155069.407 9 -21912990.33048  17379290.294    17379290.6284   17379295.4514
        -0.000          -0.000
 -11674016.667 9  -9088060.04947  18811033.882    18811033.3834   18811039.0714
        -0.000          -0.000
 -28321250.844 9 -22042440.99348  18177597.785    18177597.6714   18177602.6114
        -0.000          -0.000
 98  5  3 18 24 59.9890000  0  6 24  2  5  4  7  9                  -0.010772562
 -33345426.610 9 -25469990.66547  18380028.768    18380028.7014   18380035.5164
        -0.000          -0.000
 -12900354.032 9 -10043561.73846  19656568.812    19656568.4414   19656575.4274
        -0.000          -0.000
  -1297907.414 8   -972316.83445  20135829.896    20135829.3254   20135835.1864
        -0.000          -0.000
 -28331866.446 9 -22050754.21848  17345646.849    17345647.2284   17345652.0834
        -0.000          -0.000
 -11764771.224 9  -9158777.88647  18793763.662    18793763.3284   18793769.0434
        -0.000          -0.000
 -28504494.894 9 -22185228.56048  18142727.551    18142727.4614   18142732.4614
        -0.000          -0.000
 98  5  3 18 25 29.9890000  0  7 24  2  5  4  7  9  8               -0.010870380
 -33584290.602 9 -25656118.38947  18334574.366    18334574.3084   18334581.1444
        -0.000          -0.000
 -12990855.686 9 -10114082.58546  19639347.034    19639346.6434   19639353.6964
        -0.000          -0.000
  -1534706.008 9  -1156835.17245  20090768.498    20090767.7024   20090774.0744
        -0.000          -0.000
 -28508206.185 9 -22188161.78248  17312090.522    17312090.8794   17312095.7124
        -0.000          -0.000
 -11855556.739 9  -9229519.85247  18776487.681    18776487.3294   18776493.1114
        -0.000          -0.000
 -28687320.197 9 -22327689.83248  18107937.098    18107937.0364   18107941.9484
        -0.000          -0.000
   -716850.968 8   -517775.87452         0.000           0.0004          0.0005
        -0.000          -0.000
 98  5  3 18 25 59.9890000  0  7 24  2  5  4  7  9  8               -0.010968080
 -33822909.310 9 -25842054.96748  18289166.529    18289166.5344   18289173.4474
        -0.000          -0.000
 -13081151.376 9 -10184442.92946  19622164.407    19622163.9584   19622171.0554
        -0.000          -0.000
  -1771539.026 9  -1341380.32445  20045700.517    20045699.9404   20045706.2984
        -0.000          -0.000
 -28684076.626 9 -22325203.64848  17278623.442    17278623.7784   17278628.5644
        -0.000          -0.000
 -11946341.806 9  -9300261.46547  18759211.872    18759211.4794   18759217.3194
        -0.000          -0.000
 -28869733.981 9 -22469830.43148  18073224.900    18073224.8374   18073229.8284
        -0.000          -0.000
   -964803.941 8   -117676.66242         0.000           0.0004          0.0004
        -0.000          -0.000
 98  5  3 18 26 29.9890000  0  7 24  2  5  4  7  9  8               -0.011065916
 -34061244.498 9 -26027770.62048  18243812.705    18243812.7514   18243819.7114
        -0.000          -0.000
 -13171233.727 9 -10254637.04346  19605022.286    19605021.8654   19605028.8884
        -0.000          -0.000
  -2008388.109 9  -1525938.03945  20000629.753    20000629.4424   20000635.2494
        -0.000          -0.000
 -28859451.591 9 -22461859.42248  17245250.627    17245250.9914   17245255.7824
        -0.000          -0.000
 -12037106.086 9  -9370986.88747  18741939.971    18741939.5454   18741945.4134
        -0.000          -0.000
 -29051724.552 9 -22611641.26248  18038593.224    18038593.1624   18038598.1464
        -0.000          -0.000
  -1212525.623 8   -310800.78452         0.000           0.0004          0.0005
        -0.000          -0.000
 98  5  3 18 26 59.9880000  0  7 24  2  5  4  7  9  8               -0.011163788
 -34299273.326 9 -26213247.56248  18198517.410    18198517.4094   18198524.2594
        -0.000          -0.000
 -13261146.858 9 -10324699.28446  19587912.377    19587911.9314   19587919.0784
        -0.000          -0.000
  -2245264.594 8  -1710517.05945  19955553.635    19955553.2814   19955559.2204
        -0.000          -0.000
 -29034326.577 9 -22598125.60548  17211972.950    17211973.3594   17211978.1674
        -0.000          -0.000
 -12127841.391 9  -9441689.73947  18724673.658    18724673.2584   18724679.0044
        -0.000          -0.000
 -29233270.809 9 -22753105.86948  18004046.043    18004046.0084   18004051.0134
        -0.000          -0.000
  -1459993.543 8   -503755.82352         0.000           0.0004          0.0005
        -0.000          -0.000
 98  5  3 18 27 29.9880000  0  7 24  2  5  4  7  9  8               -0.011261714
 -34537004.260 9 -26398492.37748  18153278.742    18153278.6774   18153285.4734
        -0.000          -0.000
 -13350899.989 9 -10394636.86346  19570833.120    19570832.5554   19570839.7164
        -0.000          -0.000
  -2482187.016 8  -1895131.89045  19910468.769    19910468.5194   19910474.3234
        -0.000          -0.000
 -29208703.385 9 -22734003.61048  17178790.077    17178790.5114   17178795.3484
        -0.000          -0.000
 -12218555.447 9  -9512376.01447  18707411.524    18707410.9894   18707416.5914
        -0.000          -0.000
 -29414370.770 9 -22894222.71448  17969583.839    17969583.7864   17969588.7774
        -0.000          -0.000
  -1707226.077 7   -101273.80142         0.000           0.0004          0.0004
        -0.000          -0.000
 98  5  3 18 27 59.9880000  0  7 24  2  5  4  7  9  8               -0.011359700
 -34774432.179 9 -26583501.07148  18108097.613    18108097.5354   18108104.4484
        -0.000          -0.000
 -13440481.918 9 -10464441.02846  19553786.362    19553785.7254   19553792.8934
        -0.000          -0.000
  -2719162.970 8  -2079788.46145  19865374.258    19865373.6984   19865379.4624
        -0.000          -0.000
 -29382566.400 9 -22869481.26448  17145705.057    17145705.4554   17145710.2774
        -0.000          -0.000
 -12309268.157 9  -9583061.25247  18690149.302    18690148.9094   18690154.4214
        -0.000          -0.000
 -29594998.348 9 -23034971.47248  17935211.530    17935211.4724   17935216.3694
        -0.000          -0.000
  -1954216.674 8   -293738.90652         0.000           0.0004          0.0005
        -0.000          -0.000
 98  5  3 18 28 29.9880000  0  7 24  2  5  4  7  9  8               -0.011457754
 -35011544.241 9 -26768263.65348  18062976.576    18062976.4824   18062983.3954
        -0.000          -0.000
 -13529878.727 9 -10534100.96046  19536774.775    19536774.1524   19536781.3214
        -0.000          -0.000
  -2956221.226 8  -2264509.13645  19820263.154    19820262.6494   19820268.4244
        -0.000          -0.000
 -29555893.834 9 -23004541.58548  17112721.889    17112722.2794   17112727.1074
        -0.000          -0.000
 -12399981.161 9  -9653746.73047  18672887.113    18672886.7104   18672892.3484
        -0.000          -0.000
 -29775125.598 9 -23175330.37548  17900934.457    17900934.4214   17900939.3314
        -0.000          -0.000
  -2200944.126 8   -486001.32052         0.000           0.0004          0.0005
        -0.000          -0.000
 98  5  3 18 28 59.9880000  0  7 24  2  5  4  7  9  8               -0.011555883
 -35248354.965 9 -26952791.42948  18017912.871    18017912.8294   18017919.6904
        -0.000          -0.000
 -13619084.779 9 -10603612.23346  19519799.429    19519798.7854   19519806.0644
        -0.000          -0.000
  -3193381.262 9  -2449309.11345  19775133.108    19775132.6394   19775138.6254
        -0.000          -0.000
 -29728696.466 9 -23139192.96248  17079838.559    17079838.9844   17079843.7614
        -0.000          -0.000
 -12490717.401 9  -9724450.30447  18655620.663    18655620.1934   18655625.9334
        -0.000          -0.000
 -29954758.623 9 -23315304.15748  17866751.420    17866751.3854   17866756.2644
        -0.000          -0.000
  -2447419.791 8    -85020.31842         0.000           0.0004          0.0004
        -0.000          -0.000
 98  5  3 18 29 29.9880000  0  7 24  2  5  4  7  9  8               -0.011654065
 -35484862.138 9 -27137082.66648  17972906.955    17972906.8964   17972913.7974
        -0.000          -0.000
 -13708080.202 9 -10672959.38446  19502864.113    19502863.4294   19502870.8474
        -0.000          -0.000
  -3430630.030 8  -2634178.26845  19729986.507    19729985.8654   19729991.6514
        -0.000          -0.000
 -29900962.392 9 -23273426.11348  17047057.457    17047057.8774   17047062.6234
        -0.000          -0.000
 -12581500.202 9  -9795190.15147  18638345.344    18638344.8624   18638350.5784
        -0.000          -0.000
 -30133911.071 9 -23454903.46048  17832659.908    17832659.8364   17832664.7134
        -0.000          -0.000
  -2693642.137 8   -276872.50952         0.000           0.0004          0.0005
        -0.000          -0.000
 98  5  3 18 29 59.9880000  0  7 24  2  5  4  7  9  8               -0.011752302
 -35721064.489 9 -27321136.38748  17927959.107    17927959.0524   17927965.8954
        -0.000          -0.000
 -13796875.771 9 -10742150.81546  19485966.921    19485966.3164   19485973.6924
        -0.000          -0.000
  -3667960.308 8  -2819110.92045  19684823.992    19684823.4614   19684829.1764
        -0.000          -0.000
 -30072684.609 9 -23407235.60948  17014379.807    17014380.2304   17014384.9584
        -0.000          -0.000
 -12672333.410 9  -9865969.29547  18621060.345    18621059.8794   18621065.5854
        -0.000          -0.000
 -30312587.694 9 -23594132.00148  17798658.829    17798658.7554   17798663.5964
        -0.000          -0.000
  -2939595.747 8   -468509.10952         0.000           0.0004          0.0005
        -0.000          -0.000
 98  5  3 18 30 29.9880000  0  7 24  2  5  4  7  9  8               -0.011850587
 -35956959.273 9 -27504950.45248  17883069.798    17883069.7694   17883076.4604
        -0.000          -0.000
 -13885486.269 9 -10811198.03146  19469105.086    19469104.4204   19469111.6784
        -0.000          -0.000
  -3905342.393 8  -3004083.90945  19639651.363    19639650.8034   19639656.8354
        -0.000          -0.000
 -30243878.262 9 -23540633.23448  16981802.695    16981803.1034   16981807.8414
        -0.000          -0.000
 -12763200.852 9  -9936775.10447  18603768.907    18603768.3894   18603774.1164
        -0.000          -0.000
 -30490798.157 9 -23732997.29548  17764746.436    17764746.3924   17764751.2094
        -0.000          -0.000
  -3185269.673 8    -68790.34742         0.000           0.0004          0.0004
        -0.000          -0.000
 98  5  3 18 30 59.9880000  0  7 24  2  5  4  7  9  8               -0.011948897
 -36192546.734 9 -27688525.02748  17838238.890    17838238.8854   17838245.5754
        -0.000          -0.000
 -13973899.059 9 -10880091.19046  19452280.567    19452280.0874   19452287.3344
        -0.000          -0.000
  -4142724.397 8  -3189056.84245  19594479.263    19594478.6044   19594484.4334
        -0.000          -0.000
 -30414542.510 9 -23673618.33148  16949326.310    16949326.7354   16949331.5044
        -0.000          -0.000
 -12854080.405 9 -10007590.35147  18586475.118    18586474.5514   18586480.3534
        -0.000          -0.000
 -30668533.332 9 -23871492.23648  17730924.577    17730924.5074   17730929.3724
        -0.000          -0.000
  -3430648.286 8   -259998.68652         0.000           0.0004          0.0005
        -0.000          -0.000
 98  5  3 18 31 29.9880000  0  7 24  2  5  4  7  9  8               -0.012047223
 -36427818.775 9 -27871853.82448  17793467.978    17793468.0184   17793474.7194
        -0.000          -0.000
 -14062099.501 9 -10948818.88646  19435496.786    19435496.1874   19435503.3434
        -0.000          -0.000
  -4380082.745 8  -3374011.37945  19549311.603    19549311.2744   19549316.3354
        -0.000          -0.000
 -30584657.821 9 -23806175.68148  16916954.414    16916954.8464   16916959.5704
        -0.000          -0.000
 -12944933.943 9 -10078385.32747  18569186.222    18569185.7304   18569191.5314
        -0.000          -0.000
 -30845775.690 9 -24009603.16548  17697196.382    17697196.3464   17697201.2814
        -0.000          -0.000
  -3675695.692 8   -450952.85752         0.000           0.0004          0.0005
        -0.000          -0.000
 98  5  3 18 31 59.9870000  0  7 24  2  5  4  7  9  8               -0.012145595
 -36662822.032 9 -28054973.18348  17748748.340    17748748.3574   17748755.0014
        -0.000          -0.000
 -14150128.001 9 -11017412.60846  19418745.146    19418744.8034   19418752.1174
        -0.000          -0.000
  -4617460.045 8  -3558980.66645  19504139.915    19504139.6354   19504144.7914
        -0.000          -0.000
 -30754275.276 9 -23938345.11148  16884677.228    16884677.6814   16884682.3874
        -0.000          -0.000
 -13035781.193 9 -10149175.40747  18551898.522    18551898.0884   18551903.9094
        -0.000          -0.000
 -31022559.745 9 -24147356.97548  17663555.496    17663555.4554   17663560.3604
        -0.000          -0.000
  -3920440.749 8    -52666.21742         0.000           0.0004          0.0004
        -0.000          -0.000
 98  5  3 18 32 29.9870000  0  7 24  2  5  4  7  9  8               -0.012244017
 -36897568.406 9 -28237892.36848  17704077.727    17704077.6524   17704084.2464
        -0.000          -0.000
 -14237980.154 9 -11085868.90946  19402027.318    19402027.1764   19402034.4594
        -0.000          -0.000
  -4854885.035 8  -3743987.12945  19458959.538    19458959.2534   19458964.5154
        -0.000          -0.000
 -30923405.492 9 -24070134.85948  16852492.800    16852493.2524   16852497.9614
        -0.000          -0.000
 -13126613.916 9 -10219954.16647  18534613.678    18534613.2044   18534618.9594
        -0.000          -0.000
 -31198893.152 9 -24284759.62848  17630000.413    17630000.3054   17630005.2024
        -0.000          -0.000
  -4164899.561 8   -243153.73652         0.000           0.0004          0.0005
        -0.000          -0.000
 98  5  3 18 32 59.9870000  0  7 24  2  5  4  7  9  8               -0.012342498
 -37132035.824 9 -28420594.18148  17659459.998    17659459.9004   17659466.4854
        -0.000          -0.000
 -14325635.770 9 -11154172.06446  19385347.107    19385346.9434   19385354.2574
        -0.000          -0.000
  -5092371.716 8  -3929041.63545  19413766.764    19413766.4804   19413772.1694
        -0.000          -0.000
 -31092011.188 9 -24201515.88848  16820408.254    16820408.6234   16820413.3264
        -0.000          -0.000
 -13217436.605 9 -10290725.10347  18517330.702    18517330.2894   18517335.9504
        -0.000          -0.000
 -31374759.907 9 -24421798.65348  17596534.042    17596533.9834   17596538.8804
        -0.000          -0.000
  -4409069.344 8   -433415.90152         0.000           0.0004          0.0005
        -0.000          -0.000
 98  5  3 18 33 29.9870000  0  7 24  2  5  4  7  9  8               -0.012441038
 -37366178.924 9 -28603043.28048  17614903.904    17614903.8964   17614910.5144
        -0.000          -0.000
 -14413087.109 9 -11222316.03546  19368705.917    19368705.6044   19368712.8614
        -0.000          -0.000
  -5329919.810 9  -4114143.99345  19368562.789    19368562.5634   19368568.3914
        -0.000          -0.000
 -31260063.755 9 -24332465.92248  16788428.987    16788429.2924   16788433.9404
        -0.000          -0.000
 -13308243.678 9 -10361483.87347  18500050.676    18500050.2714   18500056.1094
        -0.000          -0.000
 -31550136.473 9 -24558455.71148  17563161.019    17563160.9574   17563165.9064
        -0.000          -0.000
  -4652946.86718   -623450.25745         0.000           0.0005   19338545.5724
        -0.000          -0.000
 98  5  3 18 33 59.9870000  0  7 24  2  5  4  7  9  8               -0.012539644
 -37599985.307 9 -28785230.00648  17570411.931    17570411.8974   17570418.5344
        -0.000          -0.000
 -14500342.836 9 -11290307.62046  19352101.942    19352101.4994   19352108.7394
        -0.000          -0.000
  -5567519.223 9  -4299286.32845  19323349.180    19323348.6054   19323355.0184
        -0.000          -0.000
 -31427563.060 9 -24462984.84848  16756554.855    16756555.1684   16756559.8614
        -0.000          -0.000
 -13399047.848 9 -10432240.38647  18482771.151    18482770.7844   18482776.6804
        -0.000          -0.000
 -31725023.361 9 -24694731.20948  17529881.201    17529881.1464   17529886.1194
        -0.000          -0.000
  -4896546.058 8   -813267.77245  19292184.512    19292182.4704   19292189.9054
        -0.000          -0.000
 98  5  3 18 34 29.9870000  0  7 24  2  5  4  7  9  8               -0.012638319
 -37833442.236 9 -28967144.42448  17525986.458    17525986.4624   17525993.0484
        -0.000          -0.000
 -14587402.320 9 -11358146.25846  19335535.103    19335534.7584   19335541.9784
        -0.000          -0.000
  -5805157.486 9  -4484458.97945  19278128.297    19278127.7004   19278133.8774
        -0.000          -0.000
 -31594497.997 9 -24593063.99248  16724788.093    16724788.4604   16724793.1574
        -0.000          -0.000
 -13489865.675 9 -10503007.54547  18465489.225    18465488.7284   18465494.5514
        -0.000          -0.000
 -31899413.085 9 -24830619.29748  17496696.033    17496695.9104   17496700.8384
        -0.000          -0.000
  -5139877.098 8  -1002876.34845  19245880.034    19245879.8254   19245885.1824
        -0.000          -0.000
 98  5  3 18 34 59.9870000  0  7 24  2  5  4  7  9  8               -0.012737057
 -38066552.563 9 -29148788.76448  17481626.925    17481626.9824   17481633.5644
        -0.000          -0.000
 -14674278.888 9 -11425842.36446  19319003.096    19319002.7534   19319010.0104
        -0.000          -0.000
  -6042823.389 9  -4669653.16945  19232902.027    19232901.3694   19232907.3724
        -0.000          -0.000
 -31760897.003 9 -24722725.52448  16693123.390    16693123.7414   16693128.4444
        -0.000          -0.000
 -13580721.923 9 -10573804.62547  18448199.950    18448199.3484   18448205.1104
        -0.000          -0.000
 -32073312.838 9 -24966125.59848  17463603.929    17463603.8294   17463608.7484
        -0.000          -0.000
  -5382956.104 8  -1192288.51245  19199623.763    19199623.4984   19199628.6584
        -0.000          -0.000
 98  5  3 18 35 29.9870000  0  7 24  2  5  4  7  9  8               -0.012835849
 -38299330.514 9 -29330174.10748  17437330.732    17437330.7774   17437337.3744
        -0.000          -0.000
 -14760979.751 9 -11493401.55546  19302504.276    19302504.1044   19302511.4364
        -0.000          -0.000
  -6280496.814 9  -4854853.20645  19187674.214    19187673.6814   19187679.4714
        -0.000          -0.000
 -31926779.565 9 -24851984.63548  16661556.912    16661557.3144   16661562.0054
        -0.000          -0.000
 -13671609.065 9 -10644625.78447  18430904.614    18430903.9914   18430909.8614
        -0.000          -0.000
 -32246725.286 9 -25101252.18548  17430604.527    17430604.4244   17430609.3774
        -0.000          -0.000
  -5625763.292 9  -1381488.88045  19153419.261    19153418.9644   19153424.0944
        -0.000          -0.000
 98  5  3 18 35 59.9870000  0  7 24  2  5  4  7  9  8               -0.012934657
 -38531757.970 9 -29511286.34448  17393101.351    17393101.3074   17393107.8404
        -0.000          -0.000
 -14847457.625 9 -11560786.99246  19286048.137    19286048.0074   19286055.3254
        -0.000          -0.000
  -6518136.362 9  -5040026.85445  19142452.742    19142452.1674   19142457.9414
        -0.000          -0.000
 -32092116.052 9 -24980818.24048  16630094.405    16630094.8054   16630099.4894
        -0.000          -0.000
 -13762483.505 9 -10715437.05547  18413611.789    18413611.1034   18413617.0604
        -0.000          -0.000
 -32419620.130 9 -25235975.43848  17397703.641    17397703.5714   17397708.5204
        -0.000          -0.000
  -5868240.052 9  -1570431.78245  19107277.386    19107276.9784   19107282.4814
        -0.000          -0.000
 98  5  3 18 36 29.9870000  0  7 24  2  5  4  7  9  8               -0.013033495
 -38763852.200 9 -29692138.92448  17348935.272    17348935.1924   17348941.6384
        -0.000          -0.000
 -14933734.156 9 -11628015.51846  19269630.451    19269630.0834   19269637.4344
        -0.000          -0.000
  -6755783.624 9  -5225206.48146  19097229.978    19097229.3134   19097235.2284
        -0.000          -0.000
 -32256942.220 9 -25109254.19948  16598728.948    16598729.3794   16598734.1024
        -0.000          -0.000
 -13853371.765 9 -10786259.09047  18396316.156    18396315.5964   18396321.6104
        -0.000          -0.000
 -32592018.171 9 -25370311.57948  17364897.348    17364897.2624   17364902.1994
        -0.000          -0.000
  -6110413.200 9  -1759138.11445  19061193.094    19061192.6414   19061198.5424
        -0.000          -0.000
 98  5  3 18 36 59.9860000  0  7 24  2  5  4  7  9  8               -0.013132368
 -38995621.219 9 -29872738.08348  17304830.976    17304830.8954   17304837.3384
        -0.000          -0.000
 -15019818.490 9 -11695094.29646  19253249.239    19253248.8534   19253256.1834
        -0.000          -0.000
  -6993456.146 9  -5410405.80946  19052002.310    19052001.6044   19052007.5914
        -0.000          -0.000
 -32421255.924 9 -25237290.82348  16567461.058    16567461.4654   16567466.1934
        -0.000          -0.000
 -13944276.719 9 -10857094.13447  18379017.615    18379016.9714   18379023.0294
        -0.000          -0.000
 -32763938.922 9 -25504275.79548  17332181.870    17332181.8104   17332186.7854
        -0.000          -0.000
  -6352262.469 9  -1947592.08045  19015170.763    19015170.3124   19015176.1064
        -0.000          -0.000
 98  5  3 18 37 29.9860000  0  7 24  2  5  4  7  9  8               -0.013231283
 -39227074.789 9 -30053091.43948  17260786.636    17260786.6364   17260793.1144
        -0.000          -0.000
 -15105706.748 9 -11762020.29446  19236905.271    19236904.8484   19236912.1444
        -0.000          -0.000
  -7231169.512 9  -5595636.97146  19006766.796    19006766.2894   19006772.0384
        -0.000          -0.000
 -32585039.538 9 -25364914.38948  16536294.052    16536294.4624   16536299.2044
        -0.000          -0.000
 -14035195.297 9 -10927939.78447  18361716.258    18361715.7694   18361721.7774
        -0.000          -0.000
 -32935404.076 9 -25637885.00948  17299553.142    17299553.0994   17299558.0594
        -0.000          -0.000
  -6593785.336 9  -2135791.67845  18969210.221    18969209.8204   18969215.4814
        -0.000          -0.000
 98  5  3 18 37 59.9860000  0  7 24  2  5  4  7  9  8               -0.013330212
 -39458154.863 9 -30233153.76448  17216813.574    17216813.5084   17216820.0314
        -0.000          -0.000
 -15191361.684 9 -11828764.46846  19220605.562    19220605.2124   19220612.6464
        -0.000          -0.000
  -7468886.893 9  -5780871.25646  18961530.662    18961530.1164   18961535.9314
        -0.000          -0.000
 -32748253.141 9 -25492093.78848  16505235.477    16505235.9134   16505240.6434
        -0.000          -0.000
 -14126102.172 9 -10998776.32847  18344417.235    18344416.7844   18344422.6574
        -0.000          -0.000
 -33106381.063 9 -25771113.82448  17267017.272    17267017.2234   17267022.2194
        -0.000          -0.000
  -6834948.872 9  -2323711.26645  18923318.392    18923317.8904   18923323.1594
        -0.000          -0.000
 98  5  3 18 38 29.9860000  0  7 24  2  5  4  7  9  8               -0.013429162
 -39688853.254 9 -30412918.67448  17172913.033    17172912.9604   17172919.4954
        -0.000          -0.000
 -15276790.420 9 -11895332.39446  19204349.081    19204348.7964   19204356.2494
        -0.000          -0.000
  -7706599.154 9  -5966101.54746  18916295.526    18916295.0614   18916300.8604
        -0.000          -0.000
 -32910886.652 9 -25618821.16348  16474287.332    16474287.7784   16474292.4954
        -0.000          -0.000
 -14217003.444 9 -11069608.49347  18327119.296    18327118.9194   18327124.7194
        -0.000          -0.000
 -33276861.944 9 -25903956.06948  17234575.848    17234575.7924   17234580.7654
        -0.000          -0.000
  -7075745.667 9  -2511345.09145  18877496.261    18877495.6714   18877501.1504
        -0.000          -0.000
 98  5  3 18 38 59.9860000  0  7 24  2  5  4  7  9  8               -0.013528129
 -39919177.925 9 -30592392.38048  17129083.709    17129083.6424   17129090.1614
        -0.000          -0.000
 -15361992.327 9 -11961723.57946  19188135.906    19188135.5204   19188143.0864
        -0.000          -0.000
  -7944290.157 9  -6151315.28746  18871064.385    18871063.9154   18871069.6924
        -0.000          -0.000
 -33072925.792 9 -25745085.41148  16443452.247    16443452.6754   16443457.3884
        -0.000          -0.000
 -14307900.704 9 -11140437.54447  18309822.211    18309821.7044   18309827.5664
        -0.000          -0.000
 -33446849.203 9 -26036413.67048  17202228.361    17202228.3054   17202233.2744
        -0.000          -0.000
  -7316147.691 9  -2698671.31146  18831749.273    18831748.6914   18831754.4134
        -0.000          -0.000
 98  5  3 18 39 29.9860000  0  7 24  2  5  4  7  9  8               -0.013627114
 -40149124.844 9 -30771571.73648  17085326.312    17085326.1454   17085332.6114
        -0.000          -0.000
 -15446978.746 9 -12027946.84146  19171963.507    19171963.0564   19171970.7684
        -0.000          -0.000
  -8181955.753 9  -6336509.21746  18825838.067    18825837.6534   18825843.3954
        -0.000          -0.000
 -33234400.021 9 -25870909.45948  16412724.662    16412725.1374   16412729.8164
        -0.000          -0.000
 -14398807.819 9 -11211274.28047  18292523.117    18292522.7104   18292528.5574
        -0.000          -0.000
 -33616337.255 9 -26168482.28648  17169975.834    17169975.7434   17169980.6844
        -0.000          -0.000
  -7556177.007 9  -2885707.10746  18786073.229    18786072.6624   18786078.3974
        -0.000          -0.000
 98  5  3 18 39 59.9860000  0  7 24  2  5  4  7  9  8               -0.013726121
 -40378680.791 9 -30950446.44148  17041643.180    17041643.0264   17041649.5004
        -0.000          -0.000
 -15531749.364 9 -12094001.95546  19155832.102    19155831.7344   19155839.3914
        -0.000          -0.000
  -8419590.696 9  -6521679.24746  18780617.792    18780617.3094   18780622.9534
        -0.000          -0.000
 -33395310.670 9 -25996294.34548  16382104.388    16382104.8554   16382109.4864
        -0.000          -0.000
 -14489717.654 9 -11282113.11847  18275223.662    18275223.1774   18275229.0634
        -0.000          -0.000
 -33785294.053 9 -26300136.92848  17137824.465    17137824.3414   17137829.2714
        -0.000          -0.000
  -7795832.451 9  -3072451.55646  18740468.164    18740467.6644   18740473.4944
        -0.000          -0.000
 98  5  3 18 40 29.9860000  0  7 24  2  5  4  7  9  8               -0.013825157
 -40607833.921 9 -31129007.24948  16998036.711    16998036.5544   16998043.0024
        -0.000          -0.000
 -15616304.580 9 -12159889.21846  19139741.867    19139741.5234   19139749.2334
        -0.000          -0.000
  -8657200.316 9  -6706829.56046  18735402.134    18735401.6224   18735407.3084
        -0.000          -0.000
 -33555645.403 9 -26121230.46648  16351593.729    16351594.1474   16351598.7564
        -0.000          -0.000
 -14580614.267 9 -11352941.66647  18257926.616    18257926.0804   18257931.9714
        -0.000          -0.000
 -33953705.843 9 -26431366.88948  17105776.701    17105776.6374   17105781.5674
        -0.000          -0.000
  -8035107.127 9  -3258899.32846  18694935.635    18694935.1464   18694941.0484
        -0.000          -0.000
 98  5  3 18 40 59.9860000  0  7 24  2  5  4  7  9  8               -0.013924235
 -40836594.299 9 -31307262.03648  16954505.020    16954504.8814   16954511.2184
        -0.000          -0.000
 -15700660.547 9 -12225621.23946  19123689.581    19123689.2954   19123696.9964
        -0.000          -0.000
  -8894807.954 9  -6891978.33246  18690186.827    18690186.3034   18690192.0704
        -0.000          -0.000
 -33715435.160 9 -26245741.94548  16321186.717    16321187.1674   16321191.7304
        -0.000          -0.000
 -14671502.681 9 -11423763.82947  18240631.122    18240630.6154   18240636.5044
        -0.000          -0.000
 -34121600.156 9 -26562193.62648  17073827.617    17073827.4954   17073832.3674
        -0.000          -0.000
  -8274037.003 9  -3445078.41646  18649468.556    18649468.1524   18649474.1534
        -0.000          -0.000
 98  5  3 18 41 29.9860000  0  7 24  2  5  4  7  9  8               -0.014023353
 -41064932.567 9 -31485187.88448  16911053.635    16911053.4824   16911059.7834
        -0.000          -0.000
 -15784804.601 9 -12291188.10646  19107677.517    19107677.2214   19107685.0804
        -0.000          -0.000
  -9132392.326 9  -7077108.96146  18644976.059    18644975.5124   18644981.1474
        -0.000          -0.000
 -33874666.114 9 -26369817.97548  16290886.155    16290886.5244   16290891.0314
        -0.000          -0.000
 -14762342.181 9 -11494547.87447  18223344.862    18223344.4114   18223350.3244
        -0.000          -0.000
 -34288943.243 9 -26692590.82448  17041983.280    17041983.1314   17041987.9984
        -0.000          -0.000
  -8512618.160 9  -3630985.78146  18604068.047    18604067.6624   18604073.8134
        -0.000          -0.000
 98  5  3 18 41 59.9850000  0  7 24  2  5  4  7  9  8               -0.014122508
 -41292850.164 9 -31662785.95648  16867682.249    16867682.1274   16867688.4784
        -0.000          -0.000
 -15868720.602 9 -12356577.29646  19091708.749    19091708.5254   19091716.4944
        -0.000          -0.000
  -9369948.718 9  -7262217.79346  18599770.654    18599769.9884   18599775.6774
        -0.000          -0.000
 -34033314.683 9 -26493440.21248  16260696.316    16260696.6744   16260701.1714
        -0.000          -0.000
 -14853110.868 9 -11565276.75047  18206072.299    18206071.7494   18206077.5404
        -0.000          -0.000
 -34455720.624 9 -26822547.21648  17010246.512    17010246.4114   17010251.2634
        -0.000          -0.000
  -8750819.081 9  -3816596.85046  18558740.033    18558739.5634   18558745.4864
        -0.000          -0.000
 98  5  3 18 42 29.9850000  0  7 24  2  5  4  7  9  8               -0.014221695
 -41520370.298 9 -31840074.30448  16824386.545    16824386.4504   16824392.8494
        -0.000          -0.000
 -15952395.804 9 -12421778.85546  19075786.109    19075785.7884   19075793.8344
        -0.000          -0.000
  -9607487.496 9  -7447312.90146  18554568.244    18554567.7704   18554573.5814
        -0.000          -0.000
 -34191384.436 9 -26616611.41848  16230616.619    16230616.9684   16230621.4554
        -0.000          -0.000
 -14943815.740 9 -11635955.89547  18188811.643    18188811.1684   18188817.1224
        -0.000          -0.000
 -34621952.381 9 -26952078.44948  16978613.750    16978613.6204   16978618.4054
        -0.000          -0.000
  -8988650.588 9  -4001920.06646  18513481.990    18513481.4954   18513487.4534
        -0.000          -0.000
 98  5  3 18 42 59.9850000  0  7 24  2  5  4  7  9  8               -0.014320897
 -41747501.336 9 -32017059.47348  16781164.881    16781164.7714   16781171.1354
        -0.000          -0.000
 -16035813.814 9 -12486779.99746  19059912.067    19059911.8984   19059919.9504
        -0.000          -0.000
  -9844984.746 9  -7632375.67746  18509373.994    18509373.5274   18509379.2194
        -0.000          -0.000
 -34348876.976 9 -26739332.84748  16200646.785    16200647.0864   16200651.5644
        -0.000          -0.000
 -15034469.258 9 -11706595.01947  18171560.820    18171560.3804   18171566.3954
        -0.000          -0.000
 -34787630.241 9 -27081178.07448  16947086.257    16947086.1374   16947090.9874
        -0.000          -0.000
  -9226099.511 9  -4186945.16646  18468296.752    18468296.3544   18468302.3904
        -0.000          -0.000
 98  5  3 18 43 29.9850000  0  7 24  2  5  4  7  9  8               -0.014420118
 -41974270.882 9 -32193762.95548  16738011.980    16738011.8264   16738018.2314
        -0.000          -0.000
 -16118981.024 9 -12551585.72446  19044085.682    19044085.6634   19044093.8784
        -0.000          -0.000
 -10082457.478 9  -7817419.33246  18464184.412    18464183.9424   18464189.5884
        -0.000          -0.000
 -34505803.879 9 -26861613.51648  16170784.500    16170784.8294   16170789.2904
        -0.000          -0.000
 -15125116.080 9 -11777228.93247  18154311.278    18154310.8134   18154316.8924
        -0.000          -0.000
 -34952757.164 9 -27209848.39648  16915663.607    16915663.4904   16915668.3614
        -0.000          -0.000
  -9463174.307 9  -4371678.75946  18423182.967    18423182.4574   18423188.4254
        -0.000          -0.000
 98  5  3 18 43 59.9850000  0  7 24  2  5  4  7  9  8               -0.014519324
 -42200635.346 9 -32370150.79048  16694936.118    16694936.0174   16694942.3574
        -0.000          -0.000
 -16201847.774 9 -12616157.29746  19028316.739    19028316.5904   19028324.9394
        -0.000          -0.000
 -10319875.428 9  -8002420.29247  18419005.291    18419004.7184   18419010.4404
        -0.000          -0.000
 -34662128.518 9 -26983424.89448  16141036.849    16141037.2124   16141041.6664
        -0.000          -0.000
 -15215743.012 9 -11847847.34847  18137065.635    18137065.0714   18137071.0884
        -0.000          -0.000
 -35117316.325 9 -27338076.31048  16884349.070    16884348.9394   16884353.7474
        -0.000          -0.000
  -9699844.693 9  -4556097.22046  18378146.031    18378145.6244   18378151.4454
        -0.000          -0.000
 98  5  3 18 44 29.9850000  0  7 24  2  5  4  7  9  8               -0.014618518
 -42426578.819 9 -32546210.58248  16651940.408    16651940.3024   16651946.6594
        -0.000          -0.000
 -16284432.022 9 -12680508.76046  19012601.960    19012601.4704   19012609.7424
        -0.000          -0.000
 -10557233.133 9  -8187374.29847  18373837.286    18373836.7984   18373842.7044
        -0.000          -0.000
 -34817867.454 9 -27104779.88448  16111400.650    16111400.9994   16111405.5134
        -0.000          -0.000
 -15306368.794 9 -11918464.85947  18119820.249    18119819.5704   18119825.6404
        -0.000          -0.000
 -35281327.268 9 -27465877.04948  16853138.787    16853138.6554   16853143.4734
        -0.000          -0.000
  -9936126.170 9  -4740212.60746  18333183.040    18333182.6724   18333188.6454
        -0.000          -0.000
 98  5  3 18 44 59.9850000  0  7 24  2  5  4  7  9  8               -0.014717692
 -42652072.271 9 -32721919.70148  16609030.222    16609030.1984   16609036.6264
        -0.000          -0.000
 -16366737.689 9 -12744643.13646  18996939.630    18996939.2234   18996947.4534
        -0.000          -0.000
 -10794516.552 9  -8372270.42747  18328683.609    18328683.2164   18328689.1214
        -0.000          -0.000
 -34973018.300 9 -27225676.61548  16081876.385    16081876.7194   16081881.2714
        -0.000          -0.000
 -15396968.155 9 -11989061.78747  18102579.586    18102579.0654   18102585.1914
        -0.000          -0.000
 -35444773.573 9 -27593237.80048  16822035.991    16822035.8474   16822040.7014
        -0.000          -0.000
 -10171987.275 9  -4924000.43546  18288300.064    18288299.6644   18288305.7244
        -0.000          -0.000
 98  5  3 18 45 29.9850000  0  8 24 16  2  5  4  7  9  8            -0.014816794
 -42877100.780 9 -32897266.53048  16566208.729    16566208.6424   16566215.0734
        -0.000          -0.000
 -13670243.775 8  -9657424.80045  20169355.612    20169354.9964   20169362.7374
        -0.000          -0.000
 -16448785.219 9 -12808576.37246  18981326.581    18981326.2014   18981334.2714
        -0.000          -0.000
 -11031735.895 9  -8557116.64447  18283542.456    18283541.9374   18283547.6954
        -0.000          -0.000
 -35127586.227 9 -27346119.12848  16052462.994    16052463.3814   16052467.9004
        -0.000          -0.000
 -15487517.782 9 -12059619.96647  18085348.538    18085348.0344   18085354.1884
        -0.000          -0.000
 -35607669.556 9 -27720169.73148  16791037.852    16791037.7374   16791042.5804
        -0.000          -0.000
 -10407427.683 9  -5107460.47446  18243497.113    18243496.7804   18243502.8444
        -0.000          -0.000
 98  5  3 18 45 59.9850000  0  8 24 16  2  5  4  7  9  8            -0.014915969
 -43101655.268 9 -33072243.99248  16523477.486    16523477.3654   16523483.7704
        -0.000          -0.000
 -13849602.168 8  -9797184.56845  20135224.528    20135223.9144   20135232.3634
        -0.000          -0.000
 -16530602.898 9 -12872330.49146  18965757.211    18965756.7904   18965764.8694
        -0.000          -0.000
 -11268896.535 9  -8741917.10047  18238412.270    18238411.8104   18238417.4864
        -0.000          -0.000
 -35281575.573 9 -27466110.79848  16023159.797    16023160.1574   16023164.6564
        -0.000          -0.000
 -15577998.253 9 -12130124.24547  18068130.679    18068130.2534   18068136.2324
        -0.000          -0.000
 -35770034.450 9 -27846687.82848  16760140.801    16760140.6864   16760145.5574
        -0.000          -0.000
 -10642442.217 9  -5290588.66046  18198775.579    18198775.1204   18198781.0644
        -0.000          -0.000
 98  5  3 18 46 29.9850000  0  8 24 16  2  5  4  7  9  8            -0.015015173
 -43325748.127 9 -33246861.75348  16480834.066    16480833.9264   16480840.2454
        -0.000          -0.000
 -14028563.720 8  -9936635.07045  20101169.101    20101168.8504   20101176.8374
        -0.000          -0.000
 -16612207.234 9 -12935918.37746  18950228.394    18950228.0694   18950236.0384
        -0.000          -0.000
 -11505988.213 9  -8926663.82747  18193295.222    18193294.7944   18193300.4644
        -0.000          -0.000
 -35434974.531 9 -27585642.43048  15993968.950    15993969.3064   15993973.7764
        -0.000          -0.000
 -15668402.643 9 -12200569.24547  18050927.386    18050926.9234   18050932.8074
        -0.000          -0.000
 -35931854.049 9 -27972781.02148  16729347.571    16729347.4344   16729352.3214
        -0.000          -0.000
 -10877008.817 9  -5473367.78746  18154138.969    18154138.4324   18154144.4054
        -0.000          -0.000
 98  5  3 18 46 59.9840000  0  8 24 16  2  5  4  7  9  8            -0.015114409
 -43549394.050 9 -33421131.24748  16438275.625    16438275.4894   16438281.7264
        -0.000          -0.000
 -14207100.302 8 -10075754.45645  20067194.685    20067194.2714   20067202.6244
        -0.000          -0.000
 -16693597.752 9 -12999339.66346  18934740.572    18934740.1434   18934748.0124
        -0.000          -0.000
 -11743010.697 9  -9111356.63347  18148191.424    18148190.8894   18148196.5224
        -0.000          -0.000
 -35587768.218 9 -27704702.41848  15964893.215    15964893.5944   15964898.0504
        -0.000          -0.000
 -15758726.110 9 -12270951.16147  18033739.240    18033738.8034   18033744.8104
        -0.000          -0.000
 -36093117.310 9 -28098440.69248  16698660.153    16698660.0484   16698664.9334
        -0.000          -0.000
 -11111119.326 9  -5655791.53746  18109588.957    18109588.5734   18109594.6344
        -0.000          -0.000
 98  5  3 18 47 29.9840000  0  8 24 16  2  5  4  7  9  8            -0.015213681
 -43772610.195 9 -33595065.84248  16395798.930    16395798.7854   16395805.0274
        -0.000          -0.000
 -14385202.216 8 -10214535.09945  20033302.740    20033302.5124   20033310.8324
        -0.000          -0.000
 -16774759.255 9 -13062582.48946  18919296.122    18919295.5744   18919303.6464
        -0.000          -0.000
 -11979967.908 9  -9295998.57847  18103100.046    18103099.4544   18103104.9974
        -0.000          -0.000
 -35739934.987 9 -27823273.90048  15935936.810    15935937.2104   15935941.6624
        -0.000          -0.000
 -15848985.803 9 -12341283.42046  18016563.534    18016563.0234   18016568.9074
        -0.000          -0.000
 -36253830.961 9 -28223672.11348  16668077.387    16668077.2204   16668082.0974
        -0.000          -0.000
 -11344786.182 9  -5837869.56746  18065123.646    18065123.2954   18065129.1974
        -0.000          -0.000
 98  5  3 18 47 59.9840000  0  8 24 16  2  5  4  7  9  8            -0.015312966
 -43995386.282 9 -33768657.55048  16353405.937    16353405.8234   16353412.0534
        -0.000          -0.000
 -14562840.867 8 -10352954.79945  19999499.381    19999499.4354   19999507.1494
        -0.000          -0.000
 -16855656.613 9 -13125619.48546  18903901.813    18903901.3324   18903909.4364
        -0.000          -0.000
 -12216836.966 9  -9480571.81546  18058025.237    18058024.6604   18058030.2864
        -0.000          -0.000
 -35891441.172 9 -27941330.64648  15907106.137    15907106.5094   15907110.9384
        -0.000          -0.000
 -15939197.145 9 -12411577.98846  17999396.882    17999396.4174   17999402.2124
        -0.000          -0.000
 -36413962.883 9 -28348450.23648  16637605.264    16637605.1264   16637609.9814
        -0.000          -0.000
 -11577982.972 9  -6019581.33446  18020748.019    18020747.5064   18020753.2494
        -0.000          -0.000
 98  5  3 18 48 29.9840000  0  8 24 16  2  5  4  7  9  8            -0.015412249
 -44217723.490 9 -33941907.27148  16311096.509    16311096.4034   16311102.6784
        -0.000          -0.000
 -14740012.067 8 -10491010.23645  19965784.557    19965784.5364   19965792.8864
        -0.000          -0.000
 -16936268.181 9 -13188433.79046  18888562.191    18888561.5714   18888569.7154
        -0.000          -0.000
 -12453614.043 9  -9665073.40646  18012967.990    18012967.4234   18012972.9854
        -0.000          -0.000
 -36042295.005 9 -28058879.07048  15878399.539    15878399.9234   15878404.3684
        -0.000          -0.000
 -16029376.863 9 -12481847.92746  17982236.260    17982235.7474   17982241.5824
        -0.000          -0.000
 -36573508.453 9 -28472771.45948  16607244.746    16607244.6244   16607249.4384
        -0.000          -0.000
 -11810709.823 9  -6200926.90746  17976461.428    17976461.0354   17976466.6344
        -0.000          -0.000
 98  5  3 18 48 59.9840000  0  8 24 16  2  5  4  7  9  8            -0.015511504
 -44439595.958 9 -34114794.84748  16268875.607    16268875.4824   16268881.7604
        -0.000          -0.000
 -14916696.454 8 -10628686.33345  19932162.793    19932162.6514   19932170.8524
        -0.000          -0.000
 -17016566.226 9 -13251003.80246  18873282.147    18873281.5594   18873289.4794
        -0.000          -0.000
 -12690293.684 9  -9849499.05046  17967929.219    17967928.6724   17967934.2924
        -0.000          -0.000
 -36192503.689 9 -28175924.76748  15849815.745    15849816.1314   15849820.5824
        -0.000          -0.000
 -16119517.191 9 -12552087.16046  17965083.206    17965082.6914   17965088.5684
        -0.000          -0.000
 -36732456.932 9 -28596627.40748  16576997.788    16576997.7034   16577002.5594
        -0.000          -0.000
 -12042958.433 9  -6381899.80546  17932266.036    17932265.6114   17932271.2884
        -0.000          -0.000
 98  5  3 18 49 29.9840000  0  8 24 16  2  5  4  7  9  8            -0.015610731
 -44660989.323 9 -34287309.10548  16226745.724    16226745.5984   16226751.9134
        -0.000          -0.000
 -15092921.184 8 -10766004.22445  19898628.606    19898628.4764   19898636.0704
        -0.000          -0.000
 -17096557.271 9 -13313334.61146  18858060.292    18858059.8464   18858067.7094
        -0.000          -0.000
 -12926883.527 9 -10033854.74846  17922907.690    17922907.1004   17922912.6544
        -0.000          -0.000
 -36342092.505 9 -28292487.46548  15821349.874    15821350.2774   15821354.7644
        -0.000          -0.000
 -16209632.808 9 -12622307.14746  17947934.755    17947934.2934   17947940.2024
        -0.000          -0.000
 -36890816.921 9 -28720024.80848  16546862.827    16546862.7454   16546867.6394
        -0.000          -0.000
 -12274738.116 9  -6562507.30346  17888159.873    17888159.4654   17888165.1724
        -0.000          -0.000
 98  5  3 18 49 59.9840000  0  8 24 16  2  5  4  7  9  8            -0.015709937
 -44881898.588 9 -34459446.14148  16184707.957    16184707.8704   16184714.2394
        -0.000          -0.000
 -15268696.760 8 -10902972.17145  19865179.370    19865179.2134   19865186.7924
        -0.000          -0.000
 -17176273.787 9 -13375451.45445  18842890.791    18842890.3894   18842898.1764
        -0.000          -0.000
 -13163388.861 9 -10218144.57346  17877902.189    17877901.5374   17877907.0854
        -0.000          -0.000
 -36491101.539 9 -28408598.38548  15792994.325    15792994.7274   15792999.3174
        -0.000          -0.000
 -16299721.348 9 -12692506.03546  17930791.596    17930791.0724   17930797.0794
        -0.000          -0.000
 -37048594.523 9 -28842968.39248  16516838.812    16516838.6914   16516843.5624
        -0.000          -0.000
 -12506065.216 9  -6742762.16946  17844139.639    17844139.2604   17844145.1974
        -0.000          -0.000
 98  5  3 18 50 29.9840000  0  8 24 16  2  5  4  7  9  8            -0.015809121
 -45102315.267 9 -34631199.34548  16142763.949    16142763.9074   16142770.2264
        -0.000          -0.000
 -15444020.629 8 -11039588.12845  19831816.374    19831816.0484   19831823.5444
        -0.000          -0.000
 -17255742.133 9 -13437374.95245  18827768.351    18827767.9974   18827775.7944
        -0.000          -0.000
 -13399803.036 9 -10402363.36546  17832913.926    17832913.3314   17832918.8724
        -0.000          -0.000
 -36639560.892 9 -28524280.98648  15764743.333    15764743.7854   15764748.4394
        -0.000          -0.000
 -16389771.974 9 -12762675.38646  17913655.407    17913654.8944   17913661.0014
        -0.000          -0.000
 -37205795.575 9 -28965462.72748  16486924.505    16486924.3804   16486929.2374
        -0.000          -0.000
 -12736944.790 9  -6922668.30146  17800204.732    17800204.3564   17800210.1984
        -0.000          -0.000
 98  5  3 18 50 59.9840000  0  8 24 16  2  5  4  7  9  8            -0.015908284
 -45322230.436 9 -34802561.75848  16100915.481    16100915.3884   16100921.6804
        -0.000          -0.000
 -15618868.649 8 -11175833.27245  19798544.052    19798543.7944   19798551.0504
        -0.000          -0.000
 -17334957.564 9 -13499101.36045  18812694.181    18812693.8234   18812701.7064
        -0.000          -0.000
 -13636100.193 9 -10586490.99246  17787948.034    17787947.4904   17787952.9014
        -0.000          -0.000
 -36787443.036 9 -28639513.80848  15736602.339    15736602.7664   15736607.3264
        -0.000          -0.000
 -16479758.265 9 -12832794.60746  17896531.664    17896531.0704   17896537.2544
        -0.000          -0.000
 -37362403.287 9 -29087494.70548  16457123.042    16457122.9214   16457127.7974
        -0.000          -0.000
 -12967352.060 9  -7102206.41146  17756359.569    17756359.2684   17756365.1214
        -0.000          -0.000
 98  5  3 18 51 29.9840000  0  8 24 16  2  5  4  7  9  8            -0.016007412
 -45541626.602 9 -34973519.76148  16059165.731    16059165.6114   16059171.9194
        -0.000          -0.000
 -15793218.725 8 -11311690.38945  19765366.161    19765365.9024   19765373.2384
        -0.000          -0.000
 -17413899.187 9 -13560614.41145  18797672.257    18797671.9534   18797679.6624
        -0.000          -0.000
 -13872253.357 9 -10770506.41047  17743009.512    17743009.0414   17743014.4754
        -0.000          -0.000
 -36934718.687 9 -28754274.02948  15708576.744    15708577.1584   15708581.6004
        -0.000          -0.000
 -16569659.362 9 -12902847.45446  17879423.823    17879423.3744   17879429.6184
        -0.000          -0.000
 -37518405.481 9 -29209054.85948  16427436.788    16427436.7024   16427441.5764
        -0.000          -0.000
 -13197255.404 9  -7281351.82946  17712610.461    17712610.1354   17712615.9544
        -0.000          -0.000
 98  5  3 18 51 59.9830000  0  8 24 16  2  5  4  7  9  8            -0.016106486
 -45760489.443 9 -35144062.18248  16017517.486    16017517.3634   16017523.6684
        -0.000          -0.000
 -15967033.947 9 -11447130.76645  19732290.131    19732289.9004   19732297.3534
        -0.000          -0.000
 -17492530.792 9 -13621885.90946  18782709.372    18782708.9914   18782716.6094
        -0.000          -0.000
 -14108219.510 9 -10954376.09847  17698106.494    17698106.0674   17698111.5574
        -0.000          -0.000
 -37081352.630 9 -28868534.22548  15680673.211    15680673.6064   15680678.0514
        -0.000          -0.000
 -16659438.011 9 -12972804.85646  17862339.299    17862338.9604   17862345.1224
        -0.000          -0.000
 -37673774.343 9 -29330121.50348  16397871.048    16397870.9304   16397875.8134
        -0.000          -0.000
 -13426605.761 9  -7460066.36146  17668966.498    17668966.0704   17668971.9264
        -0.000          -0.000
 98  5  3 18 52 29.9830000  0  8 24 16  2  5  4  7  9  8            -0.016205526
 -45978873.390 9 -35314231.45748  15975960.361    15975960.2534   15975966.5014
        -0.000          -0.000
 -16140354.851 9 -11582185.97545  19699308.457    19699307.9534   19699315.5944
        -0.000          -0.000
 -17570854.486 9 -13682917.49246  18767805.066    18767804.6584   18767812.3814
        -0.000          -0.000
 -14344047.016 9 -11138137.76847  17653230.014    17653229.5434   17653235.0744
        -0.000          -0.000
 -37227360.256 9 -28982306.40048  15652888.777    15652889.2004   15652893.7174
        -0.000          -0.000
 -16749131.396 9 -13042695.86446  17845271.399    17845270.9254   17845276.9914
        -0.000          -0.000
 -37828550.087 9 -29450725.98648  16368418.222    16368418.1204   16368422.9674
        -0.000          -0.000
 -13655441.265 9  -7638379.71846  17625420.477    17625420.1154   17625425.8914
        -0.000          -0.000
 98  5  3 18 52 59.9830000  0  8 24 16  2  5  4  7  9  8            -0.016304539
 -46196778.017 9 -35484027.21248  15934494.441    15934494.2994   15934500.4974
        -0.000          -0.000
 -16313180.985 9 -11716855.64645  19666420.885    19666420.2314   19666427.7704
        -0.000          -0.000
 -17648849.875 9 -13743693.22546  18752963.292    18752962.6154   18752970.6584
        -0.000          -0.000
 -14579725.173 9 -11321783.05247  17608381.930    17608381.4914   17608386.9504
        -0.000          -0.000
 -37372712.384 9 -29095567.77548  15625229.155    15625229.5994   15625234.1084
        -0.000          -0.000
 -16838737.809 9 -13112519.05246  17828220.059    17828219.4704   17828225.5544
        -0.000          -0.000
 -37982738.714 9 -29570872.96948  16339077.107    16339076.9924   16339081.8124
        -0.000          -0.000
 -13883763.557 9  -7816293.16046  17581972.282    17581971.8754   17581977.5324
        -0.000          -0.000
 98  5  3 18 53 29.9830000  0  8 24 16  2  5  4  7  9  8            -0.016403521
 -46414179.128 9 -35653430.62348  15893124.304    15893124.1894   15893130.3444
        -0.000          -0.000
 -16485511.339 8 -11851138.96545  19633627.413    19633626.8834   19633634.4614
        -0.000          -0.000
 -17726505.321 9 -13804204.06646  18738185.921    18738185.3154   18738193.5074
        -0.000          -0.000
 -14815239.491 9 -11505300.67747  17563564.906    17563564.4974   17563570.0114
        -0.000          -0.000
 -37517398.045 9 -29208309.83648  15597696.485    15597696.8694   15597701.3254
        -0.000          -0.000
 -16928251.655 9 -13182270.14346  17811186.162    17811185.5534   17811191.7254
        -0.000          -0.000
 -38136322.481 9 -29690548.63048  16309851.040    16309850.9164   16309855.7664
        -0.000          -0.000
 -14111568.998 9  -7993803.86146  17538622.414    17538621.9154   17538627.6024
        -0.000          -0.000
 98  5  3 18 53 59.9830000  0  8 24 16  2  5  4  7  9  8            -0.016502475
 -46631059.626 9 -35822428.36648  15851853.220    15851853.1514   15851859.3914
        -0.000          -0.000
 -16657334.283 8 -11985026.93645  19600930.538    19600929.9794   19600937.8174
        -0.000          -0.000
 -17803832.234 9 -13864458.94046  18723470.999    18723470.4514   18723478.7644
        -0.000          -0.000
 -15050570.722 9 -11688675.63847  17518782.740    17518782.3404   17518787.9334
        -0.000          -0.000
 -37661409.058 9 -29320526.19848  15570292.097    15570292.4714   15570296.9134
        -0.000          -0.000
 -17017672.007 9 -13251948.37346  17794169.874    17794169.4124   17794175.5484
        -0.000          -0.000
 -38289278.085 9 -29809734.82648  16280744.472    16280744.3854   16280749.3174
        -0.000          -0.000
 -14338866.361 9  -8170918.66846  17495369.114    17495368.6784   17495374.3584
        -0.000          -0.000
 98  5  3 18 54 29.9830000  0  8 24 16  2  5  4  7  9  8            -0.016601405
 -46847399.492 9 -35991004.84048  15810684.985    15810684.9614   15810691.2424
        -0.000          -0.000
 -16828632.620 9 -12118506.14945  19568333.243    19568332.8854   19568340.8244
        -0.000          -0.000
 -17880848.850 9 -13924472.01046  18708815.146    18708814.7264   18708823.1774
        -0.000          -0.000
 -15285725.048 9 -11871912.75747  17474034.424    17474033.8494   17474039.4524
        -0.000          -0.000
 -37804746.484 9 -29432217.68948  15543015.864    15543016.2044   15543020.6764
        -0.000          -0.000
 -17107020.411 9 -13321570.54246  17777167.533    17777167.0534   17777173.0784
        -0.000          -0.000
 -38441605.773 9 -29928431.73148  16251757.471    16251757.3634   16251762.3204
        -0.000          -0.000
 -14565660.901 9  -8347641.65646  17452211.546    17452211.0664   17452216.7174
        -0.000          -0.000
 98  5  3 18 54 59.9830000  0  8 24 16  2  5  4  7  9  8            -0.016700317
 -47063200.476 9 -36159161.41348  15769619.361    15769619.3504   15769625.6054
        -0.000          -0.000
 -16999418.824 9 -12251586.25445  19535833.897    19535833.5644   19535841.3554
        -0.000          -0.000
 -17957599.119 9 -13984277.51546  18694210.201    18694209.7674   18694218.2134
        -0.000          -0.000
 -15520724.860 9 -12055029.45347  17429315.323    17429314.7774   17429320.4434
        -0.000          -0.000
 -37947450.157 9 -29543415.35048  15515860.150    15515860.5334   15515865.0304
        -0.000          -0.000
 -17196324.995 9 -13391158.55246  17760173.477    17760172.9784   17760178.9724
        -0.000          -0.000
 -38593327.679 9 -30046656.59948  16222885.760    16222885.6504   16222890.6044
        -0.000          -0.000
 -14791959.562 9  -8523978.25046  17409148.276    17409147.7984   17409153.4604
        -0.000          -0.000
 98  5  3 18 55 29.9830000  0  8 24 16  2  5  4  7  9  8            -0.016799195
 -47278449.643 9 -36326887.99148  15728658.759    15728658.7264   15728665.0004
        -0.000          -0.000
 -17169679.802 8 -12384257.09845  19503434.173    19503433.7844   19503441.7234
        -0.000          -0.000
 -18034085.184 9 -14043877.20346  18679655.452    18679654.9744   18679663.4744
        -0.000          -0.000
 -15755586.538 9 -12238038.53247  17384622.673    17384622.1264   17384627.7114
        -0.000          -0.000
 -38089538.797 9 -29654133.76448  15488821.605    15488821.9624   15488826.4254
        -0.000          -0.000
 -17285590.725 9 -13460716.28446  17743186.692    17743186.2374   17743192.2194
        -0.000          -0.000
 -38744429.561 9 -30164398.33648  16194131.996    16194131.8864   16194136.8524
        -0.000          -0.000
 -15017727.257 9  -8699901.11947  17366186.039    17366185.5604   17366191.2174
        -0.000          -0.000
 98  5  3 18 55 59.9830000  0  8 24 16  2  5  4  7  9  8            -0.016898033
 -47493146.726 9 -36494184.37748  15687803.168    15687803.1304   15687809.4514
        -0.000          -0.000
 -17339393.262 9 -12516501.34045  19471138.743    19471138.3224   19471146.2454
        -0.000          -0.000
 -18110299.177 9 -14103264.86646  18665152.664    18665152.1634   18665160.5694
        -0.000          -0.000
 -15990326.089 9 -12420952.44047  17339953.227    17339952.7014   17339958.3064
        -0.000          -0.000
 -38231014.913 9 -29764374.88748  15461899.546    15461899.9294   15461904.3934
        -0.000          -0.000
 -17374804.903 9 -13530233.85546  17726209.807    17726209.4104   17726215.3864
        -0.000          -0.000
 -38894914.104 9 -30281659.02748  16165495.808    16165495.6704   16165500.5554
        -0.000          -0.000
 -15242953.201 9  -8875401.82547  17323326.925    17323326.4514   17323332.0434
        -0.000          -0.000
 98  5  3 18 56 29.9830000  0  8 24 16  2  5  4  7  9  8            -0.016996700
 -47707090.920 9 -36660894.09648  15647090.906    15647090.8954   15647097.1704
        -0.000          -0.000
 -17508358.892 9 -12648162.81845  19438985.961    19438985.2514   19438993.0744
        -0.000          -0.000
 -18186014.256 9 -14162263.76846  18650744.364    18650744.1584   18650752.6724
        -0.000          -0.000
 -16224762.682 9 -12603630.26247  17295341.440    17295340.9054   17295346.4684
        -0.000          -0.000
 -38371666.733 9 -29873973.70348  15435134.405    15435134.7594   15435139.2144
        -0.000          -0.000
 -17463748.967 9 -13599540.96446  17709284.370    17709283.9484   17709289.9634
        -0.000          -0.000
 -39044596.745 9 -30398294.86748  16137012.054    16137011.9394   16137016.8614
        -0.000          -0.000
 -15467414.443 9  -9050306.67547  17280613.295    17280612.8314   17280618.5224
        -0.000          -0.000
 98  5  3 18 56 59.9830000  0  8 24 16  2  5  4  7  9  8            -0.017095133
 -47920193.581 9 -36826948.08048  15606538.822    15606538.7784   15606545.0264
        -0.000          -0.000
 -17676485.639 9 -12779170.67145  19406992.474    19406991.8094   19406999.6304
        -0.000          -0.000
 -18261109.949 9 -14220780.02646  18636454.350    18636454.0414   18636462.6514
        -0.000          -0.000
 -16458784.718 9 -12785985.06847  17250808.522    17250808.0344   17250813.4964
        -0.000          -0.000
 -38511381.887 9 -29982842.65448  15408547.452    15408547.8444   15408552.3194
        -0.000          -0.000
 -17552292.429 9 -13668535.90146  17692434.919    17692434.6034   17692440.6154
        -0.000          -0.000
 -39193374.751 9 -30514225.79548  16108700.452    16108700.3494   16108705.3554
        -0.000          -0.000
 -15691000.781 9  -9224529.79747  17238066.179    17238065.7854   17238071.4164
        -0.000          -0.000
 98  5  3 18 57 29.9820000  0  8 24 16  2  5  4  7  9  8            -0.017193471
 -48132684.913 9 -36992525.70648  15566102.999    15566102.9814   15566109.2194
        -0.000          -0.000
 -17843989.213 8 -12909692.90545  19375117.448    19375116.8164   19375124.5824
        -0.000          -0.000
 -18335790.863 9 -14278973.10246  18622242.990    18622242.6694   18622251.4504
        -0.000          -0.000
 -16692587.287 9 -12968168.88647  17206317.495    17206316.9254   17206322.2434
        -0.000          -0.000
 -38650362.894 9 -30091139.54948  15382100.251    15382100.6634   15382105.1194
        -0.000          -0.000
 -17640637.200 9 -13737376.03646  17675623.463    17675623.1414   17675629.0444
        -0.000          -0.000
 -39341451.589 9 -30629610.37248  16080522.421    16080522.3264   16080527.3434
        -0.000          -0.000
 -15913932.260 9  -9398242.61547  17195643.664    17195643.2444   17195648.9494
        -0.000          -0.000
 98  5  3 18 57 59.9820000  0  8 24 16  2  5  4  7  9  8            -0.017291774
 -48344657.897 9 -37157699.42148  15525765.848    15525765.8164   15525772.0234
        -0.000          -0.000
 -18010971.999 9 -13039809.34145  19343341.428    19343340.8644   19343348.7114
        -0.000          -0.000
 -18410145.852 9 -14336912.18545  18608093.843    18608093.4854   18608102.4174
        -0.000          -0.000
 -16926245.652 9 -13150240.32547  17161853.711    17161853.1774   17161858.4494
        -0.000          -0.000
 -38788695.316 9 -30198931.04548  15355776.447    15355776.8674   15355781.3414
        -0.000          -0.000
 -17728864.106 9 -13806124.30446  17658834.573    17658834.1454   17658840.0484
        -0.000          -0.000
 -39488927.596 9 -30744526.75048  16052458.663    16052458.5444   16052463.5264
        -0.000          -0.000
 -16136330.656 9  -9571540.06747  17153322.450    17153322.1334   17153327.8554
        -0.000          -0.000
 98  5  3 18 58 29.9820000  0  8 24 16  2  5  4  7  9  8            -0.017390095
 -48556171.187 9 -37322514.94648  15485516.132    15485516.1004   15485522.3524
        -0.000          -0.000
 -18177514.386 9 -13169582.60345  19311649.893    19311649.1934   19311656.8784
        -0.000          -0.000
 -18484238.184 9 -14394646.63645  18593994.525    18593994.2544   18594003.2914
        -0.000          -0.000
 -17159784.971 9 -13332218.98447  17117412.439    17117411.9624   17117417.4364
        -0.000          -0.000
 -38926450.744 9 -30306272.95148  15329562.493    15329562.8844   15329567.3644
        -0.000          -0.000
 -17817045.227 9 -13874836.94246  17642054.366    17642053.8214   17642059.8644
        -0.000          -0.000
 -39635852.619 9 -30859013.81648  16024499.705    16024499.5804   16024504.5844
        -0.000          -0.000
 -16358250.899 9  -9744464.91647  17111092.498    17111092.1474   17111097.8384
        -0.000          -0.000
 98  5  3 18 58 59.9820000  0  8 24 16  2  5  4  7  9  8            -0.017488442
 -48767260.917 9 -37487000.41148  15445347.036    15445347.0094   15445353.2844
        -0.000          -0.000
 -18343661.376 9 -13299047.79545  19280033.208    19280032.3614   19280040.1284
        -0.000          -0.000
 -18558120.305 9 -14452217.27045  18579935.746    18579935.1194   18579944.0394
        -0.000          -0.000
 -17393211.850 9 -13514110.04547  17072992.740    17072992.3434   17072997.8384
        -0.000          -0.000
 -39063681.837 9 -30413206.27448  15303448.241    15303448.6234   15303453.1684
        -0.000          -0.000
 -17905228.273 9 -13943551.06146  17625273.615    17625272.9974   17625279.2634
        -0.000          -0.000
 -39782238.374 9 -30973080.65948  15996643.369    15996643.3144   15996648.2984
        -0.000          -0.000
 -16579738.870 9  -9917052.95547  17068944.693    17068944.3764   17068950.0734
        -0.000          -0.000
 98  5  3 18 59 29.9820000  0  8 24 16  2  5  4  7  9  8            -0.017586807
 -48977893.947 9 -37651130.00348  15405264.895    15405264.8474   15405271.1264
        -0.000          -0.000
 -18509391.350 9 -13428188.02745  19248495.780    19248495.0444   19248502.7234
        -0.000          -0.000
 -18631786.065 9 -14509619.32545  18565917.896    18565917.1034   18565925.9494
        -0.000          -0.000
 -17626512.815 9 -13695902.97847  17028597.098    17028596.6284   17028602.1384
        -0.000          -0.000
 -39200378.874 9 -30519723.44648  15277435.629    15277436.0514   15277440.5854
        -0.000          -0.000
 -17993401.764 9 -14012257.72346  17608494.582    17608494.1724   17608500.4074
        -0.000          -0.000
 -39928060.789 9 -31086708.53048  15968894.327    15968894.2454   15968899.1804
        -0.000          -0.000
 -16800776.306 9 -10089289.89347  17026882.684    17026882.3544   17026888.0444
        -0.000          -0.000
 98  5  3 18 59 59.9820000  0  8 24 16  2  5  4  7  9  8            -0.017685175
 -49188017.506 9 -37814862.61648  15365279.752    15365279.6684   15365285.9304
        -0.000          -0.000
 -18674662.519 9 -13556970.74845  19217045.846    19217045.0174   19217052.5974
        -0.000          -0.000
 -18705216.217 9 -14566837.76645  18551944.558    18551944.1264   18551952.6424
        -0.000          -0.000
 -17859657.835 9 -13877574.40147  16984230.941    16984230.5324   16984235.9944
        -0.000          -0.000
 -39336497.161 9 -30625789.64848  15251533.176    15251533.5734   15251538.1234
        -0.000          -0.000
 -18081529.812 9 -14080928.97546  17591724.578    17591724.1224   17591730.3024
        -0.000          -0.000
 -40073297.322 9 -31199879.87648  15941256.831    15941256.7084   15941261.6434
        -0.000          -0.000
 -17021310.346 9 -10261134.58347  16984916.512    16984916.1574   16984921.8654
        -0.000          -0.000
 98  5  3 19  0 29.9820000  0  8 24 16  2  5  4  7  9  8            -0.017783545
 -49397617.737 9 -37978187.44048  15325394.197    15325394.1004   15325400.3304
        -0.000          -0.000
 -18839445.904 9 -13685373.34745  19185688.346    19185687.6954   19185695.3804
        -0.000          -0.000
 -18778409.257 9 -14623871.47145  18538016.326    18538015.9784   18538024.4404
        -0.000          -0.000
 -18092636.062 9 -14059115.86347  16939896.641    16939896.2844   16939901.7184
        -0.000          -0.000
 -39472008.124 9 -30731382.60948  15225746.264    15225746.7054   15225751.2394
        -0.000          -0.000
 -18169597.894 9 -14149553.50646  17574966.008    17574965.4144   17574971.6104
        -0.000          -0.000
 -40217936.311 9 -31312585.60048  15913732.912    15913732.7924   15913737.8174
        -0.000          -0.000
 -17241308.630 9 -10432561.80447  16943052.159    16943051.8094   16943057.5554
        -0.000          -0.000
 98  5  3 19  0 59.9820000  0  8 24 16  2  5  4  7  9  8            -0.017881934
 -49606702.922 9 -38141110.92248  15285606.592    15285606.5054   15285612.6104
        -0.000          -0.000
 -19003728.978 9 -13813386.10245  19154426.301    19154425.7884   19154433.3974
        -0.000          -0.000
 -18851392.505 9 -14680741.69745  18524127.914    18524127.6944   18524136.3414
        -0.000          -0.000
 -18325483.874 9 -14240555.70147  16895587.166    16895586.7994   16895592.1354
        -0.000          -0.000
 -39606915.018 9 -30836504.86348  15200074.428    15200074.8274   15200079.3384
        -0.000          -0.000
 -18257608.023 9 -14218132.87346  17558218.188    17558217.6994   17558224.0504
        -0.000          -0.000
 -40362003.681 9 -31424845.90648  15886317.840    15886317.7314   15886322.7784
        -0.000          -0.000
 -17460780.424 9 -10603578.76547  16901287.975    16901287.6224   16901293.4084
        -0.000          -0.000
 98  5  3 19  1 29.9820000  0  8 24 16  2  5  4  7  9  8            -0.017980338
 -49815263.883 9 -38303625.92048  15245918.761    15245918.6404   15245924.7304
        -0.000          -0.000
 -19167480.595 9 -13940984.73545  19123265.299    19123264.6904   19123272.4954
        -0.000          -0.000
 -18924157.211 9 -14737441.60045  18510281.445    18510280.9694   18510289.9034
        -0.000          -0.000
 -18558220.393 9 -14421908.78947  16851298.746    16851298.3594   16851303.8164
        -0.000          -0.000
 -39741211.965 9 -30941151.83348  15174518.576    15174518.9994   15174523.5154
        -0.000          -0.000
 -18345550.921 9 -14286659.85746  17541483.268    17541482.8744   17541489.2464
        -0.000          -0.000
 -40505521.472 9 -31536677.96048  15859007.346    15859007.2484   15859012.2524
        -0.000          -0.000
 -17679710.016 9 -10774173.22547  16859627.142    16859626.7934   16859632.4594
        -0.000          -0.000
 98  5  3 19  1 59.9820000  0  8 24 16  2  5  4  7  9  8            -0.018078753
 -50023312.616 9 -38465741.78448  15206328.333    15206328.1984   15206334.3554
        -0.000          -0.000
 -19330692.761 8 -14068163.01645  19092206.597    19092206.1804   19092214.1934
        -0.000          -0.000
 -18996700.594 8 -14793969.06845  18496477.294    18496476.7254   18496485.5964
        -0.000          -0.000
 -18790844.209 9 -14603174.07947  16807031.827    16807031.4944   16807037.0674
        -0.000          -0.000
 -39874905.123 9 -31045328.32448  15149077.613    15149078.0024   15149082.5034
        -0.000          -0.000
 -18433445.448 9 -14355149.16046  17524757.767    17524757.2524   17524763.5144
        -0.000          -0.000
 -40648495.573 9 -31648086.36548  15831800.327    15831800.2434   15831805.2614
        -0.000          -0.000
 -17898107.430 9 -10944353.01447  16818067.492    16818067.0854   16818072.6694
        -0.000          -0.000
 98  5  3 19  2 29.9810000  0  8 24 16  2  5  4  7  9  8            -0.018177113
 -50230779.109 9 -38627403.96648  15166848.645    15166848.5694   15166854.7754
        -0.000          -0.000
 -19493296.795 9 -14194867.43745  19061264.173    19061263.8314   19061271.6614
        -0.000          -0.000
 -19068926.062 9 -14850248.83845  18482733.438    18482732.7414   18482741.8614
        -0.000          -0.000
 -19023280.363 9 -14784293.15247  16762800.762    16762800.4344   16762805.9194
        -0.000          -0.000
 -40007946.571 9 -31148996.99448  15123760.670    15123761.0384   15123765.5034
        -0.000          -0.000
 -18521232.821 9 -14423554.97146  17508052.350    17508051.8874   17508058.0494
        -0.000          -0.000
 -40790833.718 9 -31758999.23448  15804714.293    15804714.1444   15804719.2424
        -0.000          -0.000
 -18115910.951 9 -11114070.03147  16776620.701    16776620.3974   16776626.0774
        -0.000          -0.000
 98  5  3 19  2 59.9810000  0  8 24 16  2  5  4  7  9  8            -0.018275394
 -50437665.198 9 -38788613.88048  15127479.536    15127479.4744   15127485.6344
        -0.000          -0.000
 -19655293.729 9 -14321098.76145  19030437.606    19030436.8634   19030444.4974
        -0.000          -0.000
 -19140794.369 9 -14906250.27745  18469057.229    18469056.6084   18469065.8374
        -0.000          -0.000
 -19255527.308 9 -14965264.78747  16718605.679    16718605.2514   16718610.8434
        -0.000          -0.000
 -40140346.416 9 -31252165.71648  15098565.871    15098566.2004   15098570.6454
        -0.000          -0.000
 -18608906.698 9 -14491872.33946  17491368.698    17491368.0984   17491374.1994
        -0.000          -0.000
 -40932509.494 9 -31869395.97148  15777754.222    15777754.0984   15777759.2684
        -0.000          -0.000
 -18333126.688 9 -11283329.04247  16735286.011    16735285.6624   16735291.3494
        -0.000          -0.000
 98  5  3 19  3 29.9810000  0  8 24 16  2  5  4  7  9  8            -0.018373667
 -50644080.742 9 -38949457.12748  15088200.012    15088199.8774   15088205.9864
        -0.000          -0.000
 -19816822.615 9 -14446965.40245  18999699.392    18999698.9224   18999706.5604
        -0.000          -0.000
 -19212408.879 9 -14962053.98445  18455429.205    18455428.9624   18455438.2574
        -0.000          -0.000
 -19487679.528 9 -15146162.59047  16674428.415    16674428.0644   16674433.7004
        -0.000          -0.000
 -40272212.212 9 -31354918.29348  15073472.600    15073472.9924   15073477.4644
        -0.000          -0.000
 -18696599.348 9 -14560204.33646  17474681.342    17474680.7704   17474687.0544
        -0.000          -0.000
 -41073633.616 9 -31979362.83848  15750899.204    15750899.0704   15750904.2054
        -0.000          -0.000
 -18549860.938 9 -11452212.85447  16694042.883    16694042.4654   16694048.2154
        -0.000          -0.000
 98  5  3 19  3 59.9810000  0  8 24 16  2  5  4  7  9  8            -0.018471948
 -50850046.336 9 -39109949.76348  15049005.981    15049005.9204   15049011.9634
        -0.000          -0.000
 -19977922.635 9 -14572497.84145  18969042.932    18969042.4554   18969049.9904
        -0.000          -0.000
 -19283795.938 9 -15017680.39245  18441845.166    18441844.6664   18441853.9234
        -0.000          -0.000
 -19719732.088 9 -15326982.74447  16630270.439    16630270.0134   16630275.4794
        -0.000          -0.000
 -40403555.847 9 -31457263.98248  15048478.795    15048479.1154   15048483.6234
        -0.000          -0.000
 -18784332.911 9 -14628568.18946  17457986.119    17457985.5994   17457991.9044
        -0.000          -0.000
 -41214214.521 9 -32088906.42448  15724147.526    15724147.3694   15724152.5494
        -0.000          -0.000
 -18766129.188 9 -11620733.57147  16652888.325    16652887.9564   16652893.6814
        -0.000          -0.000
 98  5  3 19  4 29.9810000  0  8 24 16  2  5  4  7  9  8            -0.018570238
 -51055538.422 9 -39270073.42848  15009902.100    15009902.0214   15009908.0624
        -0.000          -0.000
 -20138603.380 9 -14697703.56145  18938466.401    18938465.9934   18938473.4964
        -0.000          -0.000
 -19354948.721 9 -15073124.29945  18428305.697    18428304.7694   18428313.9984
        -0.000          -0.000
 -19951669.977 9 -15507713.54447  16586134.205    16586133.7594   16586139.1894
        -0.000          -0.000
 -40534363.150 9 -31559191.75548  15023586.880    15023587.2474   15023591.8234
        -0.000          -0.000
 -18872086.485 9 -14696947.65646  17441286.945    17441286.6584   17441292.9384
        -0.000          -0.000
 -41354252.431 9 -32198026.88548  15697499.176    15697499.0584   15697504.2594
        -0.000          -0.000
 -18981906.881 9 -11788872.01747  16611827.225    16611826.8514   16611832.5144
        -0.000          -0.000
 98  5  3 19  4 59.9810000  0  8 24 16  2  5  4  7  9  8            -0.018668539
 -51260524.064 9 -39429802.45848  14970894.675    14970894.5754   14970900.6164
        -0.000          -0.000
 -20298835.016 9 -14822559.35145  18907975.003    18907974.8524   18907982.4154
        -0.000          -0.000
 -19425857.411 9 -15128377.98945  18414812.228    18414811.3924   18414820.6524
        -0.000          -0.000
 -20183458.540 9 -15688327.97547  16542026.259    16542025.8644   16542031.3524
        -0.000          -0.000
 -40664588.105 9 -31660665.74248  14998805.901    14998806.2624   14998810.8364
        -0.000          -0.000
 -18959823.580 9 -14765314.27246  17424591.197    17424590.7784   17424597.1144
        -0.000          -0.000
 -41493737.759 9 -32306716.76648  15670956.017    15670955.8934   15670961.1644
        -0.000          -0.000
 -19197153.625 9 -11956596.73147  16570867.154    16570866.7584   16570872.4004
        -0.000          -0.000
 98  5  3 19  5 29.9810000  0  8 24 16  2  5  4  7  9  8            -0.018766843
 -51464972.922 9 -39589113.22948  14931989.300    14931989.1894   14931995.2814
        -0.000          -0.000
 -20458578.494 8 -14947034.76445  18877576.549    18877576.4664   18877584.4704
        -0.000          -0.000
 -19496521.477 9 -15183441.07745  18401365.412    18401364.6014   18401373.7664
        -0.000          -0.000
 -20415074.392 9 -15868807.82747  16497951.186    16497950.7664   16497956.2754
        -0.000          -0.000
 -40794204.825 9 -31761665.77748  14974140.690    14974141.0584   14974145.5954
        -0.000          -0.000
 -19047515.339 9 -14833645.54446  17407904.032    17407903.4794   17407909.9974
        -0.000          -0.000
 -41632668.090 9 -32414974.17548  15644518.420    15644518.3054   15644523.5964
        -0.000          -0.000
 -19411833.657 9 -12123879.86647  16530014.859    16530014.4794   16530020.1554
        -0.000          -0.000
 98  5  3 19  5 59.9810000  0  8 24 16  2  5  4  7  9  8            -0.018865135
 -51668870.847 9 -39747994.69448  14893188.732    14893188.6504   14893194.7754
        -0.000          -0.000
 -20617792.951 9 -15071097.90045  18847279.001    18847278.9604   18847286.8114
        -0.000          -0.000
 -19566926.964 9 -15238302.65945  18387967.800    18387966.9854   18387976.2044
        -0.000          -0.000
 -20646510.731 9 -16049147.80947  16453910.249    16453909.8754   16453915.3884
        -0.000          -0.000
 -40923209.518 9 -31862188.91348  14949591.930    14949592.3034   14949596.7744
        -0.000          -0.000
 -19135136.155 9 -14901921.54546  17391230.542    17391229.9824   17391236.4994
        -0.000          -0.000
 -41771020.243 9 -32522781.07148  15618190.859    15618190.8114   15618196.0694
        -0.000          -0.000
 -19625939.600 9 -12290715.65847  16489271.907    16489271.5054   16489277.0834
        -0.000          -0.000
 98  5  3 19  6 29.9810000  0  8 24 16  2  5  4  7  9  8            -0.018963414
 -51872225.984 9 -39906453.21848  14854491.474    14854491.4004   14854497.4654
        -0.000          -0.000
 -20776474.969 9 -15194746.21545  18817083.141    18817082.8154   18817090.6244
        -0.000          -0.000
 -19637078.926 8 -15292966.72845  18374618.378    18374617.6764   18374626.8734
        -0.000          -0.000
 -20877788.722 9 -16229364.40147  16409899.390    16409899.1044   16409904.6814
        -0.000          -0.000
 -41051622.657 9 -31962251.10248  14925155.766    14925156.0694   14925160.5304
        -0.000          -0.000
 -19222697.864 9 -14970151.52746  17374568.404    17374567.8064   17374574.2304
        -0.000          -0.000
 -41908796.693 9 -32630139.36548  15591972.946    15591972.8624   15591978.0464
        -0.000          -0.000
 -19839484.679 9 -12457114.40247  16448635.686    16448635.2474   16448640.7624
        -0.000          -0.000
 98  5  3 19  6 59.9810000  0  8 24 16  2  5  4  7  9  8            -0.019061663
 -52075038.354 9 -40064488.80848  14815897.425    14815897.4184   14815903.5074
        -0.000          -0.000
 -20934583.567 9 -15317947.68145  18786996.260    18786995.7744   18787003.5784
        -0.000          -0.000
 -19706965.994 9 -15347424.38745  18361319.295    18361318.7734   18361327.9714
        -0.000          -0.000
 -21108895.521 9 -16409447.60547  16365921.241    16365920.8994   16365926.4334
        -0.000          -0.000
 -41179439.315 9 -32061848.50848  14900833.044    14900833.3484   14900837.7924
        -0.000          -0.000
 -19310188.348 9 -15038325.99046  17357919.688    17357918.9444   17357925.3214
        -0.000          -0.000
 -42045969.810 9 -32737027.53248  15565869.806    15565869.7134   15565874.8814
        -0.000          -0.000
 -20052454.769 9 -12623065.12947  16408108.873    16408108.4034   16408113.8594
        -0.000          -0.000
 98  5  3 19  7 29.9800000  0  8 24 16  2  5  4  7  9  8            -0.019159866
 -52277286.561 9 -40222084.78148  14777410.939    14777410.9314   14777416.9344
        -0.000          -0.000
 -21092101.348 9 -15440688.78945  18757021.634    18757021.1354   18757028.4384
        -0.000          -0.000
 -19776577.716 9 -15401667.50945  18348072.810    18348072.1844   18348081.6334
        -0.000          -0.000
 -21339817.471 9 -16589386.75947  16321978.363    16321977.9004   16321983.3934
        -0.000          -0.000
 -41306664.932 9 -32160985.34548  14876622.759    14876623.0784   14876627.5964
        -0.000          -0.000
 -19397608.087 9 -15106445.30146  17341284.050    17341283.3894   17341289.9944
        -0.000          -0.000
 -42182530.709 9 -32843438.63948  15539883.112    15539882.9634   15539888.2214
        -0.000          -0.000
 -20264838.487 9 -12788558.90447  16367693.477    16367693.0424   16367698.5874
        -0.000          -0.000
 98  5  3 19  7 59.9800000  0  8 24 16  2  5  4  7  9  8            -0.019258028
 -52478976.777 9 -40379245.95048  14739030.641    14739030.5524   14739036.4954
        -0.000          -0.000
 -21249052.268 9 -15562988.14045  18727154.814    18727154.3724   18727161.6774
        -0.000          -0.000
 -19845906.398 9 -15455690.02345  18334880.074    18334879.5674   18334888.9704
        -0.000          -0.000
 -21570549.873 9 -16769178.21747  16278071.379    16278070.9864   16278076.4594
        -0.000          -0.000
 -41433306.769 9 -32259667.29348  14852523.602    14852523.9524   14852528.4834
        -0.000          -0.000
 -19484965.929 9 -15174516.41646  17324660.410    17324659.8674   17324666.3394
        -0.000          -0.000
 -42318482.347 9 -32949374.99948  15514012.336    15514012.2434   15514017.5294
        -0.000          -0.000
 -20476651.549 9 -12953608.03247  16327386.750    16327386.3464   16327391.9124
        -0.000          -0.000
 98  5  3 19  8 29.9800000  0  8 24 16  2  5  4  7  9  8            -0.019356151
 -52680108.627 9 -40535972.02848  14700756.488    14700756.4084   14700762.2954
        -0.000          -0.000
 -21405449.062 9 -15684855.77145  18697393.500    18697392.8654   18697400.4434
        -0.000          -0.000
 -19914955.504 8 -15509494.71645  18321740.368    18321739.8544   18321749.6444
        -0.000          -0.000
 -21801089.281 9 -16948819.28847  16234201.222    16234200.8074   16234206.1454
        -0.000          -0.000
 -41559366.221 9 -32357895.43048  14828535.228    14828535.5994   14828540.1584
        -0.000          -0.000
 -19572265.218 9 -15242541.87646  17308048.095    17308047.4784   17308053.9004
        -0.000          -0.000
 -42453840.575 9 -33054848.96248  15488254.590    15488254.4944   15488259.7284
        -0.000          -0.000
 -20687884.438 9 -13118205.07847  16287190.312    16287189.9134   16287195.5904
        -0.000          -0.000
 98  5  3 19  8 59.9800000  0  8 24 16  2  5  4  7  9  8            -0.019454244
 -52880681.592 9 -40692262.61548  14662588.636    14662588.5614   14662594.5474
        -0.000          -0.000
 -21561304.418 9 -15806301.48545  18667735.246    18667734.5364   18667742.1234
        -0.000          -0.000
 -19983724.497 8 -15563081.17945  18308653.898    18308653.6324   18308663.4484
        -0.000          -0.000
 -22031434.642 9 -17128309.15147  16190367.781    16190367.4924   16190372.8444
        -0.000          -0.000
 -41684843.314 9 -32455669.78848  14804657.761    14804658.0994   14804662.6334
        -0.000          -0.000
 -19659505.056 9 -15310521.01546  17291446.743    17291446.1414   17291452.8804
        -0.000          -0.000
 -42588628.771 9 -33159878.74548  15462605.316    15462605.1214   15462610.3624
        -0.000          -0.000
 -20898542.528 9 -13282354.21447  16247103.376    16247102.9744   16247108.5904
        -0.000          -0.000
 98  5  3 19  9 29.9800000  0  8 24 16  2  5  4  7  9  8            -0.019552281
 -53080637.670 9 -40848072.50948  14624538.199    14624538.1234   14624544.1004
        -0.000          -0.000
 -21716593.857 9 -15927306.19845  18638184.687    18638184.0734   18638191.5514
        -0.000          -0.000
 -20052162.260 8 -15616409.49045  18295631.105    18295630.6494   18295640.5624
        -0.000          -0.000
 -22261536.271 9 -17307609.09747  16146581.074    16146580.6844   16146585.9354
        -0.000          -0.000
 -41809684.188 9 -32552948.38548  14780901.313    14780901.6654   14780906.1834
        -0.000          -0.000
 -19746632.678 9 -15378412.72146  17274866.993    17274866.4884   17274872.9584
        -0.000          -0.000
 -42722808.005 9 -33264434.01048  15437071.783    15437071.6574   15437076.8074
        -0.000          -0.000
 -21108571.602 9 -13446013.20347  16207136.242    16207135.8044   16207141.3774
        -0.000          -0.000
 98  5  3 19  9 59.9800000  0  8 24 16  2  5  4  7  9  8            -0.019650257
 -53279984.231 9 -41003407.44748  14586603.847    14586603.7144   14586609.6424
        -0.000          -0.000
 -21871304.608 9 -16047860.00745  18608744.125    18608743.6554   18608750.9854
        -0.000          -0.000
 -20120248.092 8 -15669463.62645  18282675.012    18282674.3984   18282684.4064
        -0.000          -0.000
 -22491385.444 9 -17486712.30847  16102842.265    16102841.7154   16102847.0434
        -0.000          -0.000
 -41933858.258 9 -32649707.39248  14757271.801    14757272.1234   14757276.6454
        -0.000          -0.000
 -19833621.123 9 -15446195.95746  17258313.764    17258313.1494   17258319.5734
        -0.000          -0.000
 -42856347.741 9 -33368490.95948  15411660.079    15411659.8904   15411665.0594
        -0.000          -0.000
 -21317951.726 9 -13609166.52547  16167292.426    16167291.9874   16167297.6864
        -0.000          -0.000
 98  5  3 19 10 29.9800000  0  8 24 16  2  5  4  7  9  8            -0.019748197
 -53478764.657 9 -41158301.24448  14548777.137    14548776.9814   14548782.9334
        -0.000          -0.000
 -22025473.071 9 -16167991.25845  18579406.429    18579406.3934   18579413.5954
        -0.000          -0.000
 -20188024.413 8 -15722276.54745  18269777.987    18269777.3264   18269787.2384
        -0.000          -0.000
 -22721033.917 9 -17665659.13847  16059141.430    16059140.9184   16059146.3774
        -0.000          -0.000
 -42057405.351 9 -32745977.86148  14733761.452    14733761.8194   14733766.3694
        -0.000          -0.000
 -19920505.262 9 -15513897.94946  17241780.200    17241779.6154   17241786.1264
        -0.000          -0.000
 -42989289.364 9 -33472081.85748  15386362.051    15386361.9134   15386367.0814
        -0.000          -0.000
 -21526719.409 9 -13771842.62547  16127565.275    16127564.8394   16127570.4574
        -0.000          -0.000
 98  5  3 19 10 59.9800000  0  8 24 16  2  5  4  7  9  8            -0.019846076
 -53676942.825 9 -41312725.75548  14511064.970    14511064.8994   14511070.8484
        -0.000          -0.000
 -22179058.485 9 -16287668.20445  18550180.078    18550180.0984   18550187.1964
        -0.000          -0.000
 -20255460.657 8 -15774824.50745  18256945.439    18256944.5514   18256954.6584
        -0.000          -0.000
 -22950439.028 9 -17844416.34747  16015487.056    16015486.5394   16015491.9764
        -0.000          -0.000
 -42180295.826 9 -32841736.67448  14710376.247    14710376.5384   14710381.0854
        -0.000          -0.000
 -20007258.841 9 -15581498.16846  17225271.693    17225270.9924   17225277.5784
        -0.000          -0.000
 -43121594.905 9 -33575177.10848  15361185.154    15361185.0134   15361190.1774
        -0.000          -0.000
 -21734833.260 9 -13934009.23947  16087962.536    16087962.0764   16087967.6554
        -0.000          -0.000
 98  5  3 19 11 29.9800000  0  8 24 16  2  5  4  7  9  8            -0.019943907
 -53874550.785 9 -41466705.94848  14473461.365    14473461.2914   14473467.2304
        -0.000          -0.000
 -22332081.248 9 -16406906.70145  18521061.007    18521060.8864   18521067.6904
        -0.000          -0.000
 -20322592.618 8 -15827135.35545  18244170.593    18244169.7044   18244179.9974
        -0.000          -0.000
 -23179629.738 9 -18023006.48447  15971873.552    15971872.9824   15971878.4444
        -0.000          -0.000
 -42302562.634 9 -32937009.51448  14687109.628    14687109.9454   14687114.4484
        -0.000          -0.000
 -20093917.843 9 -15649024.73846  17208781.086    17208780.3394   17208786.9554
        -0.000          -0.000
 -43253277.503 9 -33677786.94248  15336126.832    15336126.6904   15336131.8104
        -0.000          -0.000
 -21942315.964 9 -14095684.06647  16048479.906    16048479.4294   16048485.0174
        -0.000          -0.000
 98  5  3 19 11 59.9800000  0  8 24 16  2  5  4  7  9  8            -0.020041693
 -54071595.083 9 -41620246.91948  14435964.967    14435964.9304   14435970.9244
        -0.000          -0.000
 -22484527.268 9 -16525695.80645  18492051.194    18492051.0904   18492058.1724
        -0.000          -0.000
 -20389433.356 8 -15879219.27045  18231451.563    18231450.6684   18231461.0984
        -0.000          -0.000
 -23408614.244 9 -18201435.94047  15928299.235    15928298.6694   15928304.0974
        -0.000          -0.000
 -42424220.615 9 -33031807.93548  14663958.845    14663959.2024   14663963.6784
        -0.000          -0.000
 -20180491.240 9 -15716484.58946  17192306.719    17192306.0544   17192312.4244
        -0.000          -0.000
 -43384346.271 9 -33779918.46948  15311185.318    15311185.1874   15311190.2684
        -0.000          -0.000
 -22149182.957 9 -14256879.10247  16009114.383    16009113.8724   16009119.4424
        -0.000          -0.000
 98  5  3 19 12 29.9790000  0  8 24 16  2  5  4  7  9  8            -0.020139416
 -54268019.404 9 -41773304.78648  14398586.591    14398586.5564   14398592.5614
        -0.000          -0.000
 -22636360.003 9 -16644007.03245  18463158.025    18463158.1604   18463165.4064
        -0.000          -0.000
 -20455964.464 8 -15931061.91245  18218791.286    18218790.5844   18218800.8144
        -0.000          -0.000
 -23637337.577 9 -18379661.87447  15884774.448    15884773.9504   15884779.4334
        -0.000          -0.000
 -42545245.810 9 -33126113.27048  14640928.545    14640928.8964   14640933.3664
        -0.000          -0.000
 -20266956.282 9 -15783859.97146  17175853.047    17175852.3254   17175858.7224
        -0.000          -0.000
 -43514779.538 9 -33881554.79648  15286364.695    15286364.5304   15286369.6754
        -0.000          -0.000
 -22355392.395 9 -14417561.76447  15969874.049    15969873.4974   15969878.9644
        -0.000          -0.000
 98  5  3 19 12 59.9790000  0  8 24 16  2  5  4  7  9  8            -0.020237090
 -54463847.854 9 -41925898.34748  14361321.667    14361321.6544   14361327.5774
        -0.000          -0.000
 -22787590.571 9 -16761848.99945  18434380.275    18434380.1444   18434387.0334
        -0.000          -0.000
 -20522209.028 8 -15982681.33645  18206185.524    18206184.8504   18206194.9034
        -0.000          -0.000
 -23865813.949 9 -18557695.38447  15841296.784    15841296.2494   15841301.7614
        -0.000          -0.000
 -42665649.695 9 -33219934.47548  14618016.438    14618016.7884   14618021.2244
        -0.000          -0.000
 -20353329.964 9 -15851164.20346  17159416.445    17159415.8344   17159422.4794
        -0.000          -0.000
 -43644588.722 9 -33982704.82348  15261662.797    15261662.6514   15261667.7744
        -0.000          -0.000
 -22560961.826 9 -14577745.70347  15930755.422    15930754.9784   15930760.3834
        -0.000          -0.000
 98  5  3 19 13 29.9790000  0  8 24 16  2  5  4  7  9  8            -0.020334700
 -54659044.336 9 -42077999.45848  14324177.056    14324176.9494   14324182.8354
        -0.000          -0.000
 -22938193.828 9 -16879202.19445  18405721.531    18405721.0854   18405728.3964
        -0.000          -0.000
 -20588143.291 9 -16034058.87045  18193639.168    18193638.1654   18193648.3024
        -0.000          -0.000
 -24094009.711 9 -18735510.23747  15797872.451    15797871.9604   15797877.4594
        -0.000          -0.000
 -42785404.734 9 -33313250.09048  14595227.796    14595228.1244   14595232.5924
        -0.000          -0.000
 -20439574.317 9 -15918367.65246  17143004.496    17143003.9254   17143010.8584
        -0.000          -0.000
 -43773745.892 9 -34083346.79448  15237084.943    15237084.8354   15237090.0194
        -0.000          -0.000
 -22765863.100 9 -14737409.03547  15891763.933    15891763.5024   15891768.9084
        -0.000          -0.000
 98  5  3 19 13 59.9790000  0  8 24 16  2  5  4  7  9  8            -0.020432259
 -54853626.475 9 -42229621.86048  14287149.290    14287149.1634   14287155.0524
        -0.000          -0.000
 -23088192.157 9 -16996083.98945  18377177.764    18377177.4354   18377184.6744
        -0.000          -0.000
 -20653783.305 9 -16085207.17345  18181148.551    18181147.5234   18181157.5974
        -0.000          -0.000
 -24321936.221 9 -18913115.28547  15754499.591    15754498.9984   15754504.3994
        -0.000          -0.000
 -42904529.088 9 -33406074.25448  14572559.175    14572559.4974   14572564.0144
        -0.000          -0.000
 -20525711.849 9 -15985487.87546  17126613.091    17126612.5134   17126619.4634
        -0.000          -0.000
 -43902279.157 9 -34183502.60348  15212625.931    15212625.7594   15212631.0724
        -0.000          -0.000
 -22970111.821 9 -14896563.86647  15852896.634    15852896.2384   15852901.7334
        -0.000          -0.000
 98  5  3 19 14 29.9790000  0  8 24 16  2  5  4  7  9  8            -0.020529752
 -55047566.748 9 -42380744.10848  14250243.619    14250243.5224   14250249.4434
        -0.000          -0.000
 -23237577.913 9 -17112488.45945  18348750.879    18348750.4134   18348757.3504
        -0.000          -0.000
 -20719099.959 8 -16136103.50245  18168719.335    18168717.8684   18168728.3704
        -0.000          -0.000
 -24549561.847 9 -19090485.87247  15711183.899    15711183.2844   15711188.6824
        -0.000          -0.000
 -43022999.448 9 -33498388.81548  14550014.965    14550015.2944   14550019.8274
        -0.000          -0.000
 -20611734.016 9 -16052518.19346  17110243.820    17110243.2154   17110249.8824
        -0.000          -0.000
 -44030165.497 9 -34283154.30748  15188289.980    15188289.8464   15188295.1024
        -0.000          -0.000
 -23173680.923 9 -15055189.12247  15814158.695    15814158.2964   15814163.9574
        -0.000          -0.000
 98  5  3 19 14 59.9790000  0  8 24 16  2  5  4  7  9  8            -0.020627184
 -55240883.464 9 -42531380.47348  14213456.605    14213456.5294   14213462.4474
        -0.000          -0.000
 -23386377.538 9 -17228436.20745  18320435.382    18320434.7784   18320441.5824
        -0.000          -0.000
 -20784094.261 8 -16186748.63145  18156351.394    18156350.1504   18156360.6024
        -0.000          -0.000
 -24776925.239 9 -19267652.12647  15667918.024    15667917.4964   15667922.9334
        -0.000          -0.000
 -43140850.472 9 -33590220.78148  14527588.656    14527588.9794   14527593.5364
        -0.000          -0.000
 -20697660.685 9 -16119474.08646  17093892.628    17093891.8254   17093898.6614
        -0.000          -0.000
 -44157414.649 9 -34382309.51648  15164075.358    15164075.1794   15164080.3924
        -0.000          -0.000
 -23376606.234 9 -15213312.72247  15775543.305    15775542.8794   15775548.4554
        -0.000          -0.000
 98  5  3 19 15 29.9790000  0  8 24 16  2  5  4  7  9  8            -0.020724548
 -55433556.329 9 -42681515.13148  14176792.155    14176792.0414   14176797.9534
        -0.000          -0.000
 -23534591.784 8 -17343927.83345  18292230.877    18292230.4324   18292237.5784
        -0.000          -0.000
 -20848747.523 9 -16237128.03945  18144048.460    18144047.2184   18144057.6134
        -0.000          -0.000
 -25004025.035 9 -19444612.97847  15624702.306    15624701.8044   15624707.2104
        -0.000          -0.000
 -43258089.579 9 -33681575.92848  14505278.817    14505279.1244   14505283.6554
        -0.000          -0.000
 -20783494.411 9 -16186357.54646  17077558.917    17077558.2724   17077565.1034
        -0.000          -0.000
 -44284014.245 9 -34480958.58248  15139984.281    15139984.0974   15139989.2324
        -0.000          -0.000
 -23578886.186 9 -15370933.45147  15737050.480    15737050.1074   15737055.7404
        -0.000          -0.000
 98  5  3 19 15 59.9790000  0  8 24 16  2  5  4  7  9  8            -0.020821834
 -55625561.064 9 -42831129.16748  14140254.802    14140254.7054   14140260.6004
        -0.000          -0.000
 -23682197.578 9 -17458945.30345  18264142.288    18264141.8384   18264148.9484
        -0.000          -0.000
 -20913042.347 8 -16287228.10645  18131813.817    18131812.7074   18131822.6684
        -0.000          -0.000
 -25230839.242 9 -19621351.29947  15581541.049    15581540.5444   15581545.8144
        -0.000          -0.000
 -43374686.543 9 -33772430.69848  14483091.155    14483091.4544   14483095.9374
        -0.000          -0.000
 -20869214.669 9 -16253152.59146  17061246.862    17061246.3954   17061253.0714
        -0.000          -0.000
 -44409932.793 9 -34579076.94348  15116022.742    15116022.5854   15116027.7634
        -0.000          -0.000
 -23780502.506 9 -15528037.06547  15698684.223    15698683.8474   15698689.4434
        -0.000          -0.000
 98  5  3 19 16 29.9790000  0  8 24 16  2  5  4  7  9  8            -0.020919065
 -55816925.142 9 -42980244.00148  14103839.335    14103839.2854   14103845.1614
        -0.000          -0.000
 -23829221.954 9 -17573509.72745  18236164.377    18236163.9564   18236171.2664
        -0.000          -0.000
 -20977011.839 9 -16337074.69145  18119640.712    18119639.6044   18119649.6794
        -0.000          -0.000
 -25457399.030 9 -19797891.36747  15538427.965    15538427.5014   15538432.8084
        -0.000          -0.000
 -43490667.638 9 -33862805.57148  14461020.674    14461020.9544   14461025.4564
        -0.000          -0.000
 -20954833.481 9 -16319868.60346  17044954.314    17044953.6944   17044960.3324
        -0.000          -0.000
 -44535193.381 9 -34676682.62348  15092186.433    15092186.2974   15092191.4474
        -0.000          -0.000
 -23981479.163 9 -15684642.23947  15660439.662    15660439.2834   15660444.8944
        -0.000          -0.000
 98  5  3 19 16 59.9790000  0  8 24 16  2  5  4  7  9  8            -0.021016246
 -56007668.812 9 -43128875.38848  14067542.019    14067541.9644   14067547.7444
        -0.000          -0.000
 -23975657.589 9 -17687615.38045  18208298.493    18208298.1484   18208305.5454
        -0.000          -0.000
 -21040671.680 9 -16386680.02145  18107526.494    18107525.7914   18107535.9024
        -0.000          -0.000
 -25683706.705 9 -19974234.99347  15495362.970    15495362.5744   15495367.8034
        -0.000          -0.000
 -43606033.391 9 -33952700.95548  14439067.249    14439067.5524   14439072.0684
        -0.000          -0.000
 -21040346.177 9 -16386501.93246  17028681.720    17028681.1604   17028687.8464
        -0.000          -0.000
 -44659810.027 9 -34773786.52148  15068472.728    15068472.5744   15068477.6744
        -0.000          -0.000
 -24181820.335 9 -15840752.23247  15622316.068    15622315.6654   15622321.2484
        -0.000          -0.000
 98  5  3 19 17 29.9780000  0  8 24 16  2  5  4  7  9  8            -0.021113372
 -56197793.918 9 -43277024.78648  14031362.357    14031362.2804   14031368.0524
        -0.000          -0.000
 -24121475.313 9 -17801239.59045  18180549.987    18180549.8874   18180557.2734
        -0.000          -0.000
 -21104032.433 9 -16436052.25145  18095469.595    18095468.9764   18095478.9954
        -0.000          -0.000
 -25909718.191 9 -20150347.81247  15452354.363    15452353.9184   15452359.2124
        -0.000          -0.000
 -43720749.836 9 -34042090.39148  14417237.420    14417237.7244   14417242.2284
        -0.000          -0.000
 -21125735.438 9 -16453039.06246  17012432.588    17012432.2284   17012438.9274
        -0.000          -0.000
 -44783794.995 9 -34870398.21248  15044879.138    15044878.9974   15044884.1274
        -0.000          -0.000
 -24381485.421 9 -15996335.39747  15584321.131    15584320.6904   15584326.2924
        -0.000          -0.000
 98  5  3 19 17 59.9780000  0  8 24 16  2  5  4  7  9  8            -0.021210452
 -56387330.308 9 -43424715.44248  13995294.678    13995294.6394   13995300.4694
        -0.000          -0.000
 -24266672.199 9 -17914380.01145  18152920.071    18152919.9254   18152927.2254
        -0.000          -0.000
 -21167102.508 9 -16485198.02645  18083468.324    18083467.4064   18083477.5454
        -0.000          -0.000
 -26135432.352 9 -20326228.94247  15409402.380    15409401.9634   15409407.2964
        -0.000          -0.000
 -43834812.502 9 -34130970.37848  14395531.967    14395532.2914   14395536.7674
        -0.000          -0.000
 -21210993.065 9 -16519473.63846  16996208.812    16996208.4494   16996214.9814
        -0.000          -0.000
 -44907179.520 9 -34966542.02048  15021399.814    15021399.6324   15021404.8624
        -0.000          -0.000
 -24580481.885 9 -16151397.56647  15546453.251    15546452.8354   15546458.4674
        -0.000          -0.000
 98  5  3 19 18 29.9780000  0  7 24 16  5  4  7  9  8               -0.021307291
 -56576276.822 9 -43571946.45448  13959339.338    13959339.3104   13959345.1014
        -0.000          -0.000
 -24411235.677 9 -18027026.84745  18125410.758    18125410.2894   18125417.3924
        -0.000          -0.000
 -26360837.862 9 -20501869.57247  15366509.268    15366508.6984   15366514.0474
        -0.000          -0.000
 -43948225.918 9 -34219344.46548  14373950.026    14373950.3714   14373954.8884
        -0.000          -0.000
 -21296121.082 9 -16585807.19746  16980009.447    16980009.1044   16980015.7454
        -0.000          -0.000
 -45029980.209 9 -35062230.88048  14998031.605    14998031.4694   14998036.7174
        -0.000          -0.000
 -24778790.177 9 -16305923.49547  15508716.484    15508716.0194   15508721.5564
        -0.000          -0.000
 98  5  3 19 18 59.9780000  0  7 24 16  5  4  7  9  8               -0.021404328
 -56764619.557 9 -43718706.99248  13923498.863    13923498.8624   13923504.6364
        -0.000          -0.000
 -24555151.420 9 -18139168.97845  18098024.498    18098023.9884   18098031.0154
        -0.000          -0.000
 -26585924.398 9 -20677261.65947  15323676.686    15323676.1104   15323681.4414
        -0.000          -0.000
 -44060994.693 9 -34307216.23848  14352490.815    14352491.1574   14352495.7024
        -0.000          -0.000
 -21381131.388 9 -16652049.04546  16963832.479    16963832.1834   16963839.0464
        -0.000          -0.000
 -45152205.168 9 -35157471.13448  14974773.006    14974772.8414   14974778.0444
        -0.000          -0.000
 -24976403.987 9 -16459908.28247  15471111.809    15471111.3824   15471116.7744
        -0.000          -0.000
 98  5  3 19 19 29.9780000  0  7 24 16  5  4  7  9  8               -0.021501292
 -56952306.099 9 -43864956.22348  13887783.343    13887783.2784   13887789.0684
        -0.000          -0.000
 -24698396.894 9 -18250788.79745  18070765.867    18070765.1804   18070772.3944
        -0.000          -0.000
 -26810665.237 9 -20852384.37147  15280909.979    15280909.3774   15280914.7414
        -0.000          -0.000
 -44173097.697 9 -34394569.23348  14331158.297    14331158.6254   14331163.1744
        -0.000          -0.000
 -21465986.764 9 -16718170.16046  16947685.000    16947684.6424   16947691.6304
        -0.000          -0.000
 -45273800.346 9 -35252220.65048  14951634.160    14951634.0394   14951639.2554
        -0.000          -0.000
 -25173279.168 9 -16613317.51347  15433647.713    15433647.2484   15433652.6674
        -0.000          -0.000
 98  5  3 19 19 59.9780000  0  7 24 16  5  4  7  9  8               -0.021598155
 -57139305.461 9 -44010669.98048  13852198.454    13852198.4124   13852204.2364
        -0.000          -0.000
 -24840980.663 9 -18361893.04645  18043633.015    18043632.3834   18043639.4244
        -0.000          -0.000
 -27035085.606 9 -21027257.35447  15238204.150    15238203.5814   15238208.9234
        -0.000          -0.000
 -44284545.329 9 -34481411.53348  14309950.502    14309950.8674   14309955.3904
        -0.000          -0.000
 -21550681.402 9 -16784166.06546  16931568.474    16931568.0094   16931574.8074
        -0.000          -0.000
 -45394738.327 9 -35346458.05548  14928620.402    14928620.2714   14928625.5254
        -0.000          -0.000
 -25369416.312 9 -16766151.62947  15396324.022    15396323.5674   15396328.9284
        -0.000          -0.000
 98  5  3 19 20 29.9780000  0  7 24 16  5  4  7  9  8               -0.021694916
 -57325646.810 9 -44155871.00648  13816738.982    13816738.8714   13816744.6614
        -0.000          -0.000
 -24982955.524 9 -18472522.80545  18016616.353    18016615.6964   18016622.6624
        -0.000          -0.000
 -27259252.802 9 -21201933.06947  15195546.558    15195545.9424   15195551.3134
        -0.000          -0.000
 -44395403.965 9 -34567794.88448  14288854.853    14288855.2014   14288859.7004
        -0.000          -0.000
 -21635268.669 9 -16850078.26446  16915471.976    16915471.5234   16915478.3324
        -0.000          -0.000
 -45515042.653 9 -35440201.71248  14905727.307    14905727.1404   14905732.4854
        -0.000          -0.000
 -25564854.711 9 -16918441.29347  15359133.371    15359132.9144   15359138.2844
        -0.000          -0.000
 98  5  3 19 20 59.9780000  0  7 24 16  5  4  7  9  8               -0.021791575
 -57511343.095 9 -44300569.38848  13781402.222    13781402.0644   13781407.8024
        -0.000          -0.000
 -25124346.326 8 -18582697.43345  17989710.755    17989710.0424   17989716.8464
        -0.000          -0.000
 -27483181.506 9 -21376422.95347  15152934.309    15152933.7424   15152939.0844
        -0.000          -0.000
 -44505696.386 9 -34653737.03948  14267866.894    14267867.2314   14267871.7464
        -0.000          -0.000
 -21719760.429 9 -16915916.05646  16899393.410    16899393.1644   16899400.2074
        -0.000          -0.000
 -45634707.435 9 -35533447.01848  14882955.861    14882955.7144   14882961.0454
        -0.000          -0.000
 -25759616.514 9 -17070203.74247  15322071.398    15322070.9514   15322076.2444
        -0.000          -0.000
 98  5  3 19 21 29.9780000  0  7 24 16  5  4  7  9  8               -0.021888125
 -57696396.119 9 -44444766.53448  13746187.878    13746187.6624   13746193.3504
        -0.000          -0.000
 -25265154.369 8 -18692417.99245  17962915.724    17962915.2234   17962921.8494
        -0.000          -0.000
 -27706867.558 9 -21550723.76047  15110368.282    15110367.6304   15110372.9904
        -0.000          -0.000
 -44615416.701 9 -34739233.39548  14246987.758    14246988.1354   14246992.5934
        -0.000          -0.000
 -21804130.488 9 -16981659.04146  16883338.119    16883337.9584   16883345.0564
        -0.000          -0.000
 -45753717.073 9 -35626181.84448  14860309.099    14860308.9324   14860314.3234
        -0.000          -0.000
 -25953703.288 9 -17221440.17747  15285137.905    15285137.4294   15285142.8054
        -0.000          -0.000
 98  5  3 19 21 59.9780000  0  7 24 16  5  4  7  9  8               -0.021984571
 -57880804.586 9 -44588461.40348  13711096.046    13711095.8164   13711101.5444
        -0.000          -0.000
 -25405355.323 9 -18801665.48145  17936236.302    17936235.6134   17936242.4594
        -0.000          -0.000
 -27930288.797 9 -21724818.19247  15067852.555    15067851.9434   15067857.2624
        -0.000          -0.000
 -44724555.811 9 -34824276.84048  14226219.320    14226219.6234   14226224.0824
        -0.000          -0.000
 -21888379.640 9 -17047307.77846  16867306.151    16867305.9274   16867313.0584
        -0.000          -0.000
 -45872081.090 9 -35718413.55448  14837785.213    14837785.0554   14837790.3814
        -0.000          -0.000
 -26147110.198 9 -17372146.84547  15248333.729    15248333.2794   15248338.6474
        -0.000          -0.000
 98  5  3 19 22 29.9780000  0  7 24 16  5  4  7  9  8               -0.022080944
 -58064592.983 9 -44731673.12248  13676122.162    13676121.9484   13676127.7324
        -0.000          -0.000
 -25544954.556 9 -18910444.09645  17909671.352    17909670.6824   17909677.4734
        -0.000          -0.000
 -28153414.838 9 -21898682.61147  15025393.024    15025392.4374   15025397.7934
        -0.000          -0.000
 -44833125.683 9 -34908876.74848  14205559.142    14205559.4664   14205564.0074
        -0.000          -0.000
 -21972528.559 9 -17112878.45046  16851293.397    16851293.0224   16851300.2434
        -0.000          -0.000
 -45989829.032 9 -35810165.22748  14815378.625    14815378.4274   14815383.7194
        -0.000          -0.000
 -26339849.707 9 -17522333.47547  15211656.654    15211656.1694   15211661.5114
        -0.000          -0.000
 98  5  3 19 22 59.9770000  0  7 24 16  5  4  7  9  8               -0.022177265
 -58247745.122 9 -44874389.06048  13641269.343    13641269.1864   13641274.9694
        -0.000          -0.000
 -25683930.979 9 -19018737.36845  17883224.829    17883224.4624   17883231.4814
        -0.000          -0.000
 -28376195.603 9 -22072277.99347  14982999.249    14982998.6264   14983003.9884
        -0.000          -0.000
 -44941082.323 9 -34992998.81848  14185015.618    14185015.9784   14185020.5474
        -0.000          -0.000
 -22056551.017 9 -17178350.55046  16835304.478    16835304.0024   16835311.1924
        -0.000          -0.000
 -46106959.052 9 -35901435.41348  14793089.417    14793089.2674   14793094.6714
        -0.000          -0.000
 -26531901.135 9 -17671983.94647  15175110.567    15175110.0304   15175115.3734
        -0.000          -0.000
 98  5  3 19 23 29.9770000  0  7 24 16  5  4  7  9  8               -0.022273543
 -58430260.999 9 -45016609.18948  13606537.735    13606537.5604   13606543.2734
        -0.000          -0.000
 -25822260.409 9 -19126526.53245  17856901.062    17856900.9454   17856908.2534
        -0.000          -0.000
 -28598617.297 9 -22245593.57147  14940673.695    14940673.1174   14940678.4594
        -0.000          -0.000
 -45048397.946 9 -35076621.37848  14164594.184    14164594.5254   14164599.0424
        -0.000          -0.000
 -22140437.999 9 -17243717.13746  16819341.496    16819340.9414   16819347.9904
        -0.000          -0.000
 -46223470.755 9 -35992223.75848  14770917.972    14770917.8064   14770923.1994
        -0.000          -0.000
 -26723252.633 9 -17821089.00547  15138697.543    15138697.0494   15138702.4004
        -0.000          -0.000
 98  5  3 19 23 59.9770000  0  7 24 16  5  4  7  9  8               -0.022369783
 -58612148.924 9 -45158340.02748  13571925.628    13571925.4514   13571931.0974
        -0.000          -0.000
 -25959954.672 9 -19233820.72745  17830698.671    17830698.6744   17830705.9774
        -0.000          -0.000
 -28820683.679 9 -22418632.30247  14898415.932    14898415.3524   14898420.6334
        -0.000          -0.000
 -45155087.579 9 -35159756.17148  14144291.893    14144292.1704   14144296.6904
        -0.000          -0.000
 -22224215.130 9 -17308998.07445  16803399.693    16803398.9084   16803405.7524
        -0.000          -0.000
 -46339377.363 9 -36082540.63948  14748861.711    14748861.5164   14748866.9654
        -0.000          -0.000
 -26913909.339 9 -17969652.67447  15102416.899    15102416.3354   15102421.6114
        -0.000          -0.000
 98  5  3 19 24 29.9770000  0  7 24 16  5  4  7  9  8               -0.022465978
 -58793395.109 9 -45299570.79148  13537435.636    13537435.4294   13537441.0494
        -0.000          -0.000
 -26097011.220 9 -19340618.04645  17804618.021    17804617.6004   17804625.0634
        -0.000          -0.000
 -29042387.188 9 -22591388.25847  14856227.251    14856226.5694   14856231.8114
        -0.000          -0.000
 -45261134.020 9 -35242389.76548  14124111.852    14124112.1714   14124116.7114
        -0.000          -0.000
 -22307850.256 9 -17374168.36545  16787484.488    16787483.7974   16787490.4334
        -0.000          -0.000
 -46454663.764 9 -36172374.22548  14726923.526    14726923.3234   14726928.6724
        -0.000          -0.000
 -27103863.012 9 -18117668.52447  15066269.841    15066269.3494   15066274.6834
        -0.000          -0.000
 98  5  3 19 24 59.9770000  0  7 24 16  5  4  7  9  8               -0.022562103
 -58973994.158 9 -45440297.29448  13503068.759    13503068.5804   13503074.1874
        -0.000          -0.000
 -26233415.328 9 -19446906.95345  17778661.115    17778660.6504   17778668.2394
        -0.000          -0.000
 -29263741.880 9 -22763872.40747  14814104.775    14814104.1304   14814109.3814
        -0.000          -0.000
 -45366526.080 9 -35324513.45048  14104056.385    14104056.7054   14104061.2784
        -0.000          -0.000
 -22391321.470 9 -17439210.90345  16771600.613    16771599.7634   16771606.4824
        -0.000          -0.000
 -46569307.222 9 -36261706.82148  14705107.541    14705107.3464   14705112.7744
        -0.000          -0.000
 -27293102.548 9 -18265127.89247  15030258.759    15030258.1894   15030263.5854
        -0.000          -0.000
 98  5  3 19 25 29.9770000  0  7 24 16  5  4  7  9  8               -0.022658135
 -59153949.807 9 -45580522.47748  13468824.281    13468824.0774   13468829.7304
        -0.000          -0.000
 -26369169.720 9 -19552689.59645  17752827.735    17752827.3124   17752835.0204
        -0.000          -0.000
 -29484773.043 9 -22936104.47747  14772043.820    14772043.2474   14772048.4924
        -0.000          -0.000
 -45471304.903 9 -35406159.32848  14084117.658    14084117.9584   14084122.5434
        -0.000          -0.000
 -22474648.536 9 -17504141.15845  16755743.986    16755743.1714   16755749.9454
        -0.000          -0.000
 -46683315.049 9 -36350544.13548  14683412.540    14683412.3854   14683417.8484
        -0.000          -0.000
 -27481631.258 9 -18412033.40547  14994382.893    14994382.3454   14994387.7144
        -0.000          -0.000
 98  5  3 19 25 59.9770000  0  7 24 16  5  4  7  9  8               -0.022754059
 -59333234.916 9 -45720225.13548  13434707.452    13434707.2664   13434712.9304
        -0.000          -0.000
 -26504271.865 9 -19657963.97345  17727118.660    17727118.3214   17727125.7324
        -0.000          -0.000
 -29705484.597 9 -23108087.48747  14730043.740    14730043.1744   14730048.4174
        -0.000          -0.000
 -45575477.465 9 -35487332.75948  14064294.318    14064294.5524   14064299.1324
        -0.000          -0.000
 -22557820.089 9 -17568950.21445  16739916.846    16739916.1384   16739923.0904
        -0.000          -0.000
 -46796685.200 9 -36438884.55048  14661838.968    14661838.7804   14661844.2314
        -0.000          -0.000
 -27669432.927 9 -18558372.36247  14958645.329    14958644.7964   14958650.2394
        -0.000          -0.000
 98  5  3 19 26 29.9770000  0  7 24 16  5  4  7  9  8               -0.022849879
 -59511850.145 9 -45859405.82648  13400718.099    13400717.8964   13400723.5594
        -0.000          -0.000
 -26638716.652 9 -19762726.15945  17701534.722    17701534.4724   17701541.6304
        -0.000          -0.000
 -29925883.430 9 -23279826.82147  14688103.160    14688102.6384   14688107.9154
        -0.000          -0.000
 -45679037.134 9 -35568028.63748  14044587.519    14044587.8244   14044592.3894
        -0.000          -0.000
 -22640836.947 9 -17633638.72445  16724119.388    16724118.5844   16724125.6864
        -0.000          -0.000
 -46909426.985 9 -36526735.33648  14640384.981    14640384.7834   14640390.1954
        -0.000          -0.000
 -27856502.106 9 -18704140.57147  14923047.229    14923046.7404   14923052.0764
        -0.000          -0.000
 98  5  3 19 26 59.9770000  0  7 24 16  5  4  7  9  8               -0.022945596
 -59689790.990 9 -45998061.00548  13366857.038    13366856.8284   13366862.4634
        -0.000          -0.000
 -26772504.975 9 -19866976.81445  17676075.583    17676075.1994   17676082.8674
        -0.000          -0.000
 -30145970.853 9 -23451323.49748  14646221.983    14646221.4424   14646226.6504
        -0.000          -0.000
 -45782001.335 9 -35648260.49148  14024994.060    14024994.3494   14024998.9194
        -0.000          -0.000
 -22723717.027 9 -17698220.67145  16708347.896    16708347.0934   16708354.2214
        -0.000          -0.000
 -47021547.336 9 -36614101.87148  14619049.239    14619049.0534   14619054.4744
        -0.000          -0.000
 -28042834.144 9 -18849334.37247  14887589.453    14887588.9274   14887594.2644
        -0.000          -0.000
 98  5  3 19 27 29.9770000  0  8 24 16  5  4  7  9  8 10            -0.023041292
 -59867068.556 9 -46136199.36248  13333122.185    13333121.9824   13333127.6684
        -0.000          -0.000
 -26905662.705 9 -19970736.11445  17650736.608    17650736.0804   17650743.6914
        -0.000          -0.000
 -30365761.159 9 -23622588.65948  14604397.270    14604396.7174   14604401.9184
        -0.000          -0.000
 -45884389.920 9 -35728043.83048  14005510.196    14005510.4774   14005515.0124
        -0.000          -0.000
 -22806491.359 9 -17762720.22445  16692596.489    16692595.7064   16692602.6854
        -0.000          -0.000
 -47133077.781 9 -36701008.75948  14597825.777    14597825.5854   14597830.8854
        -0.000          -0.000
 -28228455.140 9 -18993974.12647  14852266.930    14852266.4404   14852271.7714
        -0.000          -0.000
  -4242203.481 8  -2671617.59645  17702528.983    17702528.0264   17702541.3984
        -0.000          -0.000
 98  5  3 19 27 59.9760000  0  8 24 16  5  4  7  9  8 10            -0.023136914
 -60043667.442 9 -46273808.87348  13299516.491    13299516.2974   13299522.0134
        -0.000          -0.000
 -27038180.574 9 -20073996.79745  17625519.473    17625518.8174   17625526.3534
        -0.000          -0.000
 -30585208.043 9 -23793586.20148  14562637.901    14562637.3564   14562642.5944
        -0.000          -0.000
 -45986162.014 9 -35807346.77748  13986143.607    13986143.8744   13986148.4674
        -0.000          -0.000
 -22889128.049 9 -17827112.52845  16676871.411    16676870.5124   16676877.4024
        -0.000          -0.000
 -47243988.656 9 -36787432.85948  14576720.214    14576719.9974   14576725.2464
        -0.000          -0.000
 -28413350.171 9 -19138048.18747  14817082.612    14817082.1084   14817087.3444
        -0.000          -0.000
  -4486874.458 8  -2862270.00745  17655969.673    17655968.5574   17655982.0764
        -0.000          -0.000
 98  5  3 19 28 29.9760000  0  8 24 16  5  4  7  9  8 10            -0.023232465
 -60219608.417 9 -46410905.72548  13266035.993    13266035.8344   13266041.5534
        -0.000          -0.000
 -27170072.188 9 -20176769.47245  17600421.305    17600420.6334   17600428.0784
        -0.000          -0.000
 -30804293.585 9 -23964302.20348  14520947.315    14520946.8084   14520951.8944
        -0.000          -0.000
 -46087323.277 9 -35886173.74548  13966893.252    13966893.5514   13966898.1474
        -0.000          -0.000
 -22971622.284 9 -17891393.80245  16661173.370    16661172.4504   16661179.4714
        -0.000          -0.000
 -47354276.940 9 -36873371.82048  14555733.030    14555732.8164   14555738.1594
        -0.000          -0.000
 -28597536.245 9 -19281569.79747  14782033.113    14782032.6124   14782037.9794
        -0.000          -0.000
  -4731517.741 8  -3052900.81845  17609415.427    17609414.2574   17609427.5984
        -0.000          -0.000
 98  5  3 19 28 59.9760000  0  8 24 16  5  4  7  9  8 10            -0.023327936
 -60394884.965 9 -46547484.83448  13232681.933    13232681.7854   13232687.5014
        -0.000          -0.000
 -27301337.848 9 -20279054.41345  17575441.969    17575441.5454   17575449.1244
        -0.000          -0.000
 -31022991.930 9 -24134716.48847  14479330.349    14479329.8294   14479334.9434
        -0.000          -0.000
 -46187884.187 9 -35964532.91048  13947757.217    13947757.4884   13947762.0294
        -0.000          -0.000
 -23053978.205 9 -17955567.31445  16645501.483    16645500.6304   16645507.6584
        -0.000          -0.000
 -47463933.946 9 -36958818.87948  14534865.967    14534865.8024   14534871.1534
        -0.000          -0.000
 -28781011.376 9 -19424537.44047  14747118.932    14747118.4134   14747123.7984
        -0.000          -0.000
  -4976105.934 9  -3243488.68845  17562871.167    17562870.4684   17562883.9024
        -0.000          -0.000
 98  5  3 19 29 29.9760000  0  8 24 16  5  4  7  9  8 10            -0.023423323
 -60569508.435 9 -46683555.06448  13199452.166    13199451.9904   13199457.6694
        -0.000          -0.000
 -27431981.806 9 -20380854.90745  17550581.638    17550580.9954   17550588.3834
        -0.000          -0.000
 -31241304.032 9 -24304829.81248  14437786.869    14437786.3984   14437791.5534
        -0.000          -0.000
 -46287837.087 9 -36042418.30848  13928736.828    13928737.0664   13928741.6364
        -0.000          -0.000
 -23136202.516 9 -18019638.27745  16629854.773    16629854.0424   16629860.8754
        -0.000          -0.000
 -47572958.717 9 -37043773.30148  14514119.267    14514119.0644   14514124.4514
        -0.000          -0.000
 -28963776.919 9 -19566952.16347  14712339.750    14712339.2994   14712344.6774
        -0.000          -0.000
  -5220631.418 9  -3434027.76345  17516339.346    17516338.7714   17516351.6804
        -0.000          -0.000
 98  5  3 19 29 59.9760000  0  8 24 16  5  4  7  9  8 10            -0.023518623
 -60743472.756 9 -46819111.66148  13166347.706    13166347.5974   13166353.2964
        -0.000          -0.000
 -27561997.491 8 -20482165.84845  17525840.616    17525839.6754   17525847.3624
        -0.000          -0.000
 -31459224.582 9 -24474638.01248  14396318.014    14396317.4674   14396322.6824
        -0.000          -0.000
 -46387187.095 9 -36119833.91348  13909831.123    13909831.3944   13909835.9734
        -0.000          -0.000
 -23218284.990 9 -18083598.71445  16614235.015    16614234.2754   16614241.1544
        -0.000          -0.000
 -47681348.711 9 -37128233.07548  14493493.398    14493493.1544   14493498.5524
        -0.000          -0.000
 -29145808.770 9 -19708795.17447  14677700.276    14677699.8104   14677705.2714
        -0.000          -0.000
  -5465095.230 9  -3624518.76545  17469819.089    17469818.4274   17469831.4874
        -0.000          -0.000
 98  5  3 19 30 29.9760000  0  8 24 16  5  4  7  9  8 10            -0.023613830
 -60916758.168 9 -46954139.25548  13133372.599    13133372.4954   13133378.2124
        -0.000          -0.000
 -27691367.733 9 -20582973.84545  17501221.896    17501221.2374   17501228.8754
        -0.000          -0.000
 -31676761.382 9 -24644147.21748  14354922.060    14354921.5654   14354926.7504
        -0.000          -0.000
 -46485940.710 9 -36196784.80648  13891038.939    13891039.1944   13891043.8044
        -0.000          -0.000
 -23300227.867 9 -18147450.40745  16598641.786    16598640.9004   16598648.0384
        -0.000          -0.000
 -47789117.103 9 -37212208.50648  14472985.700    14472985.4714   14472990.9524
        -0.000          -0.000
 -29327083.201 9 -19850047.99947  14643204.877    14643204.4304   14643209.8454
        -0.000          -0.000
  -5709492.453 9  -3814957.88745  17423311.673    17423310.8434   17423324.1914
        -0.000          -0.000
 98  5  3 19 30 59.9760000  0  8 24 16  5  4  7  9  8 10            -0.023709046
 -61089504.294 9 -47088746.60248  13100500.141    13100499.9934   13100505.6844
        -0.000          -0.000
 -27820239.938 9 -20683393.78445  17476698.272    17476697.7124   17476705.4764
        -0.000          -0.000
 -31894086.280 9 -24813491.26948  14313566.507    14313565.9954   14313571.2044
        -0.000          -0.000
 -46584246.531 9 -36273386.74148  13872331.875    13872332.1944   13872336.8374
        -0.000          -0.000
 -23382190.966 9 -18211317.84245  16583044.746    16583043.8874   16583051.1144
        -0.000          -0.000
 -47896428.280 9 -37295827.63848  14452564.998    14452564.8184   14452570.2484
        -0.000          -0.000
 -29507744.462 9 -19990822.99747  14608826.192    14608825.7114   14608831.1744
        -0.000          -0.000
  -5953975.959 9  -4005464.22945  17376787.760    17376787.0814   17376800.1374
        -0.000          -0.000
 98  5  3 19 31 29.9760000  0  8 24 16  5  4  7  9  8 10            -0.023804165
 -61261534.025 9 -47222795.74148  13067763.912    13067763.8054   13067769.5044
        -0.000          -0.000
 -27948442.253 9 -20783291.72045  17452302.306    17452301.7534   17452309.5214
        -0.000          -0.000
 -32111033.857 9 -24982541.32848  14272282.656    14272282.1554   14272287.4294
        -0.000          -0.000
 -46681919.946 9 -36349495.92048  13853745.235    13853745.5424   13853750.2134
        -0.000          -0.000
 -23463991.819 9 -18275058.85745  16567478.581    16567477.5944   16567485.0044
        -0.000          -0.000
 -48003108.173 9 -37378954.88548  14432264.494    14432264.3314   14432269.7604
        -0.000          -0.000
 -29687607.453 9 -20130976.00647  14574599.394    14574598.9654   14574604.3714
        -0.000          -0.000
  -6198375.435 9  -4195905.07545  17330279.924    17330279.1984   17330292.1114
        -0.000          -0.000
 98  5  3 19 31 59.9760000  0  8 24 16  5  4  7  9  8 10            -0.023899205
 -61432864.466 9 -47356299.96148  13035160.915    13035160.7464   13035166.4214
        -0.000          -0.000
 -28075998.829 9 -20882686.45545  17428029.094    17428028.7164   17428036.4114
        -0.000          -0.000
 -32327619.510 9 -25151309.36348  14231067.769    14231067.2874   14231072.4674
        -0.000          -0.000
 -46778985.902 9 -36425131.73648  13835274.178    13835274.4794   13835279.2014
        -0.000          -0.000
 -23545648.487 9 -18338687.50445  16551939.764    16551938.9404   16551946.3414
        -0.000          -0.000
 -48109180.830 9 -37461608.95048  14412079.622    14412079.4654   14412084.9114
        -0.000          -0.000
 -29866704.992 9 -20270532.53947  14540518.321    14540517.8294   14540523.2554
        -0.000          -0.000
  -6442711.968 9  -4386296.95745  17283783.961    17283783.2854   17283796.4404
        -0.000          -0.000
 98  5  3 19 32 29.9760000  0  8 24 16  5  4  7  9  8 10            -0.023994194
 -61603540.491 9 -47489294.26648  13002682.307    13002682.1414   13002687.8494
        -0.000          -0.000
 -28202943.293 8 -20981604.21345  17403872.249    17403871.8614   17403879.4394
        -0.000          -0.000
 -32543870.801 9 -25319816.85548  14189916.630    14189916.0464   14189921.2324
        -0.000          -0.000
 -46875474.067 9 -36500317.34248  13816913.122    13816913.4104   13816918.1404
        -0.000          -0.000
 -23627201.229 9 -18402235.18745  16536421.164    16536420.1244   16536427.5034
        -0.000          -0.000
 -48214669.439 9 -37543807.91848  14392005.818    14392005.6324   14392011.0974
        -0.000          -0.000
 -30045098.920 9 -20409540.80647  14506571.133    14506570.6704   14506576.0814
        -0.000          -0.000
  -6687012.883 9  -4576661.05945  17237294.706    17237294.4504   17237306.9744
        -0.000          -0.000
 98  5  3 19 32 59.9760000  0  8 24 16  5  4  7  9  8 10            -0.024089102
 -61773530.336 9 -47621753.87248  12970334.300    12970334.1554   12970339.8754
        -0.000          -0.000
 -28329221.955 8 -21080003.19845  17379841.672    17379841.5474   17379849.2234
        -0.000          -0.000
 -32759740.288 9 -25488026.83248  14148838.011    14148837.4444   14148842.6264
        -0.000          -0.000
 -46971333.742 9 -36575013.19248  13798671.657    13798671.9584   13798676.7094
        -0.000          -0.000
 -23708598.153 9 -18465661.44246  16520931.983    16520930.9674   16520938.3624
        -0.000          -0.000
 -48319508.060 9 -37625500.39448  14372055.685    14372055.5334   14372060.9794
        -0.000          -0.000
 -30222765.781 9 -20547982.53247  14472762.246    14472761.7364   14472767.1624
        -0.000          -0.000
  -6931233.723 9  -4766962.73045  17190820.874    17190820.3844   17190833.0304
        -0.000          -0.000
 98  5  3 19 33 29.9750000  0  8 24 16  5  4  7  9  8 10            -0.024183919
 -61942854.608 9 -47753694.85848  12938112.995    12938112.8314   12938118.5234
        -0.000          -0.000
 -28454825.255 8 -21177875.91245  17355940.267    17355940.3424   17355947.8094
        -0.000          -0.000
 -32975222.317 9 -25655934.89848  14107833.146    14107832.6204   14107837.7924
        -0.000          -0.000
 -47066576.676 9 -36649228.48148  13780547.515    13780547.8254   13780552.5764
        -0.000          -0.000
 -23789847.284 9 -18528972.54546  16505470.819    16505469.9014   16505477.3114
        -0.000          -0.000
 -48423691.459 9 -37706682.32548  14352230.285    14352230.1384   14352235.5584
        -0.000          -0.000
 -30399702.601 9 -20685855.38647  14439092.177    14439091.6954   14439097.2424
        -0.000          -0.000
  -7175366.639 8  -4957195.90645  17144363.465    17144362.9064   17144375.6974
        -0.000          -0.000
 98  5  3 19 33 59.9750000  0  8 24 16  5  4  7  9  8 10            -0.024278654
 -62111544.484 9 -47885141.48748  12906012.419    12906012.2344   12906017.8784
        -0.000          -0.000
 -28579765.436 8 -21275231.86945  17332165.098    17332164.9224   17332172.5024
        -0.000          -0.000
 -33190335.883 9 -25823555.83548  14066898.485    14066897.8994   14066902.9834
        -0.000          -0.000
 -47161235.779 9 -36722988.81548  13762534.528    13762534.8454   13762539.5504
        -0.000          -0.000
 -23870956.014 9 -18592174.22745  16490036.153    16490035.3074   16490042.9934
        -0.000          -0.000
 -48527247.271 9 -37787375.19048  14332524.429    14332524.2304   14332529.5584
        -0.000          -0.000
 -30575939.475 9 -20823182.82347  14405555.337    14405554.9424   14405560.4494
        -0.000          -0.000
  -7419448.305 8  -5147389.15845  17097915.894    17097915.5284   17097928.2364
        -0.000          -0.000
 98  5  3 19 34 29.9750000  0  8 24 16  5  4  7  9  8 10            -0.024373282
 -62279582.145 9 -48016079.90548  12874035.922    12874035.7404   12874041.3654
        -0.000          -0.000
 -28704012.262 8 -21372047.62245  17308521.647    17308521.3414   17308529.2374
        -0.000          -0.000
 -33405062.986 9 -25990875.63548  14026037.209    14026036.6374   14026041.7524
        -0.000          -0.000
 -47255296.790 9 -36796283.11248  13744635.333    13744635.6074   13744640.3294
        -0.000          -0.000
 -23951894.816 9 -18655243.49645  16474633.969    16474633.2584   16474640.8904
        -0.000          -0.000
 -48630162.623 9 -37867569.02248  14312940.309    14312940.0884   14312945.4414
        -0.000          -0.000
 -30751420.698 9 -20959921.42847  14372162.326    14372161.9094   14372167.4734
        -0.000          -0.000
  -7663456.793 8  -5337525.37645  17051482.918    17051482.2944   17051494.8924
        -0.000          -0.000
 98  5  3 19 34 59.9750000  0  8 24 16  5  4  7  9  8 10            -0.024467788
 -62446939.079 9 -48146487.90548  12842188.988    12842188.7784   12842194.4004
        -0.000          -0.000
 -28827555.067 8 -21468314.72145  17285012.197    17285012.0954   17285019.7154
        -0.000          -0.000
 -33619385.487 9 -26157880.17848  13985252.912    13985252.3714   13985257.5684
        -0.000          -0.000
 -47348745.841 9 -36869100.58248  13726852.519    13726852.8084   13726857.5354
        -0.000          -0.000
 -24032637.214 9 -18718159.72845  16459269.001    16459268.4964   16459276.0444
        -0.000          -0.000
 -48732440.821 9 -37947266.37948  14293477.419    14293477.1924   14293482.5714
        -0.000          -0.000
 -30926095.004 9 -21096031.30247  14338922.895    14338922.5104   14338928.1604
        -0.000          -0.000
  -7907374.248 8  -5527590.64545  17005067.078    17005066.2594   17005078.5554
        -0.000          -0.000
 98  5  3 19 35 29.9750000  0  8 24 16  5  4  7  9  8 10            -0.024562164
 -62613588.315 9 -48276344.44448  12810476.623    12810476.4224   12810482.0714
        -0.000          -0.000
 -28950395.264 8 -21564034.35945  17261636.801    17261636.4574   17261644.0524
        -0.000          -0.000
 -33833278.222 9 -26324549.83448  13944550.408    13944549.8894   13944555.0874
        -0.000          -0.000
 -47441563.354 9 -36941425.92748  13709189.891    13709190.1954   13709194.9004
        -0.000          -0.000
 -24113166.571 9 -18780909.94445  16443944.746    16443944.3944   16443951.8354
        -0.000          -0.000
 -48834085.050 9 -38026469.73148  14274135.155    14274134.9324   14274140.4094
        -0.000          -0.000
 -31099926.692 9 -21231484.57247  14305843.896    14305843.4704   14305849.1334
        -0.000          -0.000
  -8151177.211 8  -5717566.70445  16958672.541    16958671.6554   16958684.0084
        -0.000          -0.000
 98  5  3 19 35 59.9750000  0  8 24 16  5  4  7  9  8 10            -0.024656416
 -62779500.297 9 -48405626.50248  12778904.565    12778904.4184   12778910.0664
        -0.000          -0.000
 -29072536.835 8 -21659209.64645  17238394.010    17238393.5894   17238400.9324
        -0.000          -0.000
 -34046726.601 9 -26490873.22748  13903932.458    13903931.9484   13903937.1064
        -0.000          -0.000
 -47533733.284 9 -37013246.66948  13691650.564    13691650.8674   13691655.5204
        -0.000          -0.000
 -24193465.019 9 -18843480.26445  16428664.637    16428664.3924   16428671.6274
        -0.000          -0.000
 -48935092.311 9 -38105176.73748  14254914.176    14254913.9584   14254919.4894
        -0.000          -0.000
 -31272913.008 9 -21366279.11747  14272925.756    14272925.2804   14272930.8744
        -0.000          -0.000
  -8394851.105 8  -5907442.21145  16912302.773    16912301.6784   16912314.0114
        -0.000          -0.000
 98  5  3 19 36 29.9750000  0  8 24 16  5  4  7  9  8 10            -0.024750559
 -62944688.327 9 -48534344.43548  12747470.367    12747470.2104   12747475.8724
        -0.000          -0.000
 -29194003.232 9 -21753858.81545  17215279.537    17215279.4394   17215286.7284
        -0.000          -0.000
 -34259746.631 9 -26656862.85848  13863396.057    13863395.5414   13863400.6724
        -0.000          -0.000
 -47625273.344 9 -37084576.59348  13674231.101    13674231.4074   13674236.0904
        -0.000          -0.000
 -24273568.587 9 -18905898.70145  16413421.637    16413421.1854   16413428.5094
        -0.000          -0.000
 -49035484.359 9 -38183404.35948  14235810.308    14235810.1234   14235815.5624
        -0.000          -0.000
 -31445079.527 9 -21500434.86247  14240163.561    14240163.0804   14240168.5344
        -0.000          -0.000
  -8638390.177 8  -6097212.66945  16865958.311    16865957.4414   16865969.8234
        -0.000          -0.000
 98  5  3 19 36 59.9750000  0  7 24  5  4  7  9  8 10               -0.024844647
 -63109175.247 9 -48662516.04548  12716169.554    12716169.3994   12716175.0094
        -0.000          -0.000
 -34472343.136 9 -26822522.44848  13822940.229    13822939.7584   13822944.8814
        -0.000          -0.000
 -47716214.079 9 -37155439.51348  13656925.694    13656925.9474   13656930.6134
        -0.000          -0.000
 -24353506.609 9 -18968188.11245  16398210.135    16398209.5154   16398216.9484
        -0.000          -0.000
 -49135287.789 9 -38261173.31048  14216818.491    14216818.2224   14216823.6574
        -0.000          -0.000
 -31616484.483 9 -21633997.17947  14207546.388    14207545.8614   14207551.2084
        -0.000          -0.000
  -8881796.793 8  -6286879.91245  16819639.308    16819638.4974   16819650.8604
        -0.000          -0.000
 98  5  3 19 37 29.9750000  0  7 24  5  4  7  9  8 10               -0.024938605
 -63272999.924 9 -48790171.61948  12684994.694    12684994.5314   12685000.1864
        -0.000          -0.000
 -34684541.652 9 -26987871.91848  13782560.188    13782559.6634   13782564.8444
        -0.000          -0.000
 -47806587.746 9 -37225860.55748  13639728.179    13639728.4924   13639733.1094
        -0.000          -0.000
 -24433306.795 8 -19030370.14445  16383024.323    16383023.8894   16383031.4914
        -0.000          -0.000
 -49234518.796 9 -38338496.22148  14197935.338    14197935.1044   14197940.6824
        -0.000          -0.000
 -31787171.940 9 -21767000.39247  14175065.584    14175065.1174   14175070.5514
        -0.000          -0.000
  -9125086.716 8  -6476456.19845  16773343.167    16773341.9774   16773353.8474
        -0.000          -0.000
 98  5  3 19 37 59.9750000  0  7 24  5  4  7  9  8 10               -0.025032470
 -63436169.217 9 -48917316.51048  12653944.489    12653944.3674   12653950.0474
        -0.000          -0.000
 -34896331.020 9 -27152902.57848  13742258.044    13742257.5334   13742262.6734
        -0.000          -0.000
 -47896409.381 9 -37295851.45648  13622635.709    13622636.0054   13622640.6644
        -0.000          -0.000
 -24512961.892 8 -19092439.13245  16367866.128    16367866.2024   16367873.4924
        -0.000          -0.000
 -49333161.095 9 -38415360.39448  14179164.326    14179164.1394   14179169.7684
        -0.000          -0.000
 -31957139.815 9 -21899442.90447  14142721.770    14142721.3274   14142726.7074
        -0.000          -0.000
  -9368249.343 8  -6665933.37745  16727070.775    16727069.6014   16727081.1154
        -0.000          -0.000
 98  5  3 19 38 29.9740000  0  7 24  5  4  7  9  8 10               -0.025126223
 -63598677.919 9 -49043946.66148  12623020.077    12623019.9954   12623025.6534
        -0.000          -0.000
 -35107692.367 9 -27317599.71848  13702037.435    13702036.8674   13702041.9444
        -0.000          -0.000
 -47985672.527 9 -37365407.16748  13605649.569    13605649.8254   13605654.4824
        -0.000          -0.000
 -24592456.076 9 -19154382.74945  16352739.105    16352739.2254   16352746.0534
        -0.000          -0.000
 -49431198.311 9 -38491753.08448  14160508.622    14160508.3544   14160513.9774
        -0.000          -0.000
 -32126366.008 9 -22031307.46247  14110519.094    14110518.6524   14110524.0834
        -0.000          -0.000
  -9611259.720 9  -6855291.87245  16680827.059    16680825.9254   16680837.6824
        -0.000          -0.000
 98  5  3 19 38 59.9740000  0  7 24  5  4  7  9  8 10               -0.025219853
 -63760496.168 9 -49170038.79548  12592227.147    12592226.9924   12592232.5944
        -0.000          -0.000
 -35318615.645 9 -27481955.51648  13661900.109    13661899.5344   13661904.5334
        -0.000          -0.000
 -48074343.667 9 -37434501.57948  13588775.944    13588776.2064   13588780.9654
        -0.000          -0.000
 -24671756.948 8 -19216175.71145  16337648.996    16337648.7624   16337655.6084
        -0.000          -0.000
 -49528592.623 9 -38567644.81548  14141975.062    14141974.8044   14141980.4094
        -0.000          -0.000
 -32294809.964 9 -22162562.51147  14078465.245    14078464.7724   14078470.3104
        -0.000          -0.000
  -9854113.613 9  -7044528.47345  16634613.416    16634612.2784   16634623.9284
        -0.000          -0.000
 98  5  3 19 39 29.9740000  0  7 24  5  4  7  9  8 10               -0.025313371
 -63921622.869 9 -49295592.05348  12561565.828    12561565.6294   12561571.1704
        -0.000          -0.000
 -35529114.296 9 -27645980.42848  13621843.527    13621842.9654   13621847.9874
        -0.000          -0.000
 -48162430.543 9 -37503140.71548  13572013.584    13572013.8404   13572018.5734
        -0.000          -0.000
 -24750882.359 9 -19277831.96545  16322591.946    16322591.3854   16322598.9984
        -0.000          -0.000
 -49625340.763 9 -38643033.03248  14123564.660    14123564.3604   14123569.8774
        -0.000          -0.000
 -32462458.457 9 -22293197.72547  14046562.725    14046562.2474   14046567.8824
        -0.000          -0.000
 -10096836.861 9  -7233663.25245  16588424.668    16588423.5644   16588435.1154
        -0.000          -0.000
 98  5  3 19 39 59.9740000  0  7 24  5  4  7  9  8 10               -0.025406819
 -64082076.536 9 -49420620.86648  12531032.453    12531032.2674   12531037.8524
        -0.000          -0.000
 -35739227.222 9 -27809704.75848  13581860.237    13581859.6844   13581864.8094
        -0.000          -0.000
 -48249967.045 9 -37571350.97948  13555355.921    13555356.1224   13555360.9254
        -0.000          -0.000
 -24829890.997 9 -19339397.18545  16307557.797    16307556.9514   16307564.2484
        -0.000          -0.000
 -49721479.941 9 -38717946.72248  14105270.057    14105269.7754   14105275.3274
        -0.000          -0.000
 -32629346.714 9 -22423240.52147  14014805.021    14014804.4934   14014810.0404
        -0.000          -0.000
 -10339475.289 9  -7422731.95545  16542251.871    16542250.8494   16542262.1124
        -0.000          -0.000
 98  5  3 19 40 29.9740000  0  7 24  5  4  7  9  8 10               -0.025500201
 -64241825.056 9 -49545100.22248  12500633.287    12500633.1024   12500638.7264
        -0.000          -0.000
 -35948935.180 9 -27973113.54348  13541954.206    13541953.6414   13541958.7724
        -0.000          -0.000
 -48336919.851 9 -37639106.42248  13538809.173    13538809.4874   13538814.3124
        -0.000          -0.000
 -24908774.001 8 -19400864.55445  16292547.277    16292546.3364   16292553.5204
        -0.000          -0.000
 -49817000.214 9 -38792378.17148  14087093.205    14087092.9384   14087098.5184
        -0.000          -0.000
 -32795449.814 9 -22552671.52747  13983196.722    13983196.1754   13983201.6504
        -0.000          -0.000
 -10582018.752 9  -7611726.63845  16496097.091    16496096.1314   16496107.0724
        -0.000          -0.000
 98  5  3 19 40 59.9740000  0  7 24  5  4  7  9  8 10               -0.025593510
 -64400841.579 9 -49669009.18448  12470373.373    12470373.1904   12470378.8014
        -0.000          -0.000
 -36158201.249 9 -28136178.00048  13502132.174    13502131.6094   13502136.6674
        -0.000          -0.000
 -48423261.766 9 -37706385.84748  13522378.866    13522379.1924   13522383.9604
        -0.000          -0.000
 -24987511.301 9 -19462218.34845  16277563.728    16277562.8284   16277570.2574
        -0.000          -0.000
 -49911878.466 9 -38866309.32748  14069038.474    14069038.1784   14069043.7944
        -0.000          -0.000
 -32960742.451 9 -22681471.00447  13951742.493    13951741.9804   13951747.4554
        -0.000          -0.000
 -10824455.411 9  -7800638.09145  16449962.838    16449961.7194   16449972.6514
        -0.000          -0.000
 98  5  3 19 41 29.9740000  0  7 24  5  4  7  9  8 10               -0.025686732
 -64559129.238 9 -49792350.19648  12440252.248    12440252.0534   12440257.6684
        -0.000          -0.000
 -36367001.942 9 -28298879.81548  13462398.707    13462398.1164   13462403.1654
        -0.000          -0.000
 -48508997.332 9 -37773192.77748  13506063.937    13506064.2964   13506069.0274
        -0.000          -0.000
 -25066090.376 8 -19523448.87045  16262610.322    16262609.5204   16262617.2434
        -0.000          -0.000
 -50006126.018 9 -38939749.02048  14051103.725    14051103.4234   14051109.0354
        -0.000          -0.000
 -33125230.068 9 -22809643.16647  13920441.517    13920441.0094   13920446.5364
        -0.000          -0.000
 -11066765.834 9  -7989451.19045  16403852.525    16403851.5704   16403862.2564
        -0.000          -0.000
 98  5  3 19 41 59.9740000  0  7 24  5  4  7  9  8 10               -0.025779851
 -64716700.358 9 -49915132.86648  12410267.432    12410267.2214   12410272.8404
        -0.000          -0.000
 -36575328.285 9 -28461212.01648  13422755.385    13422754.8804   13422759.9504
        -0.000          -0.000
 -48594123.917 9 -37839525.19248  13489864.911    13489865.2514   13489869.9244
        -0.000          -0.000
 -25144488.530 9 -19584538.41645  16247691.699    16247690.9074   16247698.5154
        -0.000          -0.000
 -50099759.162 9 -39012709.96648  14033285.990    14033285.6884   14033291.3244
        -0.000          -0.000
 -33288916.385 9 -22937190.96447  13889292.975    13889292.4734   13889298.0864
        -0.000          -0.000
 -11308927.197 9  -8178148.16045  16357770.606    16357769.6434   16357780.1794
        -0.000          -0.000
 98  5  3 19 42 29.9740000  0  7 24  5  4  7  9  8 10               -0.025872844
 -64873582.181 9 -50037378.42048  12380413.792    12380413.5684   12380419.2434
        -0.000          -0.000
 -36783179.481 9 -28623173.97348  13383202.610    13383202.0824   13383207.1654
        -0.000          -0.000
 -48678656.733 9 -37905394.91848  13473778.880    13473779.1874   13473783.8544
        -0.000          -0.000
 -25222672.900 9 -19645461.39445  16232813.694    16232812.8584   16232820.4424
        -0.000          -0.000
 -50192795.601 9 -39085205.95548  14015581.828    14015581.4954   14015587.1744
        -0.000          -0.000
 -33451808.620 9 -23064119.97947  13858295.575    13858295.0724   13858300.6934
        -0.000          -0.000
 -11550937.115 9  -8366727.11045  16311717.267    16311716.3944   16311726.9984
        -0.000          -0.000
 98  5  3 19 42 59.9740000  0  7 24  5  4  7  9  8 10               -0.025965699
 -65029761.375 9 -50159076.46948  12350693.870    12350693.6334   12350699.3174
        -0.000          -0.000
 -36990548.546 9 -28784760.23448  13343741.646    13343741.0904   13343746.1504
        -0.000          -0.000
 -48762589.454 9 -37970797.04548  13457806.967    13457807.2944   13457811.9614
        -0.000          -0.000
 -25300613.133 9 -19706194.10845  16217982.230    16217981.4654   16217989.0304
        -0.000          -0.000
 -50285217.186 9 -39157222.81748  13997994.556    13997994.2704   13997999.9194
        -0.000          -0.000
 -33613905.880 9 -23190429.54147  13827449.512    13827449.0364   13827454.6814
        -0.000          -0.000
 -11792767.442 9  -8555166.08545  16265698.170    16265697.3344   16265708.4334
        -0.000          -0.000
 98  5  3 19 43 29.9740000  0  7 24  5  4  7  9  8 10               -0.026058411
 -65185243.584 9 -50280231.42148  12321106.570    12321106.3664   12321112.0484
        -0.000          -0.000
 -37197454.702 9 -28945985.80348  13304368.757    13304368.1584   13304373.1714
        -0.000          -0.000
 -48845946.411 9 -38035750.52548  13441944.659    13441944.9754   13441949.6334
        -0.000          -0.000
 -25378309.562 9 -19766736.85645  16203197.306    16203196.5204   16203204.0004
        -0.000          -0.000
 -50377037.639 9 -39228771.28348  13980521.750    13980521.5164   13980527.1174
        -0.000          -0.000
 -33775215.292 9 -23316125.19247  13796753.415    13796752.9264   13796758.5174
        -0.000          -0.000
 -12034409.210 8  -8743458.19745  16219715.325    16219714.1974   16219724.8074
        -0.000          -0.000
 98  5  3 19 43 59.9730000  0  7 24  5  4  7  9  8 10               -0.026150977
 -65340005.950 9 -50400825.44348  12291656.241    12291656.0544   12291661.6634
        -0.000          -0.000
 -37403882.382 9 -29106838.51348  13265086.929    13265086.2824   13265091.2914
        -0.000          -0.000
 -48928715.339 9 -38100245.79348  13426194.289    13426194.5894   13426199.2764
        -0.000          -0.000
 -25455750.865 9 -19827080.79345  16188460.825    16188460.1024   16188467.4534
        -0.000          -0.000
 -50468235.296 9 -39299834.44348  13963167.493    13963167.2504   13963172.7904
        -0.000          -0.000
 -33935716.748 9 -23441191.26547  13766211.053    13766210.5514   13766216.1184
        -0.000          -0.000
 -12275842.331 9  -8931587.69345  16173771.993    16173771.0224   16173781.0584
        -0.000          -0.000
 98  5  3 19 44 29.9730000  0  7 24  5  4  7  9  8 10               -0.026243424
 -65494064.789 9 -50520871.27748  12262339.795    12262339.6094   12262345.1804
        -0.000          -0.000
 -37609866.432 9 -29267345.54348  13225889.339    13225888.7784   13225893.7824
        -0.000          -0.000
 -49010930.388 9 -38164309.48048  13410549.299    13410549.6004   13410554.3204
        -0.000          -0.000
 -25532979.363 9 -19887258.90945  16173764.754    16173764.0474   16173771.3044
        -0.000          -0.000
 -50558833.645 9 -39370430.61548  13945927.163    13945926.8964   13945932.5694
        -0.000          -0.000
 -34095435.059 9 -23565647.11347  13735817.709    13735817.2024   13735822.7784
        -0.000          -0.000
 -12517097.943 9  -9119578.86045  16127862.405    16127861.3164   16127871.9644
        -0.000          -0.000
 98  5  3 19 44 59.9730000  0  7 24  5  4  7  9  8 10               -0.026335752
 -65647381.550 9 -50640338.84848  12233164.628    12233164.4364   12233169.9264
        -0.000          -0.000
 -37815376.064 9 -29427482.89148  13186782.113    13186781.5714   13186786.5844
        -0.000          -0.000
 -49092567.955 9 -38227923.16548  13395014.229    13395014.4754   13395019.2224
        -0.000          -0.000
 -25610002.751 9 -19947277.21645  16159107.920    16159106.9334   16159114.3834
        -0.000          -0.000
 -50648805.433 9 -39440538.54248  13928806.164    13928805.9084   13928811.6344
        -0.000          -0.000
 -34254348.884 9 -23689476.05447  13705577.467    13705576.9174   13705582.5124
        -0.000          -0.000
 -12758129.978 9  -9307395.83045  16081995.123    16081994.0874   16082004.9364
        -0.000          -0.000
 98  5  3 19 45 29.9730000  0  7 24  5  4  7  9  8 10               -0.026427948
 -65799955.637 9 -50759227.73348  12204130.763    12204130.5164   12204135.9884
        -0.000          -0.000
 -38020379.958 9 -29587226.16648  13147771.097    13147770.5784   13147775.5754
        -0.000          -0.000
 -49173614.317 9 -38291076.18648  13379591.551    13379591.8214   13379596.6064
        -0.000          -0.000
 -25686818.201 9 -20007133.49545  16144490.285    16144489.5824   16144497.2294
        -0.000          -0.000
 -50738137.290 9 -39510147.83448  13911807.018    13911806.6874   13911812.4044
        -0.000          -0.000
 -34412435.622 9 -23812660.53447  13675494.430    13675493.9134   13675499.6114
        -0.000          -0.000
 -12998919.287 9  -9495023.71145  16036174.361    16036173.4194   16036183.8764
        -0.000          -0.000
 98  5  3 19 45 59.9730000  0  7 24  5  4  7  9  8 10               -0.026520057
 -65951840.409 9 -50877579.49148  12175228.025    12175227.7854   12175233.2694
        -0.000          -0.000
 -38224929.956 9 -29746615.76648  13108846.513    13108845.9554   13108850.9374
        -0.000          -0.000
 -49254109.806 9 -38353799.95948  13364273.794    13364274.0364   13364278.8164
        -0.000          -0.000
 -25763486.663 9 -20066875.22145  16129900.759    16129900.1434   16129907.6724
        -0.000          -0.000
 -50826883.366 9 -39579300.68648  13894919.092    13894918.8184   13894924.6044
        -0.000          -0.000
 -34569754.439 9 -23935246.64047  13645557.655    13645557.1074   13645562.7994
        -0.000          -0.000
 -13239529.191 9  -9682511.67345  15990387.502    15990386.5664   15990397.7294
        -0.000          -0.000
 98  5  3 19 46 29.9730000  0  7 24  5  4  7  9  8 10               -0.026612056
 -66103010.160 9 -50995374.07948  12146461.235    12146461.0204   12146466.5734
        -0.000          -0.000
 -38428998.384 9 -29905630.10548  13070013.522    13070012.9984   13070017.9844
        -0.000          -0.000
 -49334012.433 9 -38416061.75848  13349068.849    13349069.0624   13349073.8844
        -0.000          -0.000
 -25839969.356 9 -20126472.21445  16115346.754    16115346.1484   16115353.4924
        -0.000          -0.000
 -50915009.268 9 -39647970.27448  13878149.251    13878149.0174   13878154.8754
        -0.000          -0.000
 -34726271.444 9 -24057207.94647  13615773.445    13615772.9174   13615778.6384
        -0.000          -0.000
 -13479932.799 9  -9869838.97445  15944640.057    15944639.0664   15944650.2824
        -0.000          -0.000
 98  5  3 19 46 59.9730000  0  7 24  5  4  7  9  8 10               -0.026703949
 -66253477.329 9 -51112621.20548  12117828.220    12117828.0224   12117833.6444
        -0.000          -0.000
 -38632587.468 9 -30064270.91848  13031271.740    13031271.2094   13031276.2684
        -0.000          -0.000
 -49413324.027 9 -38477863.00348  13333976.271    13333976.5604   13333981.3904
        -0.000          -0.000
 -25916263.847 8 -20185922.54145  16100828.633    16100827.7394   16100835.1994
        -0.000          -0.000
 -51002524.822 9 -39716164.26648  13861495.593    13861495.3474   13861501.1794
        -0.000          -0.000
 -34881992.189 9 -24178548.78047  13586140.744    13586140.2414   13586145.9514
        -0.000          -0.000
 -13720154.963 9 -10057024.88245  15898927.380    15898926.3124   15898937.4004
        -0.000          -0.000
 98  5  3 19 47 29.9730000  0  7 24  5  4  7  9  8 10               -0.026795734
 -66403231.368 9 -51229312.65348  12089330.988    12089330.7714   12089336.3904
        -0.000          -0.000
 -38835687.185 9 -30222530.42248  12992623.093    12992622.5854   12992627.6594
        -0.000          -0.000
 -49492035.081 9 -38539196.30748  13318998.137    13318998.3794   13319003.1744
        -0.000          -0.000
 -25992355.478 8 -20245214.79745  16086348.651    16086347.7344   16086355.7784
        -0.000          -0.000
 -51089433.144 9 -39783885.10148  13844957.504    13844957.2564   13844963.1964
        -0.000          -0.000
 -35036897.747 9 -24299254.41547  13556663.194    13556662.7384   13556668.4244
        -0.000          -0.000
 -13960209.902 9 -10244080.47745  15853246.116    15853245.2184   15853256.3254
        -0.000          -0.000
 98  5  3 19 47 59.9730000  0  7 24  5  4  7  9  8 10               -0.026887392
 -66552230.726 9 -51345416.03348  12060977.297    12060977.0994   12060982.7284
        -0.000          -0.000
 -39038283.409 9 -30380397.59048  12954070.307    12954069.7744   12954074.8684
        -0.000          -0.000
 -49570112.687 9 -38600036.00948  13304140.483    13304140.6954   13304145.4744
        -0.000          -0.000
 -26068207.356 8 -20304320.22745  16071914.304    16071913.2954   16071921.5634
        -0.000          -0.000
 -51175710.000 9 -39851113.86248  13828539.504    13828539.3314   13828545.3054
        -0.000          -0.000
 -35190957.435 9 -24419300.93747  13527346.597    13527346.1934   13527351.8234
        -0.000          -0.000
 -14200062.305 9 -10430978.24246  15807603.421    15807602.6454   15807613.7574
        -0.000          -0.000
 98  5  3 19 48 29.9730000  0  7 24  5  4  7  9  8 10               -0.026978912
 -66700466.836 9 -51460924.67148  12032768.872    12032768.6884   12032774.2954
        -0.000          -0.000
 -39240349.774 9 -30537851.88548  12915618.310    12915617.8044   12915622.8724
        -0.000          -0.000
 -49647552.117 9 -38660378.42348  13289404.163    13289404.4674   13289409.2444
        -0.000          -0.000
 -26143815.948 8 -20363236.08245  16057526.506    16057525.4254   16057533.5604
        -0.000          -0.000
 -51261350.276 9 -39917846.59348  13812242.802    13812242.5934   13812248.5784
        -0.000          -0.000
 -35344155.657 9 -24538676.17647  13498193.936    13498193.4854   13498199.1234
        -0.000          -0.000
 -14439683.600 9 -10617695.95746  15762004.953    15762004.1224   15762015.1394
        -0.000          -0.000
 98  5  3 19 48 59.9730000  0  7 24  5  4  7  9  8 10               -0.027070289
 -66847929.737 9 -51575830.81149  12004707.600    12004707.4444   12004713.0754
        -0.000          -0.000
 -39441869.716 9 -30694880.38748  12877270.253    12877269.7824   12877274.9014
        -0.000          -0.000
 -49724351.442 9 -38720222.06548  13274789.738    13274790.0344   13274794.8544
        -0.000          -0.000
 -26219183.940 8 -20421964.44045  16043184.697    16043183.4874   16043191.3604
        -0.000          -0.000
 -51346348.414 9 -39984078.96448  13796068.223    13796067.9914   13796073.9184
        -0.000          -0.000
 -35496480.998 9 -24657371.24347  13469207.294    13469206.9034   13469212.5184
        -0.000          -0.000
 -14679043.913 9 -10804210.29746  15716456.239    15716455.3154   15716466.1054
        -0.000          -0.000
 98  5  3 19 49 29.9720000  0  7 24  5  4  7  9  8 10               -0.027161510
 -66994609.788 9 -51690126.94049  11976795.291    11976795.1174   11976800.7344
        -0.000          -0.000
 -39642832.836 9 -30851475.00548  12839028.248    12839027.7264   12839032.9134
        -0.000          -0.000
 -49800511.335 9 -38779567.45848  13260296.990    13260297.2674   13260302.0164
        -0.000          -0.000
 -26294303.534 8 -20480499.31045  16028889.771    16028888.7214   16028896.7804
        -0.000          -0.000
 -51430687.601 9 -40049797.88148  13780019.032    13780018.7624   13780024.6334
        -0.000          -0.000
 -35647920.814 9 -24775376.31247  13440389.193    13440388.8134   13440394.4174
        -0.000          -0.000
 -14918101.139 9 -10990488.43246  15670965.104    15670964.1174   15670974.7504
        -0.000          -0.000
 98  5  3 19 49 59.9720000  0  7 24  5  4  7  9  8 10               -0.027252598
 -67140575.383 9 -51803866.35148  11949018.968    11949018.7774   11949024.3744
        -0.000          -0.000
 -39843297.730 9 -31007681.40248  12800881.064    12800880.4954   12800885.6834
        -0.000          -0.000
 -49876092.229 9 -38838461.67448  13245914.425    13245914.7144   13245919.3814
        -0.000          -0.000
 -26369221.267 8 -20538876.78345  16014633.456    16014632.5704   16014640.6444
        -0.000          -0.000
 -51514422.097 9 -40115045.59348  13764084.763    13764084.5834   13764090.5654
        -0.000          -0.000
 -35798532.031 9 -24892735.70547  13411728.918    13411728.4534   13411734.0784
        -0.000          -0.000
 -15156901.789 9 -11176566.69046  15625522.739    15625521.7964   15625532.2614
        -0.000          -0.000
 98  5  3 19 50 29.9720000  0  8 24 30  5  4  7  9  8 10            -0.027343576
 -67285866.418 9 -51917080.11948  11921370.960    11921370.7674   11921376.3354
        -0.000          -0.000
   -746507.136 9   -538590.54952         0.000           0.0004          0.0005
        -0.000          -0.000
 -40043272.591 9 -31163505.94548  12762827.127    12762826.5294   12762831.7334
        -0.000          -0.000
 -49951149.189 9 -38896947.62348  13231631.512    13231631.8424   13231636.4894
        -0.000          -0.000
 -26443976.075 8 -20597127.34345  16000408.182    16000407.3804   16000415.5704
        -0.000          -0.000
 -51597598.685 9 -40179858.56848  13748256.836    13748256.6504   13748262.6394
        -0.000          -0.000
 -35948347.936 9 -25009475.36747  13383219.883    13383219.3704   13383225.0644
        -0.000          -0.000
 -15395493.332 9 -11362481.99046  15580120.041    15580119.1774   15580129.5124
        -0.000          -0.000
 98  5  3 19 50 59.9720000  0  8 24 30  5  4  7  9  8 10            -0.027434330
 -67430476.522 9 -52029763.30448  11893852.500    11893852.3084   11893857.8924
        -0.000          -0.000
   -986400.346 9   -151167.94942         0.000           0.0004          0.0004
        -0.000          -0.000
 -40242758.632 9 -31318949.59548  12724866.138    12724865.5594   12724870.8254
        -0.000          -0.000
 -50025690.767 9 -38955031.99548  13217446.812    13217447.0824   13217451.6964
        -0.000          -0.000
 -26518543.571 8 -20655231.96445  15986218.398    15986217.3914   15986226.1324
        -0.000          -0.000
 -51680215.089 9 -40244235.03548  13732535.654    13732535.4034   13732541.3444
        -0.000          -0.000
 -36097360.260 9 -25125588.87947  13354863.801    13354863.3114   13354868.9154
        -0.000          -0.000
 -15633873.532 9 -11548232.60246  15534757.572    15534756.8424   15534767.0074
        -0.000          -0.000
 98  5  3 19 51 29.9720000  0  8 24 30  5  4  7  9  8 10            -0.027525038
 -67574371.610 9 -52141889.33748  11866470.114    11866469.9744   11866475.5464
        -0.000          -0.000
  -1226036.985 9   -337897.74052         0.000           0.0004          0.0005
        -0.000          -0.000
 -40441717.201 9 -31473982.23148  12687005.511    12687004.9494   12687010.2154
        -0.000          -0.000
 -50099702.457 9 -39012703.45348  13203362.959    13203363.1724   13203367.7234
        -0.000          -0.000
 -26592897.214 9 -20713169.94245  15972069.211    15972068.1884   15972077.2054
        -0.000          -0.000
 -51762254.458 9 -40308161.88548  13716924.119    13716923.8514   13716929.7664
        -0.000          -0.000
 -36245549.570 9 -25241061.06947  13326664.402    13326663.8834   13326669.3734
        -0.000          -0.000
 -15872029.596 9 -11733808.59846  15489438.135    15489437.2454   15489447.1554
        -0.000          -0.000
 98  5  3 19 51 59.9720000  0  8 24 30  5  4  7  9  8 10            -0.027615617
 -67717511.277 9 -52253426.73348  11839231.577    11839231.4114   11839236.9714
        -0.000          -0.000
  -1465389.17119   -524405.82345         0.000           0.0005   15131648.9204
        -0.000          -0.000
 -40640099.605 9 -31628565.91948  12649254.581    12649254.0434   12649259.2924
        -0.000          -0.000
 -50173138.544 9 -39069926.40348  13189388.525    13189388.7664   13189393.3444
        -0.000          -0.000
 -26667005.486 9 -20770916.72045  15957966.850    15957966.2094   15957974.6934
        -0.000          -0.000
 -51843687.089 9 -40371615.94748  13701428.002    13701427.7894   13701433.7264
        -0.000          -0.000
 -36392887.488 9 -25355869.86347  13298626.871    13298626.4034   13298631.8614
        -0.000          -0.000
 -16109930.902 9 -11919186.05846  15444166.956    15444165.9074   15444175.8274
        -0.000          -0.000
 98  5  3 19 52 29.9720000  0  8 24 30  5  4  7  9  8 10            -0.027706073
 -67859906.480 9 -52364384.01148  11812134.707    11812134.5104   11812140.0884
        -0.000          -0.000
  -1704453.094 9   -710689.35545  15086150.960    15086151.1854   15086155.6104
        -0.000          -0.000
 -40837919.674 9 -31782711.40048  12611610.723    12611610.1644   12611615.3544
        -0.000          -0.000
 -50246018.210 9 -39126715.76348  13175519.978    13175520.2774   13175524.8904
        -0.000          -0.000
 -26740890.790 9 -20828489.76845  15943907.318    15943906.6734   15943914.8084
        -0.000          -0.000
 -51924519.377 9 -40434602.19348  13686046.060    13686045.9174   13686051.8904
        -0.000          -0.000
 -36539387.928 9 -25470026.05447  13270748.895    13270748.3824   13270753.7524
        -0.000          -0.000
 -16347588.520 9 -12104373.63045  15398941.980    15398940.9464   15398950.8844
        -0.000          -0.000
 98  5  3 19 52 59.9720000  0  8 24 30  5  4  7  9  8 10            -0.027796404
 -68001563.119 9 -52474765.79348  11785178.317    11785178.1414   11785183.6694
        -0.000          -0.000
  -1943230.501 9   -896749.59345  15040712.688    15040713.2504   15040717.9014
        -0.000          -0.000
 -41035193.557 9 -31936431.29348  12574070.766    12574070.2034   12574075.3334
        -0.000          -0.000
 -50318333.072 9 -39183065.02348  13161758.995    13161759.1944   13161763.8144
        -0.000          -0.000
 -26814562.010 9 -20885895.96445  15929888.188    15929887.5094   15929895.8244
        -0.000          -0.000
 -52004740.093 9 -40497111.90548  13670780.624    13670780.4464   13670786.4904
        -0.000          -0.000
 -36685060.863 9 -25583537.43847  13243028.274    13243027.7134   13243033.1424
        -0.000          -0.000
 -16584981.416 9 -12289354.93745  15353767.213    15353766.3604   15353776.1764
        -0.000          -0.000
 98  5  3 19 53 29.9720000  0  8 24 30  5  4  7  9  8 10            -0.027886635
 -68142520.145 9 -52584602.41048  11758355.056    11758354.8704   11758360.4014
        -0.000          -0.000
  -2181764.894 9  -1082620.48145  14995321.093    14995322.1054   14995326.3314
        -0.000          -0.000
 -41231946.012 9 -32089744.86248  12536629.998    12536629.4324   12536634.5964
        -0.000          -0.000
 -50390092.722 9 -39238981.63348  13148103.524    13148103.8274   13148108.4984
        -0.000          -0.000
 -26888056.848 9 -20943164.68545  15915902.897    15915902.2104   15915910.1114
        -0.000          -0.000
 -52084375.076 9 -40559165.18248  13655626.675    13655626.5064   13655632.4844
        -0.000          -0.000
 -36829937.614 9 -25696428.41347  13215459.009    13215458.5284   13215464.0604
        -0.000          -0.000
 -16822131.698 9 -12474147.16745  15308638.600    15308637.7914   15308647.6574
        -0.000          -0.000
 98  5  3 19 53 59.9720000  0  8 24 30  5  4  7  9  8 10            -0.027976767
 -68282803.625 9 -52693914.19848  11731659.981    11731659.8214   11731665.3184
        -0.000          -0.000
  -2420064.036 9  -1268308.09645  14949974.279    14949974.9284   14949979.2164
        -0.000          -0.000
 -41428201.197 9 -32242670.96548  12499283.763    12499283.2364   12499288.4064
        -0.000          -0.000
 -50461312.764 9 -39294477.78948  13134550.861    13134551.0994   13134555.8094
        -0.000          -0.000
 -26961381.678 9 -21000300.99045  15901950.009    15901949.2894   15901957.2374
        -0.000          -0.000
 -52163441.742 9 -40620775.63947  13640580.971    13640580.7224   13640586.6084
        -0.000          -0.000
 -36974028.395 9 -25808706.95747  13188039.461    13188038.9704   13188044.5874
        -0.000          -0.000
 -17059050.739 9 -12658759.21245  15263554.335    15263553.4534   15263563.1974
        -0.000          -0.000
 98  5  3 19 54 29.9720000  0  8 24 30  5  4  7  9  8 10            -0.028066773
 -68422387.377 9 -52802680.75248  11705098.130    11705097.8994   11705103.3694
        -0.000          -0.000
  -2658090.601 9  -1453783.30945  14904679.255    14904679.8354   14904684.0554
        -0.000          -0.000
 -41623929.262 9 -32395186.33048  12462037.859    12462037.3414   12462042.5904
        -0.000          -0.000
 -50531974.221 9 -39349538.68648  13121104.398    13121104.6394   13121109.3984
        -0.000          -0.000
 -27034494.128 9 -21057271.79945  15888037.353    15888036.4714   15888044.3674
        -0.000          -0.000
 -52241907.699 9 -40681918.01947  13625649.440    13625649.1804   13625655.0564
        -0.000          -0.000
 -37117297.763 9 -25920345.44447  13160776.158    13160775.6254   13160781.3074
        -0.000          -0.000
 -17295697.950 9 -12843159.47445  15218521.418    15218520.6584   15218530.3094
        -0.000          -0.000
 98  5  3 19 54 59.9710000  0  8 24 30  5  4  7  9  8 10            -0.028156648
 -68561260.803 9 -52910893.80748  11678671.399    11678671.1844   11678676.5954
        -0.000          -0.000
  -2895836.518 9  -1639039.81945  14859437.485    14859438.1654   14859442.7154
        -0.000          -0.000
 -41819110.301 9 -32547275.44448  12424896.166    12424895.6244   12424900.8474
        -0.000          -0.000
 -50602060.810 9 -39404151.64148  13107767.358    13107767.6214   13107772.3744
        -0.000          -0.000
 -27107376.163 9 -21114063.05345  15874168.554    15874167.4434   15874175.3764
        -0.000          -0.000
 -52319777.925 9 -40742596.17347  13610831.204    13610830.9874   13610836.8714
        -0.000          -0.000
 -37259743.896 9 -26031342.45147  13133669.606    13133669.0804   13133674.8524
        -0.000          -0.000
 -17532055.145 9 -13027333.79145  15173543.985    15173543.1654   15173552.9494
        -0.000          -0.000
 98  5  3 19 55 29.9710000  0  8 24 30  5  4  7  9  8 10            -0.028246393
 -68699416.643 9 -53018547.68948  11652381.208    11652380.9854   11652386.3724
        -0.000          -0.000
  -3133299.121 9  -1824075.55445  14814249.842    14814250.3194   14814255.3714
        -0.000          -0.000
 -42013740.960 9 -32698935.67748  12387859.214    12387858.6244   12387863.8234
        -0.000          -0.000
 -50671576.486 9 -39458319.70348  13094539.034    13094539.2394   13094543.9344
        -0.000          -0.000
 -27180014.209 8 -21170664.19945  15860346.027    15860345.0824   15860352.9024
        -0.000          -0.000
 -52397062.076 9 -40802817.64947  13596124.492    13596124.2694   13596130.2624
        -0.000          -0.000
 -37401361.259 9 -26141693.65947  13106720.677    13106720.1964   13106725.9624
        -0.000          -0.000
 -17768142.989 9 -13211298.18345  15128617.329    15128616.8264   15128626.8664
        -0.000          -0.000
 98  5  3 19 55 59.9710000  0  8 24 30  5  4  7  9  8 10            -0.028335989
 -68836830.245 9 -53125623.21848  11626232.252    11626232.0374   11626237.3874
        -0.000          -0.000
  -3370425.266 9  -2008849.15045  14769126.321    14769126.6264   14769131.6114
        -0.000          -0.000
 -42207803.392 9 -32850153.14048  12350930.253    12350929.7494   12350934.8944
        -0.000          -0.000
 -50740523.647 9 -39512044.78448  13081418.814    13081419.0024   13081423.7214
        -0.000          -0.000
 -27252401.382 8 -21227069.88145  15846571.135    15846570.2084   15846578.1714
        -0.000          -0.000
 -52473749.391 9 -40862574.07047  13581531.433    13581531.2314   13581537.1954
        -0.000          -0.000
 -37542127.616 9 -26251381.73647  13079933.817    13079933.3404   13079939.0924
        -0.000          -0.000
 -18003940.483 9 -13395036.33945  15083746.683    15083745.9814   15083755.9024
        -0.000          -0.000
 98  5  3 19 56 29.9710000  0  8 24 30  5  4  7  9  8 10            -0.028425446
 -68973515.792 9 -53232131.41949  11600221.832    11600221.5844   11600226.9364
        -0.000          -0.000
  -3607222.296 9  -2193366.26345  14724065.248    14724065.3834   14724070.6264
        -0.000          -0.000
 -42401308.888 9 -33000936.63948  12314107.456    12314106.9114   12314111.9894
        -0.000          -0.000
 -50808914.075 9 -39565336.04548  13068404.444    13068404.6924   13068409.4594
        -0.000          -0.000
 -27324561.052 8 -21283298.26645  15832839.557    15832838.3444   15832846.7534
        -0.000          -0.000
 -52549855.908 9 -40921877.92147  13567048.924    13567048.6484   13567054.6704
        -0.000          -0.000
 -37682071.040 9 -26360428.57847  13053303.527    13053302.9474   13053308.6474
        -0.000          -0.000
 -18239442.999 9 -13578544.63345  15038932.016    15038931.1754   15038941.1624
        -0.000          -0.000
 98  5  3 19 56 59.9710000  0  8 24 30  5  4  7  9  8 10            -0.028514766
 -69109463.595 9 -53338064.75149  11574351.790    11574351.5734   11574356.9594
        -0.000          -0.000
  -3843670.928 9  -2377611.87045  14679070.239    14679070.5514   14679075.9184
        -0.000          -0.000
 -42594259.898 9 -33151288.04748  12277390.080    12277389.5004   12277394.5824
        -0.000          -0.000
 -50876743.385 9 -39618190.05248  13055496.910    13055497.1874   13055501.9414
        -0.000          -0.000
 -27396494.562 8 -21339350.42245  15819150.950    15819149.8304   15819158.0394
        -0.000          -0.000
 -52625385.206 9 -40980731.97047  13552676.057    13552675.8484   13552681.9934
        -0.000          -0.000
 -37821188.318 9 -26468831.65947  13026830.308    13026829.7944   13026835.5264
        -0.000          -0.000
 -18474658.802 9 -13761829.52046  14994171.508    14994171.0224   14994181.0604
        -0.000          -0.000
 98  5  3 19 57 29.9710000  0  8 24 30  5  4  7  9  8 10            -0.028603936
 -69244678.843 9 -53443427.27449  11548621.195    11548620.9464   11548626.3604
        -0.000          -0.000
  -4079758.297 9  -2561576.01545  14634144.235    14634144.4834   14634149.7704
        -0.000          -0.000
 -42786664.776 9 -33301213.90948  12240776.568    12240776.0174   12240781.1464
        -0.000          -0.000
 -50944019.322 9 -39670612.88348  13042694.824    13042695.0104   13042699.8654
        -0.000          -0.000
 -27468195.333 8 -21395221.24545  15805506.188    15805505.6664   15805513.9064
        -0.000          -0.000
 -52700327.331 9 -41039128.51147  13538415.192    13538414.9404   13538421.0524
        -0.000          -0.000
 -37959474.799 9 -26576587.37347  13000515.340    13000514.7914   13000520.5854
        -0.000          -0.000
 -18709579.356 9 -13944884.37146  14949467.584    14949467.1104   14949476.9844
        -0.000          -0.000
 98  5  3 19 57 59.9710000  0  8 24 30  5  4  7  9  8 10            -0.028692960
 -69379175.231 9 -53548229.64049  11523027.343    11523027.1144   11523032.5214
        -0.000          -0.000
  -4315493.821 9  -2745265.96746  14589285.172    14589285.3784   14589290.7464
        -0.000          -0.000
 -42978533.161 9 -33450721.72548  12204265.351    12204264.7334   12204269.8404
        -0.000          -0.000
 -51010758.406 9 -39722617.37448  13029994.682    13029994.9524   13029999.8134
        -0.000          -0.000
 -27539673.944 8 -21450918.91145  15791904.053    15791903.6744   15791912.2064
        -0.000          -0.000
 -52774695.535 9 -41097077.81947  13524263.421    13524263.1874   13524269.3464
        -0.000          -0.000
 -38096942.047 9 -26683704.72547  12974356.209    12974355.6604   12974361.4784
        -0.000          -0.000
 -18944206.679 9 -14127710.71246  14904819.587    14904818.9194   14904828.6614
        -0.000          -0.000
 98  5  3 19 58 29.9710000  0  8 24 30  5  4  7  9  8 10            -0.028781829
 -69512943.161 9 -53652464.37649  11497572.096    11497571.8874   11497577.3294
        -0.000          -0.000
  -4550880.781 9  -2928684.34346  14544492.627    14544492.8374   14544498.1604
        -0.000          -0.000
 -43169852.551 9 -33599801.75448  12167858.538    12167857.8774   12167862.9314
        -0.000          -0.000
 -51076952.238 9 -39774196.99248  13017398.392    13017398.6624   13017403.5254
        -0.000          -0.000
 -27610894.635 8 -21506415.61545  15778351.478    15778350.7854   15778359.3914
        -0.000          -0.000
 -52848484.758 9 -41154575.97747  13510221.924    13510221.6584   13510227.8494
        -0.000          -0.000
 -38233580.328 9 -26790176.13247  12948354.847    12948354.2914   12948360.1374
        -0.000          -0.000
 -19178528.766 9 -14310299.21446  14860229.599    14860228.8384   14860238.6734
        -0.000          -0.000
 98  5  3 19 58 59.9710000  0  8 24 30  5  4  7  9  8 10            -0.028870532
 -69645963.828 9 -53756116.83649  11472259.058    11472258.8714   11472264.3034
        -0.000          -0.000
  -4785913.690 9  -3111826.81646  14499767.594    14499767.6304   14499772.8214
        -0.000          -0.000
 -43360604.275 9 -33748439.44548  12131559.555    12131558.9574   12131564.0184
        -0.000          -0.000
 -51142581.654 9 -39825336.81948  13004909.568    13004909.8384   13004914.7134
        -0.000          -0.000
 -27681822.203 8 -21561683.92945  15764854.557    15764853.7474   15764861.7624
        -0.000          -0.000
 -52921676.375 9 -41211608.47647  13496294.120    13496293.8004   13496300.0104
        -0.000          -0.000
 -38369343.006 9 -26895965.25547  12922520.059    12922519.4864   12922525.2754
        -0.000          -0.000
 -19412539.430 9 -14492645.05646  14815698.800    14815698.1164   14815707.7824
        -0.000          -0.000
 98  5  3 19 59 29.9710000  0  7 24 30  5  4  9  8 10               -0.028959045
 -69778218.728 9 -53859172.59549  11447091.772    11447091.5834   11447096.9754
        -0.000          -0.000
  -5020584.171 9  -3294686.89246  14455111.290    14455111.4244   14455116.4254
        -0.000          -0.000
 -43550751.997 9 -33896606.49248  12095375.634    12095375.0664   12095380.1444
        -0.000          -0.000
 -51207626.756 9 -39876021.32848  12992531.853    12992532.1474   12992537.0474
        -0.000          -0.000
 -52994249.535 9 -41268159.06647  13482483.931    13482483.6514   13482489.7794
        -0.000          -0.000
 -38504197.589 9 -27001046.75847  12896858.057    12896857.5024   12896863.2374
        -0.000          -0.000
 -19646199.586 9 -14674717.78446  14771234.803    14771233.9784   14771243.4564
        -0.000          -0.000
 98  5  3 19 59 59.9710000  0  7 24 30  5  4  9  8 10               -0.029047418
 -69909677.154 9 -53961607.73249  11422076.033    11422075.8314   11422081.2254
        -0.000          -0.000
  -5254871.876 9  -3477248.71746  14410527.831    14410527.9684   14410532.9044
        -0.000          -0.000
 -43740256.201 9 -34044272.10448  12059314.212    12059313.6014   12059318.6844
        -0.000          -0.000
 -51272063.132 9 -39926231.51448  12980269.977    12980270.2764   12980275.1494
        -0.000          -0.000
 -53066188.652 9 -41324215.60147  13468794.371    13468794.1374   13468800.2424
        -0.000          -0.000
 -38638116.345 9 -27105399.07647  12871374.052    12871373.5334   12871379.2634
        -0.000          -0.000
 -19879472.112 9 -14856488.45946  14726844.562    14726843.6484   14726853.2154
        -0.000          -0.000
 98  5  3 20  0 29.9700000  0  7 24 30  5  4  9  8 10               -0.029135617
 -70040350.312 9 -54063430.96249  11397209.723    11397209.5464   11397214.9014
        -0.000          -0.000
  -5488779.603 9  -3659514.44246  14366016.441    14366016.7034   14366021.6574
        -0.000          -0.000
 -43929116.886 9 -34191436.26048  12023375.222    12023374.5914   12023379.6204
        -0.000          -0.000
 -51335893.053 9 -39975969.13348  12968123.616    12968123.8354   12968128.7644
        -0.000          -0.000
 -53137497.097 9 -41379780.69047  13455224.892    13455224.6524   13455230.7554
        -0.000          -0.000
 -38771116.318 9 -27209035.43847  12846065.080    12846064.5944   12846070.3044
        -0.000          -0.000
 -20112345.988 9 -15037948.51346  14682530.086    14682529.1774   14682538.7044
        -0.000          -0.000
 98  5  3 20  0 59.9700000  0  7 24 30  5  4  9  8 10               -0.029223670
 -70170302.698 9 -54164692.55049  11372480.603    11372480.3964   11372485.8194
        -0.000          -0.000
  -5722366.064 9  -3841529.80646  14321566.315    14321566.5464   14321571.7154
        -0.000          -0.000
 -44117393.487 9 -34338145.29248  11987547.374    11987546.7444   11987551.7084
        -0.000          -0.000
 -51399165.127 9 -40025272.06448  12956083.319    12956083.5804   12956088.5264
        -0.000          -0.000
 -53208222.523 9 -41434891.48547  13441766.397    13441766.0894   13441772.2294
        -0.000          -0.000
 -38903260.278 9 -27312004.77147  12820919.012    12820918.4634   12820924.1134
        -0.000          -0.000
 -20344879.177 9 -15219143.07646  14638280.547    14638279.4314   14638288.9644
        -0.000          -0.000
 98  5  3 20  1 29.9700000  0  7 24 30  5  4  9  8 10               -0.029311595
 -70299575.096 9 -54265424.28749  11347880.884    11347880.6664   11347886.1104
        -0.000          -0.000
  -5955646.167 9  -4023306.45846  14277174.708    14277174.7874   14277180.1634
        -0.000          -0.000
 -44305120.890 9 -34484426.37248  11951823.944    11951823.3454   11951828.4154
        -0.000          -0.000
 -51461938.091 9 -40074186.08648  12944138.054    12944138.2804   12944143.2524
        -0.000          -0.000
 -53278408.939 9 -41489582.28647  13428410.378    13428410.0754   13428416.2704
        -0.000          -0.000
 -39034624.017 9 -27414366.15347  12795921.256    12795920.7084   12795926.5464
        -0.000          -0.000
 -20577101.230 9 -15400095.21446  14594090.098    14594089.0524   14594098.5084
        -0.000          -0.000
 98  5  3 20  1 59.9700000  0  7 24 30  5  4  9  8 10               -0.029399384
 -70428162.160 9 -54365621.98349  11323411.509    11323411.3554   11323416.8124
        -0.000          -0.000
  -6188595.449 9  -4204825.32346  14232845.675    14232845.9364   14232851.4774
        -0.000          -0.000
 -44492286.279 9 -34630269.52048  11916207.516    11916206.9624   11916212.0054
        -0.000          -0.000
 -51524193.912 9 -40122697.12748  12932291.123    12932291.4114   12932296.4164
        -0.000          -0.000
 -53348046.689 9 -41543845.53947  13415158.683    13415158.4794   13415164.7554
        -0.000          -0.000
 -39165209.094 9 -27516120.77847  12771071.737    12771071.1814   12771076.9514
        -0.000          -0.000
 -20809010.847 9 -15580803.89046  14549958.736    14549957.9944   14549967.4624
        -0.000          -0.000
 98  5  3 20  2 29.9700000  0  7 24 30  5  4  9  8 10               -0.029487013
 -70556025.809 9 -54465255.97749  11299079.841    11299079.6704   11299085.1234
        -0.000          -0.000
  -6421168.929 9  -4386051.34746  14188588.229    14188588.6544   14188594.2794
        -0.000          -0.000
 -44678849.528 9 -34775643.45848  11880705.700    11880705.1294   11880710.1984
        -0.000          -0.000
 -51585888.711 9 -40170771.00148  12920551.116    12920551.3284   12920556.3534
        -0.000          -0.000
 -53417088.030 9 -41597644.04747  13402020.753    13402020.4744   13402026.6854
        -0.000          -0.000
 -39294970.369 9 -27617233.47347  12746379.009    12746378.4764   12746384.2414
        -0.000          -0.000
 -21040581.169 9 -15761248.18146  14505892.193    14505891.4904   14505900.9554
        -0.000          -0.000
 98  5  3 20  2 59.9700000  0  8 24 30  5  4  6  9  8 10            -0.029574426
 -70683179.785 9 -54564337.00549  11274883.216    11274883.0614   11274888.5094
        -0.000          -0.000
  -6653379.136 9  -4566994.34946  14144400.223    14144400.4754   14144405.9944
        -0.000          -0.000
 -44864819.925 9 -34920555.46248  11845316.730    11845316.1284   11845321.1814
        -0.000          -0.000
 -51647045.253 9 -40218425.49048  12908913.369    12908913.5754   12908918.7294
        -0.000          -0.000
  -1059003.150 8   -791387.42245  16001672.088    16001671.4044   16001680.2434
        -0.000          -0.000
 -53485552.463 9 -41650993.05147  13388992.372    13388992.1034   13388998.3944
        -0.000          -0.000
 -39423912.690 9 -27717708.04947  12721842.051    12721841.5724   12721847.2944
        -0.000          -0.000
 -21271834.808 9 -15941445.71046  14461886.053    14461885.1264   14461894.6774
        -0.000          -0.000
 98  5  3 20  3 29.9700000  0  8 24 30  5  4  6  9  8 10            -0.029661751
 -70809597.120 9 -54662844.01749  11250826.820    11250826.6454   11250832.1244
        -0.000          -0.000
  -6885197.815 9  -4747632.25546  14100286.582    14100286.8354   14100292.2914
        -0.000          -0.000
 -45050158.124 9 -35064974.83148  11810048.074    11810047.4444   11810052.4914
        -0.000          -0.000
 -51707647.454 9 -40265647.99448  12897381.066    12897381.3494   12897386.5114
        -0.000          -0.000
  -1266546.855 8   -953109.74045  15962177.591    15962175.9254   15962185.6124
        -0.000          -0.000
 -53553429.253 9 -41703884.13047  13376075.866    13376075.6554   13376081.9394
        -0.000          -0.000
 -39552016.729 9 -27817529.40247  12697464.680    12697464.1794   12697469.9664
        -0.000          -0.000
 -21502736.745 9 -16121369.19846  14417946.524    14417945.7544   14417955.4454
        -0.000          -0.000
 98  5  3 20  3 59.9700000  0  8 24 30  5  4  6  9  8 10            -0.029748928
 -70935295.773 9 -54760791.01949  11226907.135    11226906.9744   11226912.4894
        -0.000          -0.000
  -7116647.455 9  -4927982.57246  14056243.153    14056243.4554   14056248.8714
        -0.000          -0.000
 -45234867.883 9 -35208904.50248  11774898.828    11774898.2584   11774903.3604
        -0.000          -0.000
 -51767698.498 9 -40312441.04548  12885953.755    12885954.0304   12885959.1774
        -0.000          -0.000
  -1473825.568 9  -1114625.52945  15922733.646    15922732.8014   15922741.6344
        -0.000          -0.000
 -53620735.069 9 -41756330.30547  13363268.029    13363267.7824   13363274.1174
        -0.000          -0.000
 -39679275.664 9 -27916692.23447  12673248.139    12673247.6434   12673253.3184
        -0.000          -0.000
 -21733292.631 9 -16301023.02646  14374072.942    14374072.1674   14374081.9704
        -0.000          -0.000
 98  5  3 20  4 29.9700000  0  8 24 30  5  4  6  9  8 10            -0.029835965
 -71060268.941 9 -54858172.71549  11203125.563    11203125.3984   11203130.9314
        -0.000          -0.000
  -7347730.417 9  -5108047.19446  14012269.426    14012269.6884   14012275.0674
        -0.000          -0.000
 -45418948.790 9 -35352344.17748  11739869.416    11739868.8184   11739873.8974
        -0.000          -0.000
 -51827221.924 9 -40358822.97648  12874626.778    12874627.0414   12874632.2054
        -0.000          -0.000
  -1680851.390 9  -1275944.28245  15883337.948    15883337.4144   15883345.8664
        -0.000          -0.000
 -53687480.215 9 -41808339.61047  13350566.844    13350566.6654   13350573.0094
        -0.000          -0.000
 -39805690.900 9 -28015197.66347  12649192.220    12649191.7374   12649197.2594
        -0.000          -0.000
 -21963487.438 9 -16480395.49746  14330268.226    14330267.4624   14330277.1114
        -0.000          -0.000
 98  5  3 20  4 59.9700000  0  8 24 30  5  4  6  9  8 10            -0.029922871
 -71184524.905 9 -54954995.54249  11179480.407    11179480.2174   11179485.7834
        -0.000          -0.000
  -7578454.349 9  -5287832.03546  13968363.998    13968364.2824   13968369.6434
        -0.000          -0.000
 -45602411.807 9 -35495302.36348  11704957.625    11704956.9974   11704962.0754
        -0.000          -0.000
 -51886236.587 9 -40404808.44948  12863396.741    12863396.9764   12863402.0844
        -0.000          -0.000
  -1887645.663 9  -1437082.59945  15843986.194    15843985.7274   15843993.7704
        -0.000          -0.000
 -53753694.843 9 -41859935.51347  13337966.733    13337966.5184   13337972.8564
        -0.000          -0.000
 -39931280.623 9 -28113059.80547  12625293.300    12625292.8414   12625298.4004
        -0.000          -0.000
 -22193321.216 9 -16659486.62946  14286532.285    14286531.5204   14286541.1964
        -0.000          -0.000
